Wetterdaten: Donnerstag, 31.03.2016
Datum Zeit Temp. A. Feuchte A. Luftdruck Regen Wind Richtung Richtung Sonnenschein ET UV Solar Taupunkt Windchill Windben Empfang
31.03.2016 00:00 11,3 C 90 % 1013,4 hPa 0,0 l/m 7,0 km/h (2 Bft) O-SO 117 0 min 0,000 mm 0,0 UV-I 0 W/m 9,7 C 10,9 C 9,7 km/h (2 Bft) 100,00 %
31.03.2016 00:02 11,4 C 90 % 1013,4 hPa 0,0 l/m 7,5 km/h (2 Bft) SO 144 0 min 0,000 mm 0,0 UV-I 0 W/m 9,8 C 10,7 C 11,3 km/h (2 Bft) 100,00 %
31.03.2016 00:03 11,4 C 90 % 1013,4 hPa 0,0 l/m 6,9 km/h (2 Bft) S-SO 161 0 min 0,000 mm 0,0 UV-I 0 W/m 9,8 C 11,1 C 11,3 km/h (2 Bft) 91,30 %
31.03.2016 00:04 11,4 C 90 % 1013,4 hPa 0,0 l/m 8,5 km/h (2 Bft) SO 124 0 min 0,000 mm 0,0 UV-I 0 W/m 9,8 C 10,0 C 12,9 km/h (3 Bft) 100,00 %
31.03.2016 00:05 11,5 C 89 % 1013,4 hPa 0,0 l/m 8,7 km/h (2 Bft) SO 129 0 min 0,000 mm 0,0 UV-I 0 W/m 9,8 C 10,0 C 12,9 km/h (3 Bft) 100,00 %
31.03.2016 00:06 11,5 C 89 % 1013,4 hPa 0,0 l/m 5,9 km/h (2 Bft) O-SO 123 0 min 0,000 mm 0,0 UV-I 0 W/m 9,8 C 11,5 C 9,7 km/h (2 Bft) 100,00 %
31.03.2016 00:07 11,6 C 89 % 1013,3 hPa 0,0 l/m 6,7 km/h (2 Bft) SO 132 0 min 0,000 mm 0,0 UV-I 0 W/m 9,8 C 11,4 C 11,3 km/h (2 Bft) 100,00 %
31.03.2016 00:08 11,6 C 89 % 1013,3 hPa 0,0 l/m 6,9 km/h (2 Bft) SO 134 0 min 0,000 mm 0,0 UV-I 0 W/m 9,8 C 11,3 C 11,3 km/h (2 Bft) 100,00 %
31.03.2016 00:09 11,6 C 89 % 1013,4 hPa 0,0 l/m 9,3 km/h (2 Bft) SO 128 0 min 0,000 mm 0,0 UV-I 0 W/m 9,8 C 9,8 C 12,9 km/h (3 Bft) 100,00 %
31.03.2016 00:10 11,5 C 89 % 1013,3 hPa 0,0 l/m 11,3 km/h (2 Bft) O-SO 121 0 min 0,000 mm 0,0 UV-I 0 W/m 9,8 C 8,6 C 12,9 km/h (3 Bft) 100,00 %
31.03.2016 00:11 11,5 C 89 % 1013,2 hPa 0,0 l/m 10,7 km/h (2 Bft) O-SO 111 0 min 0,000 mm 0,0 UV-I 0 W/m 9,8 C 8,9 C 12,9 km/h (3 Bft) 100,00 %
31.03.2016 00:12 11,6 C 89 % 1013,2 hPa 0,0 l/m 7,9 km/h (2 Bft) O-SO 115 0 min 0,000 mm 0,0 UV-I 0 W/m 9,8 C 10,6 C 12,9 km/h (3 Bft) 100,00 %
31.03.2016 00:13 11,6 C 89 % 1013,2 hPa 0,0 l/m 8,8 km/h (2 Bft) SO 128 0 min 0,000 mm 0,0 UV-I 0 W/m 9,8 C 10,0 C 12,9 km/h (3 Bft) 100,00 %
31.03.2016 00:14 11,6 C 89 % 1013,2 hPa 0,0 l/m 9,6 km/h (2 Bft) O-SO 119 0 min 0,000 mm 0,0 UV-I 0 W/m 9,8 C 9,6 C 12,9 km/h (3 Bft) 96,55 %
31.03.2016 00:15 11,5 C 89 % 1013,1 hPa 0,0 l/m 6,0 km/h (2 Bft) S-SO 161 0 min 0,000 mm 0,0 UV-I 0 W/m 9,8 C 11,5 C 9,7 km/h (2 Bft) 100,00 %
31.03.2016 00:16 11,5 C 89 % 1013,2 hPa 0,0 l/m 5,6 km/h (1 Bft) SO 129 0 min 0,000 mm 0,0 UV-I 0 W/m 9,8 C 11,5 C 6,4 km/h (2 Bft) 96,55 %
31.03.2016 00:17 11,5 C 89 % 1013,2 hPa 0,0 l/m 7,3 km/h (2 Bft) O-SO 107 0 min 0,000 mm 0,0 UV-I 0 W/m 9,8 C 10,9 C 12,9 km/h (3 Bft) 96,15 %
31.03.2016 00:18 11,5 C 89 % 1013,2 hPa 0,0 l/m 8,5 km/h (2 Bft) SO 129 0 min 0,000 mm 0,0 UV-I 0 W/m 9,8 C 10,1 C 12,9 km/h (3 Bft) 91,67 %
31.03.2016 00:19 11,5 C 89 % 1013,1 hPa 0,0 l/m 6,4 km/h (2 Bft) O-SO 123 0 min 0,000 mm 0,0 UV-I 0 W/m 9,8 C 11,5 C 8,0 km/h (2 Bft) 97,56 %
31.03.2016 00:20 11,5 C 89 % 1013,2 hPa 0,0 l/m 9,3 km/h (2 Bft) SO 131 0 min 0,000 mm 0,0 UV-I 0 W/m 9,8 C 9,6 C 12,9 km/h (3 Bft) 100,00 %
31.03.2016 00:21 11,5 C 89 % 1013,2 hPa 0,0 l/m 5,8 km/h (2 Bft) SO 130 0 min 0,000 mm 0,0 UV-I 0 W/m 9,8 C 11,5 C 9,7 km/h (2 Bft) 96,30 %
31.03.2016 00:22 11,4 C 89 % 1013,2 hPa 0,0 l/m 7,0 km/h (2 Bft) SO 136 0 min 0,000 mm 0,0 UV-I 0 W/m 9,7 C 11,0 C 8,0 km/h (2 Bft) 100,00 %
31.03.2016 00:23 11,4 C 89 % 1013,2 hPa 0,0 l/m 6,2 km/h (2 Bft) SO 132 0 min 0,000 mm 0,0 UV-I 0 W/m 9,7 C 11,4 C 11,3 km/h (2 Bft) 95,83 %
31.03.2016 00:24 11,4 C 89 % 1013,2 hPa 0,0 l/m 7,4 km/h (2 Bft) SO 130 0 min 0,000 mm 0,0 UV-I 0 W/m 9,7 C 10,7 C 12,9 km/h (3 Bft) 100,00 %
31.03.2016 00:25 11,4 C 89 % 1013,2 hPa 0,0 l/m 6,1 km/h (2 Bft) SO 138 0 min 0,000 mm 0,0 UV-I 0 W/m 9,7 C 11,4 C 11,3 km/h (2 Bft) 95,83 %
31.03.2016 00:26 11,4 C 89 % 1013,2 hPa 0,0 l/m 7,2 km/h (2 Bft) SO 126 0 min 0,000 mm 0,0 UV-I 0 W/m 9,7 C 10,9 C 11,3 km/h (2 Bft) 100,00 %
31.03.2016 00:27 11,5 C 89 % 1013,2 hPa 0,0 l/m 6,0 km/h (2 Bft) SO 144 0 min 0,000 mm 0,0 UV-I 0 W/m 9,8 C 11,5 C 11,3 km/h (2 Bft) 93,33 %
31.03.2016 00:28 11,5 C 89 % 1013,2 hPa 0,0 l/m 6,1 km/h (2 Bft) SO 132 0 min 0,000 mm 0,0 UV-I 0 W/m 9,8 C 11,5 C 8,0 km/h (2 Bft) 96,15 %
31.03.2016 00:29 11,5 C 89 % 1013,2 hPa 0,0 l/m 6,2 km/h (2 Bft) O-SO 123 0 min 0,000 mm 0,0 UV-I 0 W/m 9,8 C 11,5 C 11,3 km/h (2 Bft) 100,00 %
31.03.2016 00:30 11,5 C 89 % 1013,2 hPa 0,0 l/m 5,8 km/h (2 Bft) SO 141 0 min 0,000 mm 0,0 UV-I 0 W/m 9,8 C 11,5 C 8,0 km/h (2 Bft) 95,65 %
31.03.2016 00:31 11,5 C 89 % 1013,2 hPa 0,0 l/m 5,4 km/h (1 Bft) SO 133 0 min 0,000 mm 0,0 UV-I 0 W/m 9,8 C 11,5 C 8,0 km/h (2 Bft) 100,00 %
31.03.2016 00:32 11,5 C 89 % 1013,2 hPa 0,0 l/m 5,6 km/h (1 Bft) SO 132 0 min 0,000 mm 0,0 UV-I 0 W/m 9,8 C 11,5 C 8,0 km/h (2 Bft) 96,15 %
31.03.2016 00:33 11,5 C 89 % 1013,2 hPa 0,0 l/m 6,3 km/h (2 Bft) SO 126 0 min 0,000 mm 0,0 UV-I 0 W/m 9,8 C 11,5 C 9,7 km/h (2 Bft) 100,00 %
31.03.2016 00:34 11,5 C 89 % 1013,2 hPa 0,0 l/m 4,6 km/h (1 Bft) O-SO 122 0 min 0,000 mm 0,0 UV-I 0 W/m 9,8 C 11,5 C 8,0 km/h (2 Bft) 92,31 %
31.03.2016 00:35 11,5 C 89 % 1013,1 hPa 0,0 l/m 4,4 km/h (1 Bft) SO 131 0 min 0,000 mm 0,0 UV-I 0 W/m 9,8 C 11,5 C 6,4 km/h (2 Bft) 100,00 %
31.03.2016 00:36 11,5 C 89 % 1013,2 hPa 0,0 l/m 3,2 km/h (1 Bft) SO 131 0 min 0,000 mm 0,0 UV-I 0 W/m 9,8 C 11,5 C 4,8 km/h (1 Bft) 91,30 %
31.03.2016 00:37 11,5 C 89 % 1013,2 hPa 0,0 l/m 4,9 km/h (1 Bft) SO 129 0 min 0,000 mm 0,0 UV-I 0 W/m 9,8 C 11,5 C 6,4 km/h (2 Bft) 96,30 %
31.03.2016 00:38 11,5 C 89 % 1013,1 hPa 0,0 l/m 3,4 km/h (1 Bft) SO 133 0 min 0,000 mm 0,0 UV-I 0 W/m 9,8 C 11,5 C 4,8 km/h (1 Bft) 100,00 %
31.03.2016 00:39 11,4 C 89 % 1013,1 hPa 0,0 l/m 5,8 km/h (2 Bft) SO 141 0 min 0,000 mm 0,0 UV-I 0 W/m 9,7 C 11,4 C 11,3 km/h (2 Bft) 95,83 %
31.03.2016 00:40 11,5 C 89 % 1013,1 hPa 0,0 l/m 6,4 km/h (2 Bft) SO 128 0 min 0,000 mm 0,0 UV-I 0 W/m 9,8 C 11,5 C 8,0 km/h (2 Bft) 100,00 %
31.03.2016 00:41 11,4 C 89 % 1013,1 hPa 0,0 l/m 6,4 km/h (2 Bft) O-SO 112 0 min 0,000 mm 0,0 UV-I 0 W/m 9,7 C 11,4 C 9,7 km/h (2 Bft) 96,15 %
31.03.2016 00:42 11,5 C 89 % 1013,1 hPa 0,0 l/m 6,3 km/h (2 Bft) SO 138 0 min 0,000 mm 0,0 UV-I 0 W/m 9,8 C 11,5 C 8,0 km/h (2 Bft) 100,00 %
31.03.2016 00:43 11,5 C 89 % 1013,1 hPa 0,0 l/m 7,5 km/h (2 Bft) SO 138 0 min 0,000 mm 0,0 UV-I 0 W/m 9,8 C 10,8 C 11,3 km/h (2 Bft) 95,65 %
31.03.2016 00:44 11,5 C 89 % 1013,1 hPa 0,0 l/m 6,9 km/h (2 Bft) SO 141 0 min 0,000 mm 0,0 UV-I 0 W/m 9,8 C 11,2 C 11,3 km/h (2 Bft) 100,00 %
31.03.2016 00:45 11,4 C 89 % 1013,1 hPa 0,0 l/m 5,7 km/h (1 Bft) O-SO 123 0 min 0,000 mm 0,0 UV-I 0 W/m 9,7 C 11,4 C 6,4 km/h (2 Bft) 96,15 %
31.03.2016 00:46 11,4 C 89 % 1013,1 hPa 0,0 l/m 6,2 km/h (2 Bft) SO 130 0 min 0,000 mm 0,0 UV-I 0 W/m 9,7 C 11,4 C 9,7 km/h (2 Bft) 96,30 %
31.03.2016 00:47 11,4 C 89 % 1013,0 hPa 0,0 l/m 10,2 km/h (2 Bft) O-SO 121 0 min 0,000 mm 0,0 UV-I 0 W/m 9,7 C 9,0 C 14,5 km/h (3 Bft) 100,00 %
31.03.2016 00:48 11,4 C 89 % 1013,0 hPa 0,0 l/m 7,2 km/h (2 Bft) O-SO 121 0 min 0,000 mm 0,0 UV-I 0 W/m 9,7 C 10,9 C 12,9 km/h (3 Bft) 100,00 %
31.03.2016 00:49 11,4 C 89 % 1013,0 hPa 0,0 l/m 10,2 km/h (2 Bft) SO 137 0 min 0,000 mm 0,0 UV-I 0 W/m 9,7 C 9,0 C 14,5 km/h (3 Bft) 100,00 %
31.03.2016 00:50 11,4 C 89 % 1013,0 hPa 0,0 l/m 8,0 km/h (2 Bft) SO 130 0 min 0,000 mm 0,0 UV-I 0 W/m 9,7 C 10,3 C 12,9 km/h (3 Bft) 100,00 %
31.03.2016 00:51 11,4 C 89 % 1013,0 hPa 0,0 l/m 6,1 km/h (2 Bft) SO 135 0 min 0,000 mm 0,0 UV-I 0 W/m 9,7 C 11,4 C 9,7 km/h (2 Bft) 97,86 %
31.03.2016 00:52 11,4 C 89 % 1012,9 hPa 0,0 l/m 10,6 km/h (2 Bft) O-SO 111 0 min 0,000 mm 0,0 UV-I 0 W/m 9,7 C 8,8 C 17,7 km/h (3 Bft) 100,00 %
31.03.2016 00:53 11,4 C 88 % 1012,9 hPa 0,0 l/m 10,1 km/h (2 Bft) S-SO 148 0 min 0,000 mm 0,0 UV-I 0 W/m 9,5 C 9,1 C 14,5 km/h (3 Bft) 100,00 %
31.03.2016 00:54 11,4 C 88 % 1012,9 hPa 0,0 l/m 7,7 km/h (2 Bft) O-SO 105 0 min 0,000 mm 0,0 UV-I 0 W/m 9,5 C 10,5 C 12,9 km/h (3 Bft) 95,65 %
31.03.2016 00:55 11,4 C 88 % 1012,9 hPa 0,0 l/m 10,3 km/h (2 Bft) SO 127 0 min 0,000 mm 0,0 UV-I 0 W/m 9,5 C 9,0 C 12,9 km/h (3 Bft) 100,00 %
31.03.2016 00:56 11,4 C 88 % 1012,9 hPa 0,0 l/m 7,6 km/h (2 Bft) SO 136 0 min 0,000 mm 0,0 UV-I 0 W/m 9,5 C 10,6 C 11,3 km/h (2 Bft) 100,00 %
31.03.2016 00:57 11,4 C 88 % 1012,8 hPa 0,0 l/m 6,9 km/h (2 Bft) O-SO 119 0 min 0,000 mm 0,0 UV-I 0 W/m 9,5 C 11,1 C 9,7 km/h (2 Bft) 100,00 %
31.03.2016 00:58 11,4 C 88 % 1012,9 hPa 0,0 l/m 6,0 km/h (2 Bft) SO 131 0 min 0,000 mm 0,0 UV-I 0 W/m 9,5 C 11,4 C 8,0 km/h (2 Bft) 100,00 %
31.03.2016 00:59 11,4 C 88 % 1012,9 hPa 0,0 l/m 6,4 km/h (2 Bft) O-SO 119 0 min 0,000 mm 0,0 UV-I 0 W/m 9,5 C 11,4 C 9,7 km/h (2 Bft) 100,00 %
31.03.2016 01:00 11,4 C 88 % 1012,9 hPa 0,0 l/m 7,6 km/h (2 Bft) O-SO 109 0 min 0,000 mm 0,0 UV-I 0 W/m 9,5 C 10,6 C 11,3 km/h (2 Bft) 100,00 %
31.03.2016 01:02 11,4 C 88 % 1012,9 hPa 0,0 l/m 6,4 km/h (2 Bft) S-SO 152 0 min 0,000 mm 0,0 UV-I 0 W/m 9,5 C 11,4 C 11,3 km/h (2 Bft) 96,00 %
31.03.2016 01:03 11,4 C 88 % 1012,9 hPa 0,0 l/m 2,9 km/h (1 Bft) SO 140 0 min 0,000 mm 0,0 UV-I 0 W/m 9,5 C 11,4 C 6,4 km/h (2 Bft) 100,00 %
31.03.2016 01:04 11,4 C 88 % 1012,9 hPa 0,0 l/m 4,8 km/h (1 Bft) SO 126 0 min 0,000 mm 0,0 UV-I 0 W/m 9,5 C 11,4 C 6,4 km/h (2 Bft) 100,00 %
31.03.2016 01:05 11,4 C 88 % 1012,9 hPa 0,0 l/m 5,7 km/h (1 Bft) SO 124 0 min 0,000 mm 0,0 UV-I 0 W/m 9,5 C 11,4 C 9,7 km/h (2 Bft) 100,00 %
31.03.2016 01:06 11,4 C 88 % 1012,9 hPa 0,0 l/m 4,3 km/h (1 Bft) SO 128 0 min 0,000 mm 0,0 UV-I 0 W/m 9,5 C 11,4 C 8,0 km/h (2 Bft) 100,00 %
31.03.2016 01:07 11,4 C 88 % 1012,8 hPa 0,0 l/m 4,6 km/h (1 Bft) O-SO 119 0 min 0,000 mm 0,0 UV-I 0 W/m 9,5 C 11,4 C 6,4 km/h (2 Bft) 100,00 %
31.03.2016 01:08 11,4 C 88 % 1012,8 hPa 0,0 l/m 4,7 km/h (1 Bft) SO 138 0 min 0,000 mm 0,0 UV-I 0 W/m 9,5 C 11,4 C 6,4 km/h (2 Bft) 95,65 %
31.03.2016 01:09 11,4 C 88 % 1012,8 hPa 0,0 l/m 4,1 km/h (1 Bft) SO 139 0 min 0,000 mm 0,0 UV-I 0 W/m 9,5 C 11,4 C 6,4 km/h (2 Bft) 100,00 %
31.03.2016 01:10 11,4 C 88 % 1012,8 hPa 0,0 l/m 3,5 km/h (1 Bft) SO 134 0 min 0,000 mm 0,0 UV-I 0 W/m 9,5 C 11,4 C 6,4 km/h (2 Bft) 100,00 %
31.03.2016 01:11 11,4 C 88 % 1012,8 hPa 0,0 l/m 4,2 km/h (1 Bft) SO 129 0 min 0,000 mm 0,0 UV-I 0 W/m 9,5 C 11,4 C 4,8 km/h (1 Bft) 100,00 %
31.03.2016 01:12 11,4 C 88 % 1012,8 hPa 0,0 l/m 1,7 km/h (1 Bft) SO 132 0 min 0,000 mm 0,0 UV-I 0 W/m 9,5 C 11,4 C 4,8 km/h (1 Bft) 100,00 %
31.03.2016 01:13 11,4 C 88 % 1012,8 hPa 0,0 l/m 4,0 km/h (1 Bft) SO 134 0 min 0,000 mm 0,0 UV-I 0 W/m 9,5 C 11,4 C 4,8 km/h (1 Bft) 100,00 %
31.03.2016 01:14 11,4 C 88 % 1012,8 hPa 0,0 l/m 1,0 km/h (0 Bft) SO 134 0 min 0,000 mm 0,0 UV-I 0 W/m 9,5 C 11,4 C 1,6 km/h (1 Bft) 95,65 %
31.03.2016 01:15 11,3 C 88 % 1012,8 hPa 0,0 l/m 2,6 km/h (1 Bft) S-SO 161 0 min 0,000 mm 0,0 UV-I 0 W/m 9,4 C 11,3 C 3,2 km/h (1 Bft) 100,00 %
31.03.2016 01:16 11,4 C 87 % 1012,8 hPa 0,0 l/m 3,1 km/h (1 Bft) SO 140 0 min 0,000 mm 0,0 UV-I 0 W/m 9,3 C 11,4 C 4,8 km/h (1 Bft) 93,33 %
31.03.2016 01:17 11,4 C 87 % 1012,7 hPa 0,0 l/m 2,2 km/h (1 Bft) S-SO 150 0 min 0,000 mm 0,0 UV-I 0 W/m 9,3 C 11,4 C 3,2 km/h (1 Bft) 100,00 %
31.03.2016 01:18 11,4 C 87 % 1012,7 hPa 0,0 l/m 2,1 km/h (1 Bft) SO 144 0 min 0,000 mm 0,0 UV-I 0 W/m 9,3 C 11,4 C 4,8 km/h (1 Bft) 100,00 %
31.03.2016 01:19 11,4 C 87 % 1012,7 hPa 0,0 l/m 3,7 km/h (1 Bft) SO 136 0 min 0,000 mm 0,0 UV-I 0 W/m 9,3 C 11,4 C 4,8 km/h (1 Bft) 100,00 %
31.03.2016 01:20 11,3 C 87 % 1012,7 hPa 0,0 l/m 2,8 km/h (1 Bft) SO 136 0 min 0,000 mm 0,0 UV-I 0 W/m 9,2 C 11,3 C 4,8 km/h (1 Bft) 100,00 %
31.03.2016 01:21 11,3 C 87 % 1012,7 hPa 0,0 l/m 0,6 km/h (0 Bft) SO 136 0 min 0,000 mm 0,0 UV-I 0 W/m 9,2 C 11,3 C 3,2 km/h (1 Bft) 95,65 %
31.03.2016 01:22 11,3 C 87 % 1012,7 hPa 0,0 l/m 1,1 km/h (1 Bft) SO 136 0 min 0,000 mm 0,0 UV-I 0 W/m 9,2 C 11,3 C 1,6 km/h (1 Bft) 100,00 %
31.03.2016 01:23 11,3 C 87 % 1012,7 hPa 0,0 l/m 1,2 km/h (1 Bft) SO 136 0 min 0,000 mm 0,0 UV-I 0 W/m 9,2 C 11,3 C 3,2 km/h (1 Bft) 100,00 %
31.03.2016 01:24 11,2 C 88 % 1012,7 hPa 0,0 l/m 0,0 km/h (0 Bft) SO 136 0 min 0,000 mm 0,0 UV-I 0 W/m 9,3 C 11,2 C 0,0 km/h (0 Bft) 100,00 %
31.03.2016 01:25 11,2 C 88 % 1012,7 hPa 0,0 l/m 0,3 km/h (0 Bft) SO 136 0 min 0,000 mm 0,0 UV-I 0 W/m 9,3 C 11,2 C 1,6 km/h (1 Bft) 100,00 %
31.03.2016 01:26 11,2 C 88 % 1012,6 hPa 0,0 l/m 0,0 km/h (0 Bft) SO 136 0 min 0,000 mm 0,0 UV-I 0 W/m 9,3 C 11,2 C 0,0 km/h (0 Bft) 100,00 %
31.03.2016 01:27 11,1 C 88 % 1012,6 hPa 0,0 l/m 0,0 km/h (0 Bft) SO 136 0 min 0,000 mm 0,0 UV-I 0 W/m 9,2 C 11,1 C 0,0 km/h (0 Bft) 95,65 %
31.03.2016 01:28 11,1 C 88 % 1012,7 hPa 0,0 l/m 0,0 km/h (0 Bft) SO 136 0 min 0,000 mm 0,0 UV-I 0 W/m 9,2 C 11,1 C 0,0 km/h (0 Bft) 100,00 %
31.03.2016 01:29 11,1 C 88 % 1012,6 hPa 0,0 l/m 0,0 km/h (0 Bft) SO 136 0 min 0,000 mm 0,0 UV-I 0 W/m 9,2 C 11,1 C 0,0 km/h (0 Bft) 100,00 %
31.03.2016 01:30 11,1 C 88 % 1012,6 hPa 0,0 l/m 1,0 km/h (0 Bft) SO 136 0 min 0,000 mm 0,0 UV-I 0 W/m 9,2 C 11,1 C 1,6 km/h (1 Bft) 100,00 %
31.03.2016 01:31 11,0 C 88 % 1012,6 hPa 0,0 l/m 0,9 km/h (0 Bft) SO 136 0 min 0,000 mm 0,0 UV-I 0 W/m 9,1 C 11,0 C 1,6 km/h (1 Bft) 100,00 %
31.03.2016 01:32 11,0 C 88 % 1012,6 hPa 0,0 l/m 1,8 km/h (1 Bft) SO 136 0 min 0,000 mm 0,0 UV-I 0 W/m 9,1 C 11,0 C 3,2 km/h (1 Bft) 96,67 %
31.03.2016 01:33 11,0 C 89 % 1012,5 hPa 0,0 l/m 1,9 km/h (1 Bft) SO 136 0 min 0,000 mm 0,0 UV-I 0 W/m 9,3 C 11,0 C 3,2 km/h (1 Bft) 100,00 %
31.03.2016 01:34 10,9 C 89 % 1012,5 hPa 0,0 l/m 2,5 km/h (1 Bft) SO 136 0 min 0,000 mm 0,0 UV-I 0 W/m 9,2 C 10,9 C 3,2 km/h (1 Bft) 100,00 %
31.03.2016 01:35 10,8 C 89 % 1012,4 hPa 0,0 l/m 4,2 km/h (1 Bft) SO 135 0 min 0,000 mm 0,0 UV-I 0 W/m 9,1 C 10,8 C 4,8 km/h (1 Bft) 100,00 %
31.03.2016 01:36 10,7 C 88 % 1012,4 hPa 0,0 l/m 4,3 km/h (1 Bft) SO 126 0 min 0,000 mm 0,0 UV-I 0 W/m 8,8 C 10,7 C 4,8 km/h (1 Bft) 100,00 %
31.03.2016 01:37 10,6 C 89 % 1012,4 hPa 0,0 l/m 4,0 km/h (1 Bft) SO 126 0 min 0,000 mm 0,0 UV-I 0 W/m 8,9 C 10,6 C 6,4 km/h (2 Bft) 100,00 %
31.03.2016 01:38 10,5 C 89 % 1012,3 hPa 0,0 l/m 5,3 km/h (1 Bft) O-SO 103 0 min 0,000 mm 0,0 UV-I 0 W/m 8,8 C 10,5 C 9,7 km/h (2 Bft) 100,00 %
31.03.2016 01:39 10,4 C 90 % 1012,3 hPa 0,0 l/m 8,4 km/h (2 Bft) O-SO 111 0 min 0,000 mm 0,0 UV-I 0 W/m 8,8 C 9,0 C 11,3 km/h (2 Bft) 100,00 %
31.03.2016 01:40 10,3 C 90 % 1012,3 hPa 0,0 l/m 7,6 km/h (2 Bft) O-SO 115 0 min 0,000 mm 0,0 UV-I 0 W/m 8,7 C 9,4 C 11,3 km/h (2 Bft) 100,00 %
31.03.2016 01:41 10,4 C 91 % 1012,3 hPa 0,0 l/m 5,1 km/h (1 Bft) O 90 0 min 0,000 mm 0,0 UV-I 0 W/m 9,0 C 10,4 C 6,4 km/h (2 Bft) 100,00 %
31.03.2016 01:42 10,5 C 91 % 1012,2 hPa 0,0 l/m 4,7 km/h (1 Bft) O 99 0 min 0,000 mm 0,0 UV-I 0 W/m 9,1 C 10,5 C 6,4 km/h (2 Bft) 100,00 %
31.03.2016 01:43 10,6 C 90 % 1012,2 hPa 0,0 l/m 6,2 km/h (2 Bft) O 91 0 min 0,000 mm 0,0 UV-I 0 W/m 9,0 C 10,6 C 9,7 km/h (2 Bft) 100,00 %
31.03.2016 01:44 10,7 C 90 % 1012,2 hPa 0,0 l/m 4,1 km/h (1 Bft) O-NO 74 0 min 0,000 mm 0,0 UV-I 0 W/m 9,1 C 10,7 C 6,4 km/h (2 Bft) 100,00 %
31.03.2016 01:45 10,8 C 90 % 1012,2 hPa 0,0 l/m 4,8 km/h (1 Bft) O 97 0 min 0,000 mm 0,0 UV-I 0 W/m 9,2 C 10,8 C 6,4 km/h (2 Bft) 100,00 %
31.03.2016 01:46 10,8 C 89 % 1012,2 hPa 0,0 l/m 5,8 km/h (2 Bft) O 81 0 min 0,000 mm 0,0 UV-I 0 W/m 9,1 C 10,8 C 8,0 km/h (2 Bft) 100,00 %
31.03.2016 01:47 10,9 C 89 % 1012,2 hPa 0,0 l/m 4,7 km/h (1 Bft) O-SO 105 0 min 0,000 mm 0,0 UV-I 0 W/m 9,2 C 10,9 C 6,4 km/h (2 Bft) 96,67 %
31.03.2016 01:48 11,0 C 89 % 1012,2 hPa 0,0 l/m 2,5 km/h (1 Bft) O 92 0 min 0,000 mm 0,0 UV-I 0 W/m 9,3 C 11,0 C 4,8 km/h (1 Bft) 100,00 %
31.03.2016 01:49 11,1 C 89 % 1012,2 hPa 0,0 l/m 5,0 km/h (1 Bft) O-NO 68 0 min 0,000 mm 0,0 UV-I 0 W/m 9,4 C 11,1 C 6,4 km/h (2 Bft) 100,00 %
31.03.2016 01:50 11,1 C 88 % 1012,2 hPa 0,0 l/m 4,3 km/h (1 Bft) O-NO 76 0 min 0,000 mm 0,0 UV-I 0 W/m 9,2 C 11,1 C 6,4 km/h (2 Bft) 100,00 %
31.03.2016 01:51 11,2 C 88 % 1012,2 hPa 0,0 l/m 3,9 km/h (1 Bft) O-NO 72 0 min 0,000 mm 0,0 UV-I 0 W/m 9,3 C 11,2 C 4,8 km/h (1 Bft) 100,00 %
31.03.2016 01:52 11,2 C 88 % 1012,1 hPa 0,0 l/m 5,8 km/h (2 Bft) O-NO 61 0 min 0,000 mm 0,0 UV-I 0 W/m 9,3 C 11,2 C 8,0 km/h (2 Bft) 100,00 %
31.03.2016 01:53 11,3 C 88 % 1012,1 hPa 0,0 l/m 4,1 km/h (1 Bft) O-NO 65 0 min 0,000 mm 0,0 UV-I 0 W/m 9,4 C 11,3 C 6,4 km/h (2 Bft) 100,00 %
31.03.2016 01:54 11,3 C 88 % 1012,0 hPa 0,0 l/m 4,4 km/h (1 Bft) O-NO 62 0 min 0,000 mm 0,0 UV-I 0 W/m 9,4 C 11,3 C 6,4 km/h (2 Bft) 100,00 %
31.03.2016 01:55 11,3 C 88 % 1012,0 hPa 0,0 l/m 6,0 km/h (2 Bft) NO 51 0 min 0,000 mm 0,0 UV-I 0 W/m 9,4 C 11,3 C 6,4 km/h (2 Bft) 100,00 %
31.03.2016 01:56 11,2 C 88 % 1012,1 hPa 0,0 l/m 5,1 km/h (1 Bft) NO 49 0 min 0,000 mm 0,0 UV-I 0 W/m 9,3 C 11,2 C 6,4 km/h (2 Bft) 100,00 %
31.03.2016 01:57 11,1 C 88 % 1012,0 hPa 0,0 l/m 5,4 km/h (1 Bft) NO 49 0 min 0,000 mm 0,0 UV-I 0 W/m 9,2 C 11,1 C 6,4 km/h (2 Bft) 100,00 %
31.03.2016 01:58 11,0 C 88 % 1012,0 hPa 0,0 l/m 4,9 km/h (1 Bft) NO 49 0 min 0,000 mm 0,0 UV-I 0 W/m 9,1 C 11,0 C 6,4 km/h (2 Bft) 100,00 %
31.03.2016 01:59 10,8 C 88 % 1012,0 hPa 0,0 l/m 4,6 km/h (1 Bft) NO 49 0 min 0,000 mm 0,0 UV-I 0 W/m 8,9 C 10,8 C 6,4 km/h (2 Bft) 100,00 %
31.03.2016 02:00 10,8 C 88 % 1012,0 hPa 0,0 l/m 4,9 km/h (1 Bft) NO 53 0 min 0,000 mm 0,0 UV-I 0 W/m 8,9 C 10,8 C 6,4 km/h (2 Bft) 100,00 %
31.03.2016 02:02 10,7 C 90 % 1011,9 hPa 0,0 l/m 5,0 km/h (1 Bft) O-NO 67 0 min 0,000 mm 0,0 UV-I 0 W/m 9,1 C 10,7 C 6,4 km/h (2 Bft) 100,00 %
31.03.2016 02:03 10,7 C 90 % 1011,9 hPa 0,0 l/m 6,3 km/h (2 Bft) O-NO 67 0 min 0,000 mm 0,0 UV-I 0 W/m 9,1 C 10,7 C 8,0 km/h (2 Bft) 100,00 %
31.03.2016 02:04 10,7 C 90 % 1011,9 hPa 0,0 l/m 6,1 km/h (2 Bft) O-NO 61 0 min 0,000 mm 0,0 UV-I 0 W/m 9,1 C 10,7 C 8,0 km/h (2 Bft) 100,00 %
31.03.2016 02:05 10,7 C 90 % 1011,9 hPa 0,0 l/m 7,1 km/h (2 Bft) O-NO 63 0 min 0,000 mm 0,0 UV-I 0 W/m 9,1 C 10,2 C 9,7 km/h (2 Bft) 100,00 %
31.03.2016 02:06 10,7 C 90 % 1011,9 hPa 0,0 l/m 6,3 km/h (2 Bft) O-NO 65 0 min 0,000 mm 0,0 UV-I 0 W/m 9,1 C 10,7 C 9,7 km/h (2 Bft) 100,00 %
31.03.2016 02:07 10,7 C 90 % 1011,9 hPa 0,0 l/m 5,3 km/h (1 Bft) NO 52 0 min 0,000 mm 0,0 UV-I 0 W/m 9,1 C 10,7 C 6,4 km/h (2 Bft) 100,00 %
31.03.2016 02:08 10,7 C 90 % 1011,9 hPa 0,0 l/m 5,2 km/h (1 Bft) O-NO 65 0 min 0,000 mm 0,0 UV-I 0 W/m 9,1 C 10,7 C 6,4 km/h (2 Bft) 100,00 %
31.03.2016 02:09 10,7 C 90 % 1011,9 hPa 0,0 l/m 5,4 km/h (1 Bft) NO 55 0 min 0,000 mm 0,0 UV-I 0 W/m 9,1 C 10,7 C 6,4 km/h (2 Bft) 100,00 %
31.03.2016 02:10 10,7 C 90 % 1011,9 hPa 0,0 l/m 4,9 km/h (1 Bft) NO 55 0 min 0,000 mm 0,0 UV-I 0 W/m 9,1 C 10,7 C 6,4 km/h (2 Bft) 100,00 %
31.03.2016 02:11 10,7 C 90 % 1011,9 hPa 0,0 l/m 3,8 km/h (1 Bft) NO 55 0 min 0,000 mm 0,0 UV-I 0 W/m 9,1 C 10,7 C 4,8 km/h (1 Bft) 98,85 %
31.03.2016 02:12 10,7 C 90 % 1012,0 hPa 0,0 l/m 2,8 km/h (1 Bft) NO 55 0 min 0,000 mm 0,0 UV-I 0 W/m 9,1 C 10,7 C 3,2 km/h (1 Bft) 100,00 %
31.03.2016 02:13 10,7 C 89 % 1011,9 hPa 0,0 l/m 2,5 km/h (1 Bft) NO 55 0 min 0,000 mm 0,0 UV-I 0 W/m 9,0 C 10,7 C 3,2 km/h (1 Bft) 91,30 %
31.03.2016 02:14 10,6 C 90 % 1011,9 hPa 0,0 l/m 2,5 km/h (1 Bft) NO 55 0 min 0,000 mm 0,0 UV-I 0 W/m 9,0 C 10,6 C 3,2 km/h (1 Bft) 100,00 %
31.03.2016 02:15 10,5 C 90 % 1011,9 hPa 0,0 l/m 3,0 km/h (1 Bft) NO 55 0 min 0,000 mm 0,0 UV-I 0 W/m 8,9 C 10,5 C 3,2 km/h (1 Bft) 100,00 %
31.03.2016 02:16 10,4 C 90 % 1011,9 hPa 0,0 l/m 1,9 km/h (1 Bft) NO 55 0 min 0,000 mm 0,0 UV-I 0 W/m 8,8 C 10,4 C 3,2 km/h (1 Bft) 95,83 %
31.03.2016 02:17 10,4 C 90 % 1011,9 hPa 0,0 l/m 0,6 km/h (0 Bft) NO 55 0 min 0,000 mm 0,0 UV-I 0 W/m 8,8 C 10,4 C 3,2 km/h (1 Bft) 100,00 %
31.03.2016 02:18 10,3 C 90 % 1011,8 hPa 0,0 l/m 0,1 km/h (0 Bft) NO 55 0 min 0,000 mm 0,0 UV-I 0 W/m 8,7 C 10,3 C 1,6 km/h (1 Bft) 96,88 %
31.03.2016 02:19 10,3 C 91 % 1011,8 hPa 0,0 l/m 0,1 km/h (0 Bft) NO 55 0 min 0,000 mm 0,0 UV-I 0 W/m 8,9 C 10,3 C 1,6 km/h (1 Bft) 100,00 %
31.03.2016 02:20 10,3 C 91 % 1011,8 hPa 0,0 l/m 0,2 km/h (0 Bft) NO 55 0 min 0,000 mm 0,0 UV-I 0 W/m 8,9 C 10,3 C 1,6 km/h (1 Bft) 95,65 %
31.03.2016 02:21 10,2 C 91 % 1011,8 hPa 0,0 l/m 0,2 km/h (0 Bft) NO 55 0 min 0,000 mm 0,0 UV-I 0 W/m 8,8 C 10,2 C 1,6 km/h (1 Bft) 95,83 %
31.03.2016 02:22 10,2 C 90 % 1011,7 hPa 0,0 l/m 0,0 km/h (0 Bft) NO 55 0 min 0,000 mm 0,0 UV-I 0 W/m 8,6 C 10,2 C 0,0 km/h (0 Bft) 100,00 %
31.03.2016 02:23 10,2 C 91 % 1011,7 hPa 0,0 l/m 0,1 km/h (0 Bft) NO 55 0 min 0,000 mm 0,0 UV-I 0 W/m 8,8 C 10,2 C 1,6 km/h (1 Bft) 91,67 %
31.03.2016 02:24 10,1 C 91 % 1011,7 hPa 0,0 l/m 1,2 km/h (1 Bft) NO 55 0 min 0,000 mm 0,0 UV-I 0 W/m 8,7 C 10,1 C 3,2 km/h (1 Bft) 92,86 %
31.03.2016 02:25 10,1 C 91 % 1011,7 hPa 0,0 l/m 3,7 km/h (1 Bft) NO 55 0 min 0,000 mm 0,0 UV-I 0 W/m 8,7 C 10,1 C 4,8 km/h (1 Bft) 96,30 %
31.03.2016 02:26 10,1 C 91 % 1011,7 hPa 0,0 l/m 4,7 km/h (1 Bft) NO 55 0 min 0,000 mm 0,0 UV-I 0 W/m 8,7 C 10,1 C 6,4 km/h (2 Bft) 100,00 %
31.03.2016 02:27 10,1 C 91 % 1011,6 hPa 0,0 l/m 5,0 km/h (1 Bft) NO 54 0 min 0,000 mm 0,0 UV-I 0 W/m 8,7 C 10,1 C 6,4 km/h (2 Bft) 95,83 %
31.03.2016 02:28 10,2 C 91 % 1011,6 hPa 0,0 l/m 5,2 km/h (1 Bft) NO 49 0 min 0,000 mm 0,0 UV-I 0 W/m 8,8 C 10,2 C 6,4 km/h (2 Bft) 96,15 %
31.03.2016 02:29 10,2 C 91 % 1011,5 hPa 0,0 l/m 5,2 km/h (1 Bft) NO 51 0 min 0,000 mm 0,0 UV-I 0 W/m 8,8 C 10,2 C 6,4 km/h (2 Bft) 100,00 %
31.03.2016 02:30 10,2 C 91 % 1011,5 hPa 0,0 l/m 4,6 km/h (1 Bft) NO 51 0 min 0,000 mm 0,0 UV-I 0 W/m 8,8 C 10,2 C 4,8 km/h (1 Bft) 96,55 %
31.03.2016 02:31 10,2 C 91 % 1011,4 hPa 0,0 l/m 5,2 km/h (1 Bft) NO 45 0 min 0,000 mm 0,0 UV-I 0 W/m 8,8 C 10,2 C 6,4 km/h (2 Bft) 100,00 %
31.03.2016 02:32 10,2 C 91 % 1011,5 hPa 0,0 l/m 4,7 km/h (1 Bft) NO 46 0 min 0,000 mm 0,0 UV-I 0 W/m 8,8 C 10,2 C 6,4 km/h (2 Bft) 96,15 %
31.03.2016 02:33 10,1 C 91 % 1011,4 hPa 0,0 l/m 4,2 km/h (1 Bft) O-NO 65 0 min 0,000 mm 0,0 UV-I 0 W/m 8,7 C 10,1 C 6,4 km/h (2 Bft) 100,00 %
31.03.2016 02:34 10,1 C 91 % 1011,4 hPa 0,0 l/m 4,6 km/h (1 Bft) NO 56 0 min 0,000 mm 0,0 UV-I 0 W/m 8,7 C 10,1 C 6,4 km/h (2 Bft) 95,65 %
31.03.2016 02:35 10,1 C 91 % 1011,4 hPa 0,0 l/m 3,8 km/h (1 Bft) NO 56 0 min 0,000 mm 0,0 UV-I 0 W/m 8,7 C 10,1 C 4,8 km/h (1 Bft) 100,00 %
31.03.2016 02:36 10,0 C 91 % 1011,4 hPa 0,0 l/m 4,8 km/h (1 Bft) O-NO 57 0 min 0,000 mm 0,0 UV-I 0 W/m 8,6 C 10,0 C 6,4 km/h (2 Bft) 91,67 %
31.03.2016 02:37 9,9 C 91 % 1011,4 hPa 0,0 l/m 4,6 km/h (1 Bft) O-NO 59 0 min 0,000 mm 0,0 UV-I 0 W/m 8,5 C 9,9 C 6,4 km/h (2 Bft) 96,88 %
31.03.2016 02:38 9,9 C 91 % 1011,4 hPa 0,0 l/m 4,5 km/h (1 Bft) O-NO 70 0 min 0,000 mm 0,0 UV-I 0 W/m 8,5 C 9,9 C 6,4 km/h (2 Bft) 100,00 %
31.03.2016 02:39 9,9 C 91 % 1011,4 hPa 0,0 l/m 5,0 km/h (1 Bft) O-NO 70 0 min 0,000 mm 0,0 UV-I 0 W/m 8,5 C 9,9 C 6,4 km/h (2 Bft) 95,83 %
31.03.2016 02:40 9,8 C 91 % 1011,4 hPa 0,0 l/m 5,4 km/h (1 Bft) O-NO 77 0 min 0,000 mm 0,0 UV-I 0 W/m 8,4 C 9,8 C 6,4 km/h (2 Bft) 100,00 %
31.03.2016 02:41 9,8 C 91 % 1011,4 hPa 0,0 l/m 5,5 km/h (1 Bft) O-NO 77 0 min 0,000 mm 0,0 UV-I 0 W/m 8,4 C 9,8 C 6,4 km/h (2 Bft) 91,30 %
31.03.2016 02:42 9,7 C 92 % 1011,4 hPa 0,0 l/m 5,4 km/h (1 Bft) O-NO 78 0 min 0,000 mm 0,0 UV-I 0 W/m 8,5 C 9,7 C 6,4 km/h (2 Bft) 100,00 %
31.03.2016 02:43 9,7 C 92 % 1011,4 hPa 0,0 l/m 4,9 km/h (1 Bft) O-NO 71 0 min 0,000 mm 0,0 UV-I 0 W/m 8,5 C 9,7 C 6,4 km/h (2 Bft) 95,65 %
31.03.2016 02:44 9,7 C 92 % 1011,4 hPa 0,0 l/m 4,5 km/h (1 Bft) O-NO 71 0 min 0,000 mm 0,0 UV-I 0 W/m 8,5 C 9,7 C 6,4 km/h (2 Bft) 100,00 %
31.03.2016 02:45 9,7 C 92 % 1011,4 hPa 0,0 l/m 4,4 km/h (1 Bft) O-NO 71 0 min 0,000 mm 0,0 UV-I 0 W/m 8,5 C 9,7 C 4,8 km/h (1 Bft) 95,65 %
31.03.2016 02:46 9,7 C 92 % 1011,3 hPa 0,0 l/m 4,2 km/h (1 Bft) O-NO 71 0 min 0,000 mm 0,0 UV-I 0 W/m 8,5 C 9,7 C 4,8 km/h (1 Bft) 91,67 %
31.03.2016 02:47 9,8 C 92 % 1011,4 hPa 0,0 l/m 3,6 km/h (1 Bft) O-NO 71 0 min 0,000 mm 0,0 UV-I 0 W/m 8,6 C 9,8 C 4,8 km/h (1 Bft) 95,65 %
31.03.2016 02:48 9,8 C 92 % 1011,4 hPa 0,0 l/m 2,8 km/h (1 Bft) O-NO 71 0 min 0,000 mm 0,0 UV-I 0 W/m 8,6 C 9,8 C 3,2 km/h (1 Bft) 96,30 %
31.03.2016 02:49 9,8 C 92 % 1011,3 hPa 0,0 l/m 3,4 km/h (1 Bft) O-NO 71 0 min 0,000 mm 0,0 UV-I 0 W/m 8,6 C 9,8 C 4,8 km/h (1 Bft) 98,45 %
31.03.2016 02:50 9,8 C 92 % 1011,3 hPa 0,0 l/m 3,6 km/h (1 Bft) O-NO 71 0 min 0,000 mm 0,0 UV-I 0 W/m 8,6 C 9,8 C 4,8 km/h (1 Bft) 97,37 %
31.03.2016 02:51 9,9 C 92 % 1011,3 hPa 0,0 l/m 3,6 km/h (1 Bft) O-NO 71 0 min 0,000 mm 0,0 UV-I 0 W/m 8,7 C 9,9 C 4,8 km/h (1 Bft) 100,00 %
31.03.2016 02:52 9,9 C 92 % 1011,3 hPa 0,0 l/m 3,3 km/h (1 Bft) O-NO 71 0 min 0,000 mm 0,0 UV-I 0 W/m 8,7 C 9,9 C 4,8 km/h (1 Bft) 100,00 %
31.03.2016 02:53 9,8 C 92 % 1011,3 hPa 0,0 l/m 4,0 km/h (1 Bft) O 92 0 min 0,000 mm 0,0 UV-I 0 W/m 8,6 C 9,8 C 4,8 km/h (1 Bft) 100,00 %
31.03.2016 02:54 9,8 C 91 % 1011,2 hPa 0,0 l/m 5,3 km/h (1 Bft) O 93 0 min 0,000 mm 0,0 UV-I 0 W/m 8,4 C 9,8 C 6,4 km/h (2 Bft) 95,65 %
31.03.2016 02:55 9,7 C 91 % 1011,1 hPa 0,0 l/m 4,8 km/h (1 Bft) O 96 0 min 0,000 mm 0,0 UV-I 0 W/m 8,3 C 9,7 C 6,4 km/h (2 Bft) 100,00 %
31.03.2016 02:56 9,6 C 91 % 1011,2 hPa 0,0 l/m 3,7 km/h (1 Bft) O-SO 102 0 min 0,000 mm 0,0 UV-I 0 W/m 8,2 C 9,6 C 4,8 km/h (1 Bft) 100,00 %
31.03.2016 02:57 9,4 C 91 % 1011,1 hPa 0,0 l/m 4,0 km/h (1 Bft) O-SO 115 0 min 0,000 mm 0,0 UV-I 0 W/m 8,0 C 9,4 C 4,8 km/h (1 Bft) 100,00 %
31.03.2016 02:58 9,4 C 91 % 1011,1 hPa 0,0 l/m 3,6 km/h (1 Bft) O-SO 115 0 min 0,000 mm 0,0 UV-I 0 W/m 8,0 C 9,4 C 6,4 km/h (2 Bft) 100,00 %
31.03.2016 02:59 9,3 C 92 % 1011,1 hPa 0,0 l/m 3,2 km/h (1 Bft) O-SO 117 0 min 0,000 mm 0,0 UV-I 0 W/m 8,1 C 9,3 C 4,8 km/h (1 Bft) 91,67 %
31.03.2016 03:00 9,2 C 91 % 1011,1 hPa 0,0 l/m 3,6 km/h (1 Bft) O-SO 117 0 min 0,000 mm 0,0 UV-I 0 W/m 7,8 C 9,2 C 4,8 km/h (1 Bft) 96,15 %
31.03.2016 03:02 9,0 C 92 % 1011,1 hPa 0,0 l/m 4,2 km/h (1 Bft) SO 125 0 min 0,000 mm 0,0 UV-I 0 W/m 7,8 C 9,0 C 6,4 km/h (2 Bft) 98,11 %
31.03.2016 03:03 9,0 C 93 % 1011,1 hPa 0,0 l/m 4,2 km/h (1 Bft) O-SO 111 0 min 0,000 mm 0,0 UV-I 0 W/m 7,9 C 9,0 C 6,4 km/h (2 Bft) 100,00 %
31.03.2016 03:04 9,0 C 93 % 1011,1 hPa 0,0 l/m 7,2 km/h (2 Bft) O-SO 117 0 min 0,000 mm 0,0 UV-I 0 W/m 7,9 C 8,4 C 9,7 km/h (2 Bft) 100,00 %
31.03.2016 03:05 9,1 C 94 % 1011,1 hPa 0,0 l/m 5,2 km/h (1 Bft) O-SO 107 0 min 0,000 mm 0,0 UV-I 0 W/m 8,2 C 9,1 C 6,4 km/h (2 Bft) 100,00 %
31.03.2016 03:06 9,2 C 94 % 1011,1 hPa 0,0 l/m 3,8 km/h (1 Bft) O-SO 116 0 min 0,000 mm 0,0 UV-I 0 W/m 8,3 C 9,2 C 4,8 km/h (1 Bft) 100,00 %
31.03.2016 03:07 9,3 C 94 % 1011,1 hPa 0,0 l/m 5,2 km/h (1 Bft) O 79 0 min 0,000 mm 0,0 UV-I 0 W/m 8,4 C 9,3 C 9,7 km/h (2 Bft) 100,00 %
31.03.2016 03:08 9,3 C 94 % 1011,2 hPa 0,0 l/m 4,2 km/h (1 Bft) O-NO 76 0 min 0,000 mm 0,0 UV-I 0 W/m 8,4 C 9,3 C 4,8 km/h (1 Bft) 100,00 %
31.03.2016 03:09 9,4 C 94 % 1011,2 hPa 0,0 l/m 3,2 km/h (1 Bft) O-NO 76 0 min 0,000 mm 0,0 UV-I 0 W/m 8,5 C 9,4 C 6,4 km/h (2 Bft) 100,00 %
31.03.2016 03:10 9,5 C 94 % 1011,2 hPa 0,0 l/m 1,4 km/h (1 Bft) NO 53 0 min 0,000 mm 0,0 UV-I 0 W/m 8,6 C 9,5 C 3,2 km/h (1 Bft) 95,65 %
31.03.2016 03:11 9,4 C 93 % 1011,2 hPa 0,0 l/m 1,0 km/h (0 Bft) N 360 0 min 0,000 mm 0,0 UV-I 0 W/m 8,3 C 9,4 C 1,6 km/h (1 Bft) 100,00 %
31.03.2016 03:12 9,2 C 91 % 1011,3 hPa 0,0 l/m 0,7 km/h (0 Bft) N 360 0 min 0,000 mm 0,0 UV-I 0 W/m 7,8 C 9,2 C 1,6 km/h (1 Bft) 100,00 %
31.03.2016 03:13 9,0 C 91 % 1011,2 hPa 0,0 l/m 0,0 km/h (0 Bft) N 360 0 min 0,000 mm 0,0 UV-I 0 W/m 7,6 C 9,0 C 0,0 km/h (0 Bft) 100,00 %
31.03.2016 03:14 8,8 C 91 % 1011,2 hPa 0,0 l/m 0,1 km/h (0 Bft) N 360 0 min 0,000 mm 0,0 UV-I 0 W/m 7,4 C 8,8 C 1,6 km/h (1 Bft) 100,00 %
31.03.2016 03:15 8,7 C 92 % 1011,3 hPa 0,0 l/m 0,3 km/h (0 Bft) N 360 0 min 0,000 mm 0,0 UV-I 0 W/m 7,5 C 8,7 C 3,2 km/h (1 Bft) 100,00 %
31.03.2016 03:16 8,7 C 92 % 1011,3 hPa 0,0 l/m 1,5 km/h (1 Bft) N 360 0 min 0,000 mm 0,0 UV-I 0 W/m 7,5 C 8,7 C 3,2 km/h (1 Bft) 100,00 %
31.03.2016 03:17 8,6 C 93 % 1011,3 hPa 0,0 l/m 1,4 km/h (1 Bft) N 5 0 min 0,000 mm 0,0 UV-I 0 W/m 7,5 C 8,6 C 3,2 km/h (1 Bft) 100,00 %
31.03.2016 03:18 8,6 C 93 % 1011,2 hPa 0,0 l/m 3,4 km/h (1 Bft) N 5 0 min 0,000 mm 0,0 UV-I 0 W/m 7,5 C 8,6 C 4,8 km/h (1 Bft) 100,00 %
31.03.2016 03:19 8,6 C 94 % 1011,2 hPa 0,0 l/m 3,6 km/h (1 Bft) N 5 0 min 0,000 mm 0,0 UV-I 0 W/m 7,7 C 8,6 C 4,8 km/h (1 Bft) 100,00 %
31.03.2016 03:20 8,7 C 94 % 1011,2 hPa 0,0 l/m 3,0 km/h (1 Bft) N 5 0 min 0,000 mm 0,0 UV-I 0 W/m 7,8 C 8,7 C 4,8 km/h (1 Bft) 100,00 %
31.03.2016 03:21 8,7 C 94 % 1011,2 hPa 0,0 l/m 3,4 km/h (1 Bft) N-NO 22 0 min 0,000 mm 0,0 UV-I 0 W/m 7,8 C 8,7 C 4,8 km/h (1 Bft) 100,00 %
31.03.2016 03:22 8,8 C 95 % 1011,2 hPa 0,0 l/m 3,1 km/h (1 Bft) N-NO 23 0 min 0,000 mm 0,0 UV-I 0 W/m 8,0 C 8,8 C 3,2 km/h (1 Bft) 100,00 %
31.03.2016 03:23 8,9 C 95 % 1011,2 hPa 0,0 l/m 2,4 km/h (1 Bft) N-NO 23 0 min 0,000 mm 0,0 UV-I 0 W/m 8,1 C 8,9 C 3,2 km/h (1 Bft) 100,00 %
31.03.2016 03:24 8,9 C 95 % 1011,2 hPa 0,0 l/m 3,0 km/h (1 Bft) N-NO 23 0 min 0,000 mm 0,0 UV-I 0 W/m 8,1 C 8,9 C 3,2 km/h (1 Bft) 95,83 %
31.03.2016 03:25 9,0 C 95 % 1011,2 hPa 0,0 l/m 2,5 km/h (1 Bft) N-NO 23 0 min 0,000 mm 0,0 UV-I 0 W/m 8,2 C 9,0 C 3,2 km/h (1 Bft) 100,00 %
31.03.2016 03:26 9,0 C 94 % 1011,3 hPa 0,0 l/m 1,9 km/h (1 Bft) N-NO 23 0 min 0,000 mm 0,0 UV-I 0 W/m 8,1 C 9,0 C 3,2 km/h (1 Bft) 100,00 %
31.03.2016 03:27 9,0 C 94 % 1011,3 hPa 0,0 l/m 1,8 km/h (1 Bft) N-NO 23 0 min 0,000 mm 0,0 UV-I 0 W/m 8,1 C 9,0 C 3,2 km/h (1 Bft) 100,00 %
31.03.2016 03:28 9,0 C 94 % 1011,3 hPa 0,0 l/m 0,0 km/h (0 Bft) N-NO 23 0 min 0,000 mm 0,0 UV-I 0 W/m 8,1 C 9,0 C 0,0 km/h (0 Bft) 100,00 %
31.03.2016 03:29 9,0 C 94 % 1011,3 hPa 0,0 l/m 0,0 km/h (0 Bft) N-NO 23 0 min 0,000 mm 0,0 UV-I 0 W/m 8,1 C 9,0 C 0,0 km/h (0 Bft) 100,00 %
31.03.2016 03:30 8,9 C 94 % 1011,3 hPa 0,0 l/m 0,1 km/h (0 Bft) N-NO 23 0 min 0,000 mm 0,0 UV-I 0 W/m 8,0 C 8,9 C 1,6 km/h (1 Bft) 100,00 %
31.03.2016 03:31 8,9 C 94 % 1011,2 hPa 0,0 l/m 0,1 km/h (0 Bft) N-NO 23 0 min 0,000 mm 0,0 UV-I 0 W/m 8,0 C 8,9 C 1,6 km/h (1 Bft) 100,00 %
31.03.2016 03:32 8,9 C 94 % 1011,2 hPa 0,0 l/m 2,3 km/h (1 Bft) N-NO 23 0 min 0,000 mm 0,0 UV-I 0 W/m 8,0 C 8,9 C 3,2 km/h (1 Bft) 100,00 %
31.03.2016 03:33 8,9 C 94 % 1011,2 hPa 0,0 l/m 2,1 km/h (1 Bft) N-NO 23 0 min 0,000 mm 0,0 UV-I 0 W/m 8,0 C 8,9 C 3,2 km/h (1 Bft) 100,00 %
31.03.2016 03:34 8,9 C 94 % 1011,2 hPa 0,0 l/m 3,1 km/h (1 Bft) NO 36 0 min 0,000 mm 0,0 UV-I 0 W/m 8,0 C 8,9 C 4,8 km/h (1 Bft) 100,00 %
31.03.2016 03:35 8,9 C 94 % 1011,1 hPa 0,0 l/m 3,4 km/h (1 Bft) NO 36 0 min 0,000 mm 0,0 UV-I 0 W/m 8,0 C 8,9 C 4,8 km/h (1 Bft) 100,00 %
31.03.2016 03:36 8,9 C 94 % 1011,1 hPa 0,0 l/m 5,0 km/h (1 Bft) NO 39 0 min 0,000 mm 0,0 UV-I 0 W/m 8,0 C 8,9 C 6,4 km/h (2 Bft) 100,00 %
31.03.2016 03:37 9,0 C 94 % 1011,1 hPa 0,0 l/m 4,9 km/h (1 Bft) NO 36 0 min 0,000 mm 0,0 UV-I 0 W/m 8,1 C 9,0 C 6,4 km/h (2 Bft) 100,00 %
31.03.2016 03:38 8,9 C 94 % 1011,1 hPa 0,0 l/m 3,0 km/h (1 Bft) NO 36 0 min 0,000 mm 0,0 UV-I 0 W/m 8,0 C 8,9 C 4,8 km/h (1 Bft) 100,00 %
31.03.2016 03:39 8,9 C 94 % 1011,1 hPa 0,0 l/m 1,9 km/h (1 Bft) NO 36 0 min 0,000 mm 0,0 UV-I 0 W/m 8,0 C 8,9 C 3,2 km/h (1 Bft) 100,00 %
31.03.2016 03:40 8,9 C 94 % 1011,1 hPa 0,0 l/m 1,5 km/h (1 Bft) NO 36 0 min 0,000 mm 0,0 UV-I 0 W/m 8,0 C 8,9 C 3,2 km/h (1 Bft) 100,00 %
31.03.2016 03:41 8,9 C 94 % 1011,1 hPa 0,0 l/m 0,1 km/h (0 Bft) NO 36 0 min 0,000 mm 0,0 UV-I 0 W/m 8,0 C 8,9 C 1,6 km/h (1 Bft) 100,00 %
31.03.2016 03:42 8,8 C 94 % 1011,0 hPa 0,0 l/m 0,3 km/h (0 Bft) NO 36 0 min 0,000 mm 0,0 UV-I 0 W/m 7,9 C 8,8 C 1,6 km/h (1 Bft) 100,00 %
31.03.2016 03:43 8,8 C 94 % 1011,0 hPa 0,0 l/m 1,6 km/h (1 Bft) NO 36 0 min 0,000 mm 0,0 UV-I 0 W/m 7,9 C 8,8 C 3,2 km/h (1 Bft) 100,00 %
31.03.2016 03:44 8,8 C 94 % 1011,0 hPa 0,0 l/m 1,1 km/h (1 Bft) NO 36 0 min 0,000 mm 0,0 UV-I 0 W/m 7,9 C 8,8 C 1,6 km/h (1 Bft) 91,30 %
31.03.2016 03:45 8,8 C 94 % 1011,0 hPa 0,0 l/m 0,9 km/h (0 Bft) NO 36 0 min 0,000 mm 0,0 UV-I 0 W/m 7,9 C 8,8 C 1,6 km/h (1 Bft) 100,00 %
31.03.2016 03:46 8,8 C 94 % 1011,1 hPa 0,0 l/m 0,9 km/h (0 Bft) NO 36 0 min 0,000 mm 0,0 UV-I 0 W/m 7,9 C 8,8 C 1,6 km/h (1 Bft) 100,00 %
31.03.2016 03:47 8,8 C 94 % 1011,1 hPa 0,0 l/m 1,4 km/h (1 Bft) NO 36 0 min 0,000 mm 0,0 UV-I 0 W/m 7,9 C 8,8 C 3,2 km/h (1 Bft) 100,00 %
31.03.2016 03:48 8,7 C 94 % 1011,1 hPa 0,0 l/m 1,4 km/h (1 Bft) NO 36 0 min 0,000 mm 0,0 UV-I 0 W/m 7,8 C 8,7 C 3,2 km/h (1 Bft) 100,00 %
31.03.2016 03:49 8,8 C 94 % 1011,1 hPa 0,0 l/m 2,2 km/h (1 Bft) NO 36 0 min 0,000 mm 0,0 UV-I 0 W/m 7,9 C 8,8 C 3,2 km/h (1 Bft) 100,00 %
31.03.2016 03:50 8,8 C 95 % 1011,0 hPa 0,0 l/m 2,7 km/h (1 Bft) NO 36 0 min 0,000 mm 0,0 UV-I 0 W/m 8,0 C 8,8 C 3,2 km/h (1 Bft) 100,00 %
31.03.2016 03:51 8,7 C 94 % 1011,0 hPa 0,0 l/m 3,0 km/h (1 Bft) NO 36 0 min 0,000 mm 0,0 UV-I 0 W/m 7,8 C 8,7 C 3,2 km/h (1 Bft) 100,00 %
31.03.2016 03:52 8,7 C 94 % 1011,0 hPa 0,0 l/m 3,1 km/h (1 Bft) NO 36 0 min 0,000 mm 0,0 UV-I 0 W/m 7,8 C 8,7 C 3,2 km/h (1 Bft) 100,00 %
31.03.2016 03:53 8,7 C 94 % 1011,0 hPa 0,0 l/m 3,4 km/h (1 Bft) NO 36 0 min 0,000 mm 0,0 UV-I 0 W/m 7,8 C 8,7 C 4,8 km/h (1 Bft) 96,30 %
31.03.2016 03:54 8,7 C 94 % 1011,0 hPa 0,0 l/m 3,2 km/h (1 Bft) NO 36 0 min 0,000 mm 0,0 UV-I 0 W/m 7,8 C 8,7 C 3,2 km/h (1 Bft) 100,00 %
31.03.2016 03:55 8,7 C 95 % 1011,0 hPa 0,0 l/m 3,0 km/h (1 Bft) NO 36 0 min 0,000 mm 0,0 UV-I 0 W/m 7,9 C 8,7 C 3,2 km/h (1 Bft) 100,00 %
31.03.2016 03:56 8,7 C 95 % 1011,0 hPa 0,0 l/m 2,7 km/h (1 Bft) NO 36 0 min 0,000 mm 0,0 UV-I 0 W/m 7,9 C 8,7 C 3,2 km/h (1 Bft) 100,00 %
31.03.2016 03:57 8,6 C 95 % 1011,0 hPa 0,0 l/m 2,7 km/h (1 Bft) NO 36 0 min 0,000 mm 0,0 UV-I 0 W/m 7,8 C 8,6 C 4,8 km/h (1 Bft) 100,00 %
31.03.2016 03:58 8,6 C 95 % 1011,1 hPa 0,0 l/m 2,7 km/h (1 Bft) NO 36 0 min 0,000 mm 0,0 UV-I 0 W/m 7,8 C 8,6 C 3,2 km/h (1 Bft) 100,00 %
31.03.2016 03:59 8,6 C 95 % 1011,1 hPa 0,0 l/m 2,1 km/h (1 Bft) NO 36 0 min 0,000 mm 0,0 UV-I 0 W/m 7,8 C 8,6 C 3,2 km/h (1 Bft) 100,00 %
31.03.2016 04:00 8,6 C 95 % 1011,1 hPa 0,0 l/m 1,0 km/h (0 Bft) NO 36 0 min 0,000 mm 0,0 UV-I 0 W/m 7,8 C 8,6 C 1,6 km/h (1 Bft) 100,00 %
31.03.2016 04:02 8,6 C 95 % 1011,2 hPa 0,0 l/m 0,0 km/h (0 Bft) NO 36 0 min 0,000 mm 0,0 UV-I 0 W/m 7,8 C 8,6 C 1,6 km/h (1 Bft) 96,88 %
31.03.2016 04:03 8,6 C 95 % 1011,2 hPa 0,0 l/m 0,1 km/h (0 Bft) NO 36 0 min 0,000 mm 0,0 UV-I 0 W/m 7,8 C 8,6 C 1,6 km/h (1 Bft) 100,00 %
31.03.2016 04:04 8,5 C 95 % 1011,2 hPa 0,0 l/m 0,0 km/h (0 Bft) NO 36 0 min 0,000 mm 0,0 UV-I 0 W/m 7,7 C 8,5 C 0,0 km/h (0 Bft) 98,18 %
31.03.2016 04:05 8,4 C 95 % 1011,2 hPa 0,0 l/m 0,0 km/h (0 Bft) NO 36 0 min 0,000 mm 0,0 UV-I 0 W/m 7,6 C 8,4 C 0,0 km/h (0 Bft) 100,00 %
31.03.2016 04:06 8,3 C 94 % 1011,2 hPa 0,0 l/m 1,1 km/h (1 Bft) NO 36 0 min 0,000 mm 0,0 UV-I 0 W/m 7,4 C 8,3 C 3,2 km/h (1 Bft) 100,00 %
31.03.2016 04:07 8,2 C 94 % 1011,1 hPa 0,0 l/m 3,0 km/h (1 Bft) NO 38 0 min 0,000 mm 0,0 UV-I 0 W/m 7,3 C 8,2 C 4,8 km/h (1 Bft) 100,00 %
31.03.2016 04:08 8,1 C 93 % 1011,1 hPa 0,0 l/m 4,2 km/h (1 Bft) O-NO 76 0 min 0,000 mm 0,0 UV-I 0 W/m 7,0 C 8,1 C 4,8 km/h (1 Bft) 100,00 %
31.03.2016 04:09 7,9 C 93 % 1011,0 hPa 0,0 l/m 4,1 km/h (1 Bft) O-NO 76 0 min 0,000 mm 0,0 UV-I 0 W/m 6,8 C 7,9 C 4,8 km/h (1 Bft) 100,00 %
31.03.2016 04:10 7,8 C 94 % 1011,0 hPa 0,0 l/m 4,3 km/h (1 Bft) O-NO 76 0 min 0,000 mm 0,0 UV-I 0 W/m 6,9 C 7,8 C 4,8 km/h (1 Bft) 100,00 %
31.03.2016 04:11 7,8 C 94 % 1011,0 hPa 0,0 l/m 4,4 km/h (1 Bft) O-NO 76 0 min 0,000 mm 0,0 UV-I 0 W/m 6,9 C 7,8 C 4,8 km/h (1 Bft) 100,00 %
31.03.2016 04:12 7,7 C 94 % 1011,0 hPa 0,0 l/m 3,6 km/h (1 Bft) O-NO 76 0 min 0,000 mm 0,0 UV-I 0 W/m 6,8 C 7,7 C 4,8 km/h (1 Bft) 100,00 %
31.03.2016 04:13 7,7 C 95 % 1010,9 hPa 0,0 l/m 3,4 km/h (1 Bft) O-NO 76 0 min 0,000 mm 0,0 UV-I 0 W/m 7,0 C 7,7 C 4,8 km/h (1 Bft) 100,00 %
31.03.2016 04:14 7,8 C 95 % 1011,0 hPa 0,0 l/m 2,7 km/h (1 Bft) O-NO 76 0 min 0,000 mm 0,0 UV-I 0 W/m 7,0 C 7,8 C 4,8 km/h (1 Bft) 91,67 %
31.03.2016 04:15 7,8 C 95 % 1010,9 hPa 0,0 l/m 2,8 km/h (1 Bft) O-NO 76 0 min 0,000 mm 0,0 UV-I 0 W/m 7,0 C 7,8 C 4,8 km/h (1 Bft) 100,00 %
31.03.2016 04:16 7,8 C 96 % 1011,0 hPa 0,0 l/m 3,8 km/h (1 Bft) O-NO 76 0 min 0,000 mm 0,0 UV-I 0 W/m 7,2 C 7,8 C 4,8 km/h (1 Bft) 100,00 %
31.03.2016 04:17 7,9 C 96 % 1011,0 hPa 0,0 l/m 3,1 km/h (1 Bft) O-NO 76 0 min 0,000 mm 0,0 UV-I 0 W/m 7,3 C 7,9 C 4,8 km/h (1 Bft) 100,00 %
31.03.2016 04:18 8,2 C 96 % 1011,0 hPa 0,0 l/m 0,8 km/h (0 Bft) O-NO 76 0 min 0,000 mm 0,0 UV-I 0 W/m 7,6 C 8,2 C 1,6 km/h (1 Bft) 100,00 %
31.03.2016 04:19 8,3 C 96 % 1011,0 hPa 0,0 l/m 2,4 km/h (1 Bft) N 9 0 min 0,000 mm 0,0 UV-I 0 W/m 7,7 C 8,3 C 3,2 km/h (1 Bft) 95,83 %
31.03.2016 04:20 8,2 C 96 % 1011,1 hPa 0,0 l/m 3,2 km/h (1 Bft) N 9 0 min 0,000 mm 0,0 UV-I 0 W/m 7,6 C 8,2 C 4,8 km/h (1 Bft) 100,00 %
31.03.2016 04:21 8,1 C 96 % 1011,0 hPa 0,0 l/m 2,6 km/h (1 Bft) N 5 0 min 0,000 mm 0,0 UV-I 0 W/m 7,5 C 8,1 C 3,2 km/h (1 Bft) 95,83 %
31.03.2016 04:22 7,9 C 94 % 1011,1 hPa 0,0 l/m 1,3 km/h (1 Bft) N 5 0 min 0,000 mm 0,0 UV-I 0 W/m 7,0 C 7,9 C 3,2 km/h (1 Bft) 91,30 %
31.03.2016 04:23 7,7 C 94 % 1011,1 hPa 0,0 l/m 0,8 km/h (0 Bft) N 5 0 min 0,000 mm 0,0 UV-I 0 W/m 6,8 C 7,7 C 1,6 km/h (1 Bft) 87,50 %
31.03.2016 04:24 7,4 C 93 % 1011,0 hPa 0,0 l/m 0,1 km/h (0 Bft) N 5 0 min 0,000 mm 0,0 UV-I 0 W/m 6,3 C 7,4 C 1,6 km/h (1 Bft) 100,00 %
31.03.2016 04:25 7,3 C 94 % 1011,0 hPa 0,0 l/m 0,1 km/h (0 Bft) N 5 0 min 0,000 mm 0,0 UV-I 0 W/m 6,4 C 7,3 C 1,6 km/h (1 Bft) 96,30 %
31.03.2016 04:26 7,2 C 94 % 1011,0 hPa 0,0 l/m 0,0 km/h (0 Bft) N 5 0 min 0,000 mm 0,0 UV-I 0 W/m 6,3 C 7,2 C 0,0 km/h (0 Bft) 100,00 %
31.03.2016 04:27 7,2 C 94 % 1011,0 hPa 0,0 l/m 0,1 km/h (0 Bft) N 5 0 min 0,000 mm 0,0 UV-I 0 W/m 6,3 C 7,2 C 1,6 km/h (1 Bft) 95,83 %
31.03.2016 04:28 7,1 C 95 % 1011,0 hPa 0,0 l/m 0,5 km/h (0 Bft) N 5 0 min 0,000 mm 0,0 UV-I 0 W/m 6,4 C 7,1 C 1,6 km/h (1 Bft) 100,00 %
31.03.2016 04:29 7,1 C 95 % 1010,9 hPa 0,0 l/m 2,2 km/h (1 Bft) N 5 0 min 0,000 mm 0,0 UV-I 0 W/m 6,4 C 7,1 C 3,2 km/h (1 Bft) 96,30 %
31.03.2016 04:30 7,2 C 96 % 1010,9 hPa 0,0 l/m 2,2 km/h (1 Bft) N 5 0 min 0,000 mm 0,0 UV-I 0 W/m 6,6 C 7,2 C 3,2 km/h (1 Bft) 100,00 %
31.03.2016 04:31 7,1 C 96 % 1010,9 hPa 0,0 l/m 1,9 km/h (1 Bft) N 5 0 min 0,000 mm 0,0 UV-I 0 W/m 6,5 C 7,1 C 3,2 km/h (1 Bft) 96,15 %
31.03.2016 04:32 7,1 C 95 % 1010,9 hPa 0,0 l/m 1,3 km/h (1 Bft) N 9 0 min 0,000 mm 0,0 UV-I 0 W/m 6,4 C 7,1 C 3,2 km/h (1 Bft) 95,83 %
31.03.2016 04:33 7,1 C 95 % 1010,9 hPa 0,0 l/m 2,8 km/h (1 Bft) N-NO 32 0 min 0,000 mm 0,0 UV-I 0 W/m 6,4 C 7,1 C 3,2 km/h (1 Bft) 100,00 %
31.03.2016 04:34 7,2 C 96 % 1010,9 hPa 0,0 l/m 3,2 km/h (1 Bft) N-NO 32 0 min 0,000 mm 0,0 UV-I 0 W/m 6,6 C 7,2 C 3,2 km/h (1 Bft) 96,30 %
31.03.2016 04:35 7,4 C 96 % 1010,9 hPa 0,0 l/m 3,2 km/h (1 Bft) N-NO 32 0 min 0,000 mm 0,0 UV-I 0 W/m 6,8 C 7,4 C 4,8 km/h (1 Bft) 100,00 %
31.03.2016 04:36 7,6 C 96 % 1010,9 hPa 0,0 l/m 3,1 km/h (1 Bft) N-NO 32 0 min 0,000 mm 0,0 UV-I 0 W/m 7,0 C 7,6 C 3,2 km/h (1 Bft) 96,30 %
31.03.2016 04:37 7,7 C 97 % 1010,9 hPa 0,0 l/m 2,6 km/h (1 Bft) N-NO 32 0 min 0,000 mm 0,0 UV-I 0 W/m 7,3 C 7,7 C 3,2 km/h (1 Bft) 97,37 %
31.03.2016 04:38 7,8 C 97 % 1010,9 hPa 0,0 l/m 3,2 km/h (1 Bft) N-NO 32 0 min 0,000 mm 0,0 UV-I 0 W/m 7,4 C 7,8 C 3,2 km/h (1 Bft) 100,00 %
31.03.2016 04:39 7,9 C 97 % 1010,9 hPa 0,0 l/m 3,6 km/h (1 Bft) NO 38 0 min 0,000 mm 0,0 UV-I 0 W/m 7,5 C 7,9 C 4,8 km/h (1 Bft) 91,30 %
31.03.2016 04:40 7,9 C 97 % 1010,9 hPa 0,0 l/m 3,5 km/h (1 Bft) NO 48 0 min 0,000 mm 0,0 UV-I 0 W/m 7,5 C 7,9 C 4,8 km/h (1 Bft) 96,30 %
31.03.2016 04:41 7,9 C 97 % 1010,8 hPa 0,0 l/m 3,6 km/h (1 Bft) NO 55 0 min 0,000 mm 0,0 UV-I 0 W/m 7,5 C 7,9 C 4,8 km/h (1 Bft) 96,15 %
31.03.2016 04:42 7,8 C 96 % 1010,8 hPa 0,0 l/m 3,9 km/h (1 Bft) O-NO 62 0 min 0,000 mm 0,0 UV-I 0 W/m 7,2 C 7,8 C 4,8 km/h (1 Bft) 100,00 %
31.03.2016 04:43 7,7 C 96 % 1010,8 hPa 0,0 l/m 4,0 km/h (1 Bft) O 80 0 min 0,000 mm 0,0 UV-I 0 W/m 7,1 C 7,7 C 4,8 km/h (1 Bft) 94,12 %
31.03.2016 04:44 7,6 C 96 % 1010,8 hPa 0,0 l/m 4,0 km/h (1 Bft) O-SO 119 0 min 0,000 mm 0,0 UV-I 0 W/m 7,0 C 7,6 C 4,8 km/h (1 Bft) 100,00 %
31.03.2016 04:45 7,6 C 96 % 1010,8 hPa 0,0 l/m 3,3 km/h (1 Bft) SO 128 0 min 0,000 mm 0,0 UV-I 0 W/m 7,0 C 7,6 C 4,8 km/h (1 Bft) 95,65 %
31.03.2016 04:46 7,5 C 96 % 1010,8 hPa 0,0 l/m 1,8 km/h (1 Bft) SO 128 0 min 0,000 mm 0,0 UV-I 0 W/m 6,9 C 7,5 C 3,2 km/h (1 Bft) 100,00 %
31.03.2016 04:47 7,4 C 96 % 1010,8 hPa 0,0 l/m 3,0 km/h (1 Bft) SO 128 0 min 0,000 mm 0,0 UV-I 0 W/m 6,8 C 7,4 C 4,8 km/h (1 Bft) 95,65 %
31.03.2016 04:48 7,4 C 96 % 1010,8 hPa 0,0 l/m 2,1 km/h (1 Bft) SO 128 0 min 0,000 mm 0,0 UV-I 0 W/m 6,8 C 7,4 C 3,2 km/h (1 Bft) 95,83 %
31.03.2016 04:49 7,4 C 96 % 1010,8 hPa 0,0 l/m 1,9 km/h (1 Bft) SO 128 0 min 0,000 mm 0,0 UV-I 0 W/m 6,8 C 7,4 C 3,2 km/h (1 Bft) 100,00 %
31.03.2016 04:50 7,4 C 96 % 1010,8 hPa 0,0 l/m 2,5 km/h (1 Bft) SO 128 0 min 0,000 mm 0,0 UV-I 0 W/m 6,8 C 7,4 C 4,8 km/h (1 Bft) 95,83 %
31.03.2016 04:51 7,4 C 96 % 1010,7 hPa 0,0 l/m 3,1 km/h (1 Bft) SO 128 0 min 0,000 mm 0,0 UV-I 0 W/m 6,8 C 7,4 C 4,8 km/h (1 Bft) 100,00 %
31.03.2016 04:52 7,4 C 96 % 1010,7 hPa 0,0 l/m 2,5 km/h (1 Bft) SO 128 0 min 0,000 mm 0,0 UV-I 0 W/m 6,8 C 7,4 C 3,2 km/h (1 Bft) 91,67 %
31.03.2016 04:53 7,4 C 96 % 1010,8 hPa 0,0 l/m 2,0 km/h (1 Bft) SO 128 0 min 0,000 mm 0,0 UV-I 0 W/m 6,8 C 7,4 C 3,2 km/h (1 Bft) 100,00 %
31.03.2016 04:54 7,3 C 96 % 1010,8 hPa 0,0 l/m 1,2 km/h (1 Bft) SO 128 0 min 0,000 mm 0,0 UV-I 0 W/m 6,7 C 7,3 C 3,2 km/h (1 Bft) 96,15 %
31.03.2016 04:55 7,3 C 96 % 1010,8 hPa 0,0 l/m 0,2 km/h (0 Bft) SO 128 0 min 0,000 mm 0,0 UV-I 0 W/m 6,7 C 7,3 C 1,6 km/h (1 Bft) 96,67 %
31.03.2016 04:56 7,3 C 96 % 1010,8 hPa 0,0 l/m 0,0 km/h (0 Bft) SO 128 0 min 0,000 mm 0,0 UV-I 0 W/m 6,7 C 7,3 C 0,0 km/h (0 Bft) 100,00 %
31.03.2016 04:57 7,3 C 96 % 1010,8 hPa 0,0 l/m 2,3 km/h (1 Bft) SO 129 0 min 0,000 mm 0,0 UV-I 0 W/m 6,7 C 7,3 C 3,2 km/h (1 Bft) 100,00 %
31.03.2016 04:58 7,2 C 96 % 1010,9 hPa 0,0 l/m 2,8 km/h (1 Bft) SO 130 0 min 0,000 mm 0,0 UV-I 0 W/m 6,6 C 7,2 C 3,2 km/h (1 Bft) 96,15 %
31.03.2016 04:59 7,1 C 96 % 1010,9 hPa 0,0 l/m 2,9 km/h (1 Bft) SW 221 0 min 0,000 mm 0,0 UV-I 0 W/m 6,5 C 7,1 C 4,8 km/h (1 Bft) 93,94 %
31.03.2016 05:00 6,9 C 95 % 1010,9 hPa 0,0 l/m 4,5 km/h (1 Bft) W-SW 241 0 min 0,000 mm 0,0 UV-I 0 W/m 6,2 C 6,9 C 6,4 km/h (2 Bft) 100,00 %
31.03.2016 05:02 6,8 C 95 % 1011,0 hPa 0,0 l/m 4,9 km/h (1 Bft) W-SW 242 0 min 0,000 mm 0,0 UV-I 0 W/m 6,1 C 6,8 C 6,4 km/h (2 Bft) 98,00 %
31.03.2016 05:03 6,7 C 96 % 1010,9 hPa 0,0 l/m 4,1 km/h (1 Bft) W-SW 242 0 min 0,000 mm 0,0 UV-I 0 W/m 6,1 C 6,7 C 4,8 km/h (1 Bft) 100,00 %
31.03.2016 05:04 6,6 C 95 % 1010,9 hPa 0,0 l/m 3,5 km/h (1 Bft) W-SW 242 0 min 0,000 mm 0,0 UV-I 0 W/m 5,9 C 6,6 C 4,8 km/h (1 Bft) 100,00 %
31.03.2016 05:05 6,6 C 95 % 1010,9 hPa 0,0 l/m 4,5 km/h (1 Bft) W-SW 239 0 min 0,000 mm 0,0 UV-I 0 W/m 5,9 C 6,6 C 4,8 km/h (1 Bft) 95,83 %
31.03.2016 05:06 6,5 C 95 % 1010,9 hPa 0,0 l/m 3,6 km/h (1 Bft) SW 235 0 min 0,000 mm 0,0 UV-I 0 W/m 5,8 C 6,5 C 4,8 km/h (1 Bft) 100,00 %
31.03.2016 05:07 6,5 C 96 % 1010,9 hPa 0,0 l/m 0,7 km/h (0 Bft) SW 235 0 min 0,000 mm 0,0 UV-I 0 W/m 5,9 C 6,5 C 3,2 km/h (1 Bft) 100,00 %
31.03.2016 05:08 6,4 C 96 % 1010,9 hPa 0,0 l/m 1,4 km/h (1 Bft) SW 235 0 min 0,000 mm 0,0 UV-I 0 W/m 5,8 C 6,4 C 3,2 km/h (1 Bft) 95,65 %
31.03.2016 05:09 6,3 C 95 % 1010,8 hPa 0,0 l/m 0,3 km/h (0 Bft) SW 235 0 min 0,000 mm 0,0 UV-I 0 W/m 5,6 C 6,3 C 1,6 km/h (1 Bft) 100,00 %
31.03.2016 05:10 6,2 C 95 % 1010,8 hPa 0,0 l/m 0,2 km/h (0 Bft) SW 235 0 min 0,000 mm 0,0 UV-I 0 W/m 5,5 C 6,2 C 1,6 km/h (1 Bft) 100,00 %
31.03.2016 05:11 6,2 C 95 % 1010,8 hPa 0,0 l/m 0,8 km/h (0 Bft) SW 235 0 min 0,000 mm 0,0 UV-I 0 W/m 5,5 C 6,2 C 1,6 km/h (1 Bft) 100,00 %
31.03.2016 05:12 6,1 C 95 % 1010,8 hPa 0,0 l/m 0,5 km/h (0 Bft) SW 235 0 min 0,000 mm 0,0 UV-I 0 W/m 5,4 C 6,1 C 1,6 km/h (1 Bft) 100,00 %
31.03.2016 05:13 6,2 C 96 % 1010,8 hPa 0,0 l/m 1,1 km/h (1 Bft) SW 235 0 min 0,000 mm 0,0 UV-I 0 W/m 5,6 C 6,2 C 1,6 km/h (1 Bft) 96,55 %
31.03.2016 05:14 6,2 C 96 % 1010,8 hPa 0,0 l/m 0,2 km/h (0 Bft) SW 235 0 min 0,000 mm 0,0 UV-I 0 W/m 5,6 C 6,2 C 1,6 km/h (1 Bft) 100,00 %
31.03.2016 05:15 6,3 C 96 % 1010,8 hPa 0,0 l/m 0,0 km/h (0 Bft) SW 235 0 min 0,000 mm 0,0 UV-I 0 W/m 5,7 C 6,3 C 0,0 km/h (0 Bft) 100,00 %
31.03.2016 05:16 6,3 C 97 % 1010,8 hPa 0,0 l/m 0,3 km/h (0 Bft) SW 235 0 min 0,000 mm 0,0 UV-I 0 W/m 5,9 C 6,3 C 1,6 km/h (1 Bft) 100,00 %
31.03.2016 05:17 6,4 C 97 % 1010,9 hPa 0,0 l/m 1,4 km/h (1 Bft) SW 235 0 min 0,000 mm 0,0 UV-I 0 W/m 6,0 C 6,4 C 3,2 km/h (1 Bft) 100,00 %
31.03.2016 05:18 6,5 C 97 % 1010,8 hPa 0,0 l/m 0,2 km/h (0 Bft) SW 235 0 min 0,000 mm 0,0 UV-I 0 W/m 6,1 C 6,5 C 1,6 km/h (1 Bft) 100,00 %
31.03.2016 05:19 6,5 C 97 % 1010,8 hPa 0,0 l/m 0,3 km/h (0 Bft) SW 235 0 min 0,000 mm 0,0 UV-I 0 W/m 6,1 C 6,5 C 1,6 km/h (1 Bft) 100,00 %
31.03.2016 05:20 6,6 C 97 % 1010,8 hPa 0,0 l/m 1,8 km/h (1 Bft) SW 221 0 min 0,000 mm 0,0 UV-I 0 W/m 6,2 C 6,6 C 3,2 km/h (1 Bft) 100,00 %
31.03.2016 05:21 6,7 C 97 % 1010,8 hPa 0,0 l/m 0,9 km/h (0 Bft) S-SW 211 0 min 0,000 mm 0,0 UV-I 0 W/m 6,3 C 6,7 C 1,6 km/h (1 Bft) 100,00 %
31.03.2016 05:22 6,7 C 97 % 1010,7 hPa 0,0 l/m 4,5 km/h (1 Bft) S-SO 167 0 min 0,000 mm 0,0 UV-I 0 W/m 6,3 C 6,7 C 6,4 km/h (2 Bft) 100,00 %
31.03.2016 05:23 6,6 C 97 % 1010,7 hPa 0,0 l/m 4,2 km/h (1 Bft) S-SO 165 0 min 0,000 mm 0,0 UV-I 0 W/m 6,2 C 6,6 C 6,4 km/h (2 Bft) 100,00 %
31.03.2016 05:24 6,5 C 96 % 1010,7 hPa 0,0 l/m 4,1 km/h (1 Bft) S-SO 165 0 min 0,000 mm 0,0 UV-I 0 W/m 5,9 C 6,5 C 6,4 km/h (2 Bft) 100,00 %
31.03.2016 05:25 6,5 C 96 % 1010,7 hPa 0,0 l/m 3,3 km/h (1 Bft) S-SO 165 0 min 0,000 mm 0,0 UV-I 0 W/m 5,9 C 6,5 C 6,4 km/h (2 Bft) 100,00 %
31.03.2016 05:26 6,6 C 97 % 1010,8 hPa 0,0 l/m 3,5 km/h (1 Bft) S-SO 165 0 min 0,000 mm 0,0 UV-I 0 W/m 6,2 C 6,6 C 6,4 km/h (2 Bft) 100,00 %
31.03.2016 05:27 6,8 C 97 % 1010,8 hPa 0,0 l/m 2,5 km/h (1 Bft) S-SO 165 0 min 0,000 mm 0,0 UV-I 0 W/m 6,4 C 6,8 C 6,4 km/h (2 Bft) 100,00 %
31.03.2016 05:28 6,9 C 97 % 1010,8 hPa 0,0 l/m 0,8 km/h (0 Bft) S-SO 165 0 min 0,000 mm 0,0 UV-I 0 W/m 6,5 C 6,9 C 1,6 km/h (1 Bft) 100,00 %
31.03.2016 05:29 7,0 C 97 % 1010,8 hPa 0,0 l/m 1,4 km/h (1 Bft) S-SO 165 0 min 0,000 mm 0,0 UV-I 0 W/m 6,6 C 7,0 C 3,2 km/h (1 Bft) 98,19 %
31.03.2016 05:30 7,1 C 97 % 1010,8 hPa 0,0 l/m 1,3 km/h (1 Bft) S-SO 165 0 min 0,000 mm 0,0 UV-I 0 W/m 6,7 C 7,1 C 3,2 km/h (1 Bft) 100,00 %
31.03.2016 05:31 7,2 C 97 % 1010,8 hPa 0,0 l/m 0,5 km/h (0 Bft) S-SO 165 0 min 0,000 mm 0,0 UV-I 0 W/m 6,8 C 7,2 C 1,6 km/h (1 Bft) 100,00 %
31.03.2016 05:32 7,2 C 97 % 1010,8 hPa 0,0 l/m 0,4 km/h (0 Bft) S-SO 165 0 min 0,000 mm 0,0 UV-I 0 W/m 6,8 C 7,2 C 1,6 km/h (1 Bft) 100,00 %
31.03.2016 05:33 7,0 C 97 % 1010,8 hPa 0,0 l/m 0,2 km/h (0 Bft) S-SO 165 0 min 0,000 mm 0,0 UV-I 0 W/m 6,6 C 7,0 C 1,6 km/h (1 Bft) 100,00 %
31.03.2016 05:34 6,8 C 97 % 1010,9 hPa 0,0 l/m 0,5 km/h (0 Bft) S-SO 165 0 min 0,000 mm 0,0 UV-I 0 W/m 6,4 C 6,8 C 1,6 km/h (1 Bft) 95,65 %
31.03.2016 05:35 6,7 C 97 % 1010,9 hPa 0,0 l/m 1,5 km/h (1 Bft) S-SO 165 0 min 0,000 mm 0,0 UV-I 0 W/m 6,3 C 6,7 C 3,2 km/h (1 Bft) 100,00 %
31.03.2016 05:36 6,7 C 96 % 1010,9 hPa 0,0 l/m 1,9 km/h (1 Bft) S-SO 165 0 min 0,000 mm 0,0 UV-I 0 W/m 6,1 C 6,7 C 3,2 km/h (1 Bft) 100,00 %
31.03.2016 05:37 6,6 C 96 % 1010,8 hPa 0,0 l/m 1,7 km/h (1 Bft) S-SO 165 0 min 0,000 mm 0,0 UV-I 0 W/m 6,0 C 6,6 C 3,2 km/h (1 Bft) 100,00 %
31.03.2016 05:38 6,5 C 96 % 1010,9 hPa 0,0 l/m 1,1 km/h (1 Bft) S-SO 165 0 min 0,000 mm 0,0 UV-I 0 W/m 5,9 C 6,5 C 1,6 km/h (1 Bft) 100,00 %
31.03.2016 05:39 6,5 C 96 % 1010,8 hPa 0,0 l/m 0,0 km/h (0 Bft) S-SO 165 0 min 0,000 mm 0,0 UV-I 0 W/m 5,9 C 6,5 C 0,0 km/h (0 Bft) 100,00 %
31.03.2016 05:40 6,5 C 96 % 1010,8 hPa 0,0 l/m 0,0 km/h (0 Bft) S-SO 165 0 min 0,000 mm 0,0 UV-I 0 W/m 5,9 C 6,5 C 0,0 km/h (0 Bft) 92,86 %
31.03.2016 05:41 6,5 C 97 % 1010,8 hPa 0,0 l/m 0,1 km/h (0 Bft) S-SO 165 0 min 0,000 mm 0,0 UV-I 0 W/m 6,1 C 6,5 C 1,6 km/h (1 Bft) 100,00 %
31.03.2016 05:42 6,5 C 97 % 1010,8 hPa 0,0 l/m 0,0 km/h (0 Bft) S-SO 165 0 min 0,000 mm 0,0 UV-I 0 W/m 6,1 C 6,5 C 0,0 km/h (0 Bft) 96,15 %
31.03.2016 05:43 6,5 C 97 % 1010,8 hPa 0,0 l/m 0,1 km/h (0 Bft) S-SO 165 0 min 0,000 mm 0,0 UV-I 0 W/m 6,1 C 6,5 C 1,6 km/h (1 Bft) 100,00 %
31.03.2016 05:44 6,4 C 97 % 1010,8 hPa 0,0 l/m 0,7 km/h (0 Bft) S-SO 165 0 min 0,000 mm 0,0 UV-I 0 W/m 6,0 C 6,4 C 1,6 km/h (1 Bft) 100,00 %
31.03.2016 05:45 6,4 C 97 % 1010,8 hPa 0,0 l/m 0,1 km/h (0 Bft) S-SO 165 0 min 0,000 mm 0,0 UV-I 0 W/m 6,0 C 6,4 C 1,6 km/h (1 Bft) 100,00 %
31.03.2016 05:46 6,4 C 97 % 1010,8 hPa 0,0 l/m 0,9 km/h (0 Bft) S-SO 165 0 min 0,000 mm 0,0 UV-I 0 W/m 6,0 C 6,4 C 1,6 km/h (1 Bft) 95,65 %
31.03.2016 05:47 6,5 C 97 % 1010,7 hPa 0,0 l/m 0,6 km/h (0 Bft) S-SO 165 0 min 0,000 mm 0,0 UV-I 0 W/m 6,1 C 6,5 C 1,6 km/h (1 Bft) 100,00 %
31.03.2016 05:48 6,6 C 97 % 1010,8 hPa 0,0 l/m 1,3 km/h (1 Bft) S-SO 165 0 min 0,000 mm 0,0 UV-I 0 W/m 6,2 C 6,6 C 3,2 km/h (1 Bft) 100,00 %
31.03.2016 05:49 6,7 C 97 % 1010,8 hPa 0,0 l/m 2,1 km/h (1 Bft) S-SO 165 0 min 0,000 mm 0,0 UV-I 0 W/m 6,3 C 6,7 C 3,2 km/h (1 Bft) 100,00 %
31.03.2016 05:50 6,6 C 97 % 1010,8 hPa 0,0 l/m 1,7 km/h (1 Bft) S-SO 165 0 min 0,000 mm 0,0 UV-I 0 W/m 6,2 C 6,6 C 3,2 km/h (1 Bft) 100,00 %
31.03.2016 05:51 6,6 C 97 % 1010,8 hPa 0,0 l/m 0,7 km/h (0 Bft) S-SO 165 0 min 0,000 mm 0,0 UV-I 0 W/m 6,2 C 6,6 C 1,6 km/h (1 Bft) 100,00 %
31.03.2016 05:52 6,6 C 97 % 1010,8 hPa 0,0 l/m 0,0 km/h (0 Bft) S-SO 165 0 min 0,000 mm 0,0 UV-I 0 W/m 6,2 C 6,6 C 0,0 km/h (0 Bft) 100,00 %
31.03.2016 05:53 6,7 C 97 % 1010,8 hPa 0,0 l/m 0,0 km/h (0 Bft) S-SO 165 0 min 0,000 mm 0,0 UV-I 0 W/m 6,3 C 6,7 C 0,0 km/h (0 Bft) 95,83 %
31.03.2016 05:54 6,7 C 97 % 1010,8 hPa 0,0 l/m 0,0 km/h (0 Bft) S-SO 165 0 min 0,000 mm 0,0 UV-I 0 W/m 6,3 C 6,7 C 0,0 km/h (0 Bft) 100,00 %
31.03.2016 05:55 6,7 C 97 % 1010,8 hPa 0,0 l/m 0,0 km/h (0 Bft) S-SO 165 0 min 0,000 mm 0,0 UV-I 0 W/m 6,3 C 6,7 C 0,0 km/h (0 Bft) 100,00 %
31.03.2016 05:56 6,7 C 97 % 1010,8 hPa 0,0 l/m 0,0 km/h (0 Bft) S-SO 165 0 min 0,000 mm 0,0 UV-I 0 W/m 6,3 C 6,7 C 0,0 km/h (0 Bft) 100,00 %
31.03.2016 05:57 6,6 C 97 % 1010,8 hPa 0,0 l/m 0,0 km/h (0 Bft) S-SO 165 0 min 0,000 mm 0,0 UV-I 0 W/m 6,2 C 6,6 C 0,0 km/h (0 Bft) 100,00 %
31.03.2016 05:58 6,5 C 97 % 1010,8 hPa 0,0 l/m 0,0 km/h (0 Bft) S-SO 165 0 min 0,000 mm 0,0 UV-I 0 W/m 6,1 C 6,5 C 0,0 km/h (0 Bft) 100,00 %
31.03.2016 05:59 6,4 C 97 % 1010,8 hPa 0,0 l/m 0,1 km/h (0 Bft) S-SO 165 0 min 0,000 mm 0,0 UV-I 0 W/m 6,0 C 6,4 C 1,6 km/h (1 Bft) 100,00 %
31.03.2016 06:00 6,4 C 97 % 1010,8 hPa 0,0 l/m 0,7 km/h (0 Bft) S-SO 165 0 min 0,000 mm 0,0 UV-I 0 W/m 6,0 C 6,4 C 1,6 km/h (1 Bft) 100,00 %
31.03.2016 06:02 6,2 C 96 % 1010,7 hPa 0,0 l/m 1,5 km/h (1 Bft) S-SO 165 0 min 0,000 mm 0,0 UV-I 0 W/m 5,6 C 6,2 C 3,2 km/h (1 Bft) 98,00 %
31.03.2016 06:03 6,3 C 96 % 1010,7 hPa 0,0 l/m 1,7 km/h (1 Bft) S-SO 165 0 min 0,000 mm 0,0 UV-I 0 W/m 5,7 C 6,3 C 3,2 km/h (1 Bft) 100,00 %
31.03.2016 06:04 6,4 C 97 % 1010,8 hPa 0,0 l/m 1,3 km/h (1 Bft) S-SO 165 0 min 0,000 mm 0,0 UV-I 0 W/m 6,0 C 6,4 C 3,2 km/h (1 Bft) 100,00 %
31.03.2016 06:05 6,6 C 97 % 1010,8 hPa 0,0 l/m 1,0 km/h (0 Bft) S-SO 165 0 min 0,000 mm 0,0 UV-I 0 W/m 6,2 C 6,6 C 1,6 km/h (1 Bft) 95,65 %
31.03.2016 06:06 6,6 C 97 % 1010,8 hPa 0,0 l/m 0,1 km/h (0 Bft) S-SO 165 0 min 0,000 mm 0,0 UV-I 0 W/m 6,2 C 6,6 C 1,6 km/h (1 Bft) 100,00 %
31.03.2016 06:07 6,6 C 97 % 1010,8 hPa 0,0 l/m 0,0 km/h (0 Bft) S-SO 165 0 min 0,000 mm 0,0 UV-I 0 W/m 6,2 C 6,6 C 0,0 km/h (0 Bft) 100,00 %
31.03.2016 06:08 6,6 C 97 % 1010,7 hPa 0,0 l/m 0,0 km/h (0 Bft) S-SO 165 0 min 0,000 mm 0,0 UV-I 0 W/m 6,2 C 6,6 C 0,0 km/h (0 Bft) 100,00 %
31.03.2016 06:09 6,5 C 97 % 1010,7 hPa 0,0 l/m 0,0 km/h (0 Bft) S-SO 165 0 min 0,000 mm 0,0 UV-I 0 W/m 6,1 C 6,5 C 0,0 km/h (0 Bft) 100,00 %
31.03.2016 06:10 6,4 C 97 % 1010,7 hPa 0,0 l/m 0,0 km/h (0 Bft) S-SO 165 0 min 0,000 mm 0,0 UV-I 0 W/m 6,0 C 6,4 C 0,0 km/h (0 Bft) 100,00 %
31.03.2016 06:11 6,4 C 97 % 1010,7 hPa 0,0 l/m 0,0 km/h (0 Bft) S-SO 165 0 min 0,000 mm 0,0 UV-I 0 W/m 6,0 C 6,4 C 0,0 km/h (0 Bft) 100,00 %
31.03.2016 06:12 6,4 C 97 % 1010,8 hPa 0,0 l/m 0,2 km/h (0 Bft) S-SO 165 0 min 0,000 mm 0,0 UV-I 0 W/m 6,0 C 6,4 C 1,6 km/h (1 Bft) 100,00 %
31.03.2016 06:13 6,4 C 97 % 1010,8 hPa 0,0 l/m 2,6 km/h (1 Bft) S-SO 165 0 min 0,000 mm 0,0 UV-I 0 W/m 6,0 C 6,4 C 3,2 km/h (1 Bft) 100,00 %
31.03.2016 06:14 6,3 C 97 % 1010,8 hPa 0,0 l/m 2,6 km/h (1 Bft) S-SO 165 0 min 0,000 mm 0,0 UV-I 0 W/m 5,9 C 6,3 C 3,2 km/h (1 Bft) 100,00 %
31.03.2016 06:15 6,3 C 97 % 1010,8 hPa 0,0 l/m 2,8 km/h (1 Bft) S-SO 165 0 min 0,000 mm 0,0 UV-I 0 W/m 5,9 C 6,3 C 3,2 km/h (1 Bft) 100,00 %
31.03.2016 06:16 6,2 C 97 % 1010,8 hPa 0,0 l/m 2,2 km/h (1 Bft) S-SO 165 0 min 0,000 mm 0,0 UV-I 0 W/m 5,8 C 6,2 C 3,2 km/h (1 Bft) 100,00 %
31.03.2016 06:17 6,2 C 97 % 1010,8 hPa 0,0 l/m 1,3 km/h (1 Bft) S-SO 165 0 min 0,000 mm 0,0 UV-I 0 W/m 5,8 C 6,2 C 3,2 km/h (1 Bft) 100,00 %
31.03.2016 06:18 6,2 C 97 % 1010,8 hPa 0,0 l/m 0,1 km/h (0 Bft) S-SO 165 0 min 0,000 mm 0,0 UV-I 0 W/m 5,8 C 6,2 C 1,6 km/h (1 Bft) 100,00 %
31.03.2016 06:19 6,2 C 97 % 1010,8 hPa 0,0 l/m 0,0 km/h (0 Bft) S-SO 165 0 min 0,000 mm 0,0 UV-I 0 W/m 5,8 C 6,2 C 0,0 km/h (0 Bft) 100,00 %
31.03.2016 06:20 6,2 C 97 % 1010,8 hPa 0,0 l/m 0,1 km/h (0 Bft) S-SO 165 0 min 0,000 mm 0,0 UV-I 0 W/m 5,8 C 6,2 C 1,6 km/h (1 Bft) 100,00 %
31.03.2016 06:21 6,2 C 97 % 1010,8 hPa 0,0 l/m 0,8 km/h (0 Bft) S-SO 165 0 min 0,000 mm 0,0 UV-I 0 W/m 5,8 C 6,2 C 1,6 km/h (1 Bft) 96,30 %
31.03.2016 06:22 6,2 C 97 % 1010,8 hPa 0,0 l/m 1,9 km/h (1 Bft) S-SO 165 0 min 0,000 mm 0,0 UV-I 0 W/m 5,8 C 6,2 C 3,2 km/h (1 Bft) 100,00 %
31.03.2016 06:23 6,2 C 97 % 1010,7 hPa 0,0 l/m 2,3 km/h (1 Bft) S-SO 165 0 min 0,000 mm 0,0 UV-I 0 W/m 5,8 C 6,2 C 3,2 km/h (1 Bft) 96,30 %
31.03.2016 06:24 6,2 C 97 % 1010,7 hPa 0,0 l/m 3,1 km/h (1 Bft) S-SO 165 0 min 0,000 mm 0,0 UV-I 0 W/m 5,8 C 6,2 C 6,4 km/h (2 Bft) 92,86 %
31.03.2016 06:25 6,3 C 97 % 1010,7 hPa 0,0 l/m 5,5 km/h (1 Bft) S-SO 165 0 min 0,000 mm 0,0 UV-I 0 W/m 5,9 C 6,3 C 6,4 km/h (2 Bft) 100,00 %
31.03.2016 06:26 6,3 C 97 % 1010,7 hPa 0,0 l/m 5,0 km/h (1 Bft) S-SO 165 0 min 0,000 mm 0,0 UV-I 0 W/m 5,9 C 6,3 C 6,4 km/h (2 Bft) 100,00 %
31.03.2016 06:27 6,2 C 97 % 1010,6 hPa 0,0 l/m 4,8 km/h (1 Bft) O-SO 107 0 min 0,000 mm 0,0 UV-I 0 W/m 5,8 C 6,2 C 6,4 km/h (2 Bft) 100,00 %
31.03.2016 06:28 6,2 C 97 % 1010,6 hPa 0,0 l/m 4,5 km/h (1 Bft) O-SO 103 0 min 0,000 mm 0,0 UV-I 0 W/m 5,8 C 6,2 C 6,4 km/h (2 Bft) 100,00 %
31.03.2016 06:29 6,3 C 97 % 1010,6 hPa 0,0 l/m 3,8 km/h (1 Bft) O-SO 103 0 min 0,000 mm 0,0 UV-I 0 W/m 5,9 C 6,3 C 6,4 km/h (2 Bft) 100,00 %
31.03.2016 06:30 6,6 C 97 % 1010,6 hPa 0,0 l/m 3,6 km/h (1 Bft) O-SO 103 0 min 0,000 mm 0,0 UV-I 0 W/m 6,2 C 6,6 C 4,8 km/h (1 Bft) 100,00 %
31.03.2016 06:31 6,8 C 97 % 1010,6 hPa 0,0 l/m 3,6 km/h (1 Bft) O-SO 103 0 min 0,000 mm 0,0 UV-I 0 W/m 6,4 C 6,8 C 4,8 km/h (1 Bft) 100,00 %
31.03.2016 06:32 6,9 C 98 % 1010,6 hPa 0,0 l/m 0,5 km/h (0 Bft) O-SO 103 0 min 0,000 mm 0,0 UV-I 0 W/m 6,6 C 6,9 C 1,6 km/h (1 Bft) 100,00 %
31.03.2016 06:33 7,0 C 98 % 1010,7 hPa 0,0 l/m 0,1 km/h (0 Bft) O-SO 103 0 min 0,000 mm 0,0 UV-I 0 W/m 6,7 C 7,0 C 1,6 km/h (1 Bft) 100,00 %
31.03.2016 06:34 7,1 C 98 % 1010,7 hPa 0,0 l/m 0,2 km/h (0 Bft) O-SO 103 0 min 0,000 mm 0,0 UV-I 0 W/m 6,8 C 7,1 C 1,6 km/h (1 Bft) 95,83 %
31.03.2016 06:35 7,1 C 98 % 1010,7 hPa 0,0 l/m 0,4 km/h (0 Bft) O-SO 103 0 min 0,000 mm 0,0 UV-I 0 W/m 6,8 C 7,1 C 1,6 km/h (1 Bft) 100,00 %
31.03.2016 06:36 6,8 C 98 % 1010,7 hPa 0,0 l/m 1,7 km/h (1 Bft) O-SO 103 0 min 0,000 mm 0,0 UV-I 2 W/m 6,5 C 6,8 C 3,2 km/h (1 Bft) 91,67 %
31.03.2016 06:37 6,6 C 97 % 1010,7 hPa 0,0 l/m 1,7 km/h (1 Bft) O-SO 103 0 min 0,000 mm 0,0 UV-I 6 W/m 6,2 C 6,6 C 3,2 km/h (1 Bft) 100,00 %
31.03.2016 06:38 6,3 C 97 % 1010,7 hPa 0,0 l/m 1,9 km/h (1 Bft) O 100 0 min 0,000 mm 0,0 UV-I 7 W/m 5,9 C 6,3 C 3,2 km/h (1 Bft) 95,83 %
31.03.2016 06:39 6,2 C 97 % 1010,8 hPa 0,0 l/m 1,3 km/h (1 Bft) O 99 0 min 0,000 mm 0,0 UV-I 7 W/m 5,8 C 6,2 C 3,2 km/h (1 Bft) 100,00 %
31.03.2016 06:40 6,1 C 96 % 1010,8 hPa 0,0 l/m 0,8 km/h (0 Bft) O-SO 116 0 min 0,000 mm 0,0 UV-I 8 W/m 5,5 C 6,1 C 3,2 km/h (1 Bft) 91,67 %
31.03.2016 06:41 6,0 C 96 % 1010,8 hPa 0,0 l/m 2,1 km/h (1 Bft) O-SO 122 0 min 0,000 mm 0,0 UV-I 9 W/m 5,4 C 6,0 C 3,2 km/h (1 Bft) 100,00 %
31.03.2016 06:42 5,9 C 96 % 1010,8 hPa 0,0 l/m 1,1 km/h (1 Bft) O-SO 122 0 min 0,000 mm 0,0 UV-I 9 W/m 5,3 C 5,9 C 1,6 km/h (1 Bft) 96,30 %
31.03.2016 06:43 5,9 C 96 % 1010,8 hPa 0,0 l/m 0,1 km/h (0 Bft) O-SO 122 0 min 0,000 mm 0,0 UV-I 9 W/m 5,3 C 5,9 C 1,6 km/h (1 Bft) 95,65 %
31.03.2016 06:44 5,8 C 97 % 1010,7 hPa 0,0 l/m 0,2 km/h (0 Bft) O-SO 122 0 min 0,000 mm 0,0 UV-I 9 W/m 5,4 C 5,8 C 1,6 km/h (1 Bft) 100,00 %
31.03.2016 06:45 5,8 C 97 % 1010,8 hPa 0,0 l/m 0,0 km/h (0 Bft) O-SO 122 0 min 0,000 mm 0,0 UV-I 7 W/m 5,4 C 5,8 C 0,0 km/h (0 Bft) 96,15 %
31.03.2016 06:46 5,8 C 97 % 1010,8 hPa 0,0 l/m 0,0 km/h (0 Bft) O-SO 122 0 min 0,000 mm 0,0 UV-I 7 W/m 5,4 C 5,8 C 0,0 km/h (0 Bft) 95,83 %
31.03.2016 06:47 5,8 C 97 % 1010,9 hPa 0,0 l/m 0,7 km/h (0 Bft) O-SO 122 0 min 0,000 mm 0,0 UV-I 7 W/m 5,4 C 5,8 C 1,6 km/h (1 Bft) 95,65 %
31.03.2016 06:48 5,8 C 97 % 1010,9 hPa 0,0 l/m 0,9 km/h (0 Bft) O-SO 122 0 min 0,000 mm 0,0 UV-I 7 W/m 5,4 C 5,8 C 1,6 km/h (1 Bft) 95,83 %
31.03.2016 06:49 5,8 C 97 % 1010,9 hPa 0,0 l/m 0,8 km/h (0 Bft) O-SO 122 0 min 0,000 mm 0,0 UV-I 9 W/m 5,4 C 5,8 C 1,6 km/h (1 Bft) 100,00 %
31.03.2016 06:50 5,9 C 97 % 1010,9 hPa 0,0 l/m 1,3 km/h (1 Bft) O-SO 122 0 min 0,000 mm 0,0 UV-I 9 W/m 5,5 C 5,9 C 3,2 km/h (1 Bft) 95,65 %
31.03.2016 06:51 5,9 C 97 % 1011,0 hPa 0,0 l/m 2,0 km/h (1 Bft) O-SO 122 0 min 0,000 mm 0,0 UV-I 11 W/m 5,5 C 5,9 C 3,2 km/h (1 Bft) 95,83 %
31.03.2016 06:52 5,9 C 97 % 1011,0 hPa 0,0 l/m 1,8 km/h (1 Bft) O-SO 122 0 min 0,000 mm 0,0 UV-I 11 W/m 5,5 C 5,9 C 3,2 km/h (1 Bft) 96,15 %
31.03.2016 06:53 6,0 C 97 % 1011,0 hPa 0,0 l/m 1,6 km/h (1 Bft) O-SO 122 0 min 0,000 mm 0,0 UV-I 11 W/m 5,6 C 6,0 C 3,2 km/h (1 Bft) 95,83 %
31.03.2016 06:54 6,1 C 97 % 1011,1 hPa 0,0 l/m 1,4 km/h (1 Bft) O-SO 122 1 min 0,000 mm 0,0 UV-I 12 W/m 5,7 C 6,1 C 1,6 km/h (1 Bft) 95,65 %
31.03.2016 06:55 6,1 C 97 % 1011,0 hPa 0,0 l/m 0,9 km/h (0 Bft) O-SO 122 1 min 0,000 mm 0,0 UV-I 12 W/m 5,7 C 6,1 C 1,6 km/h (1 Bft) 100,00 %
31.03.2016 06:56 6,2 C 97 % 1011,0 hPa 0,0 l/m 1,0 km/h (0 Bft) O-SO 122 0 min 0,000 mm 0,0 UV-I 12 W/m 5,8 C 6,2 C 1,6 km/h (1 Bft) 96,15 %
31.03.2016 06:57 6,3 C 97 % 1011,1 hPa 0,0 l/m 0,1 km/h (0 Bft) O-SO 122 0 min 0,000 mm 0,0 UV-I 12 W/m 5,9 C 6,3 C 1,6 km/h (1 Bft) 96,30 %
31.03.2016 06:58 6,4 C 97 % 1011,1 hPa 0,0 l/m 0,0 km/h (0 Bft) O-SO 122 0 min 0,000 mm 0,0 UV-I 12 W/m 6,0 C 6,4 C 0,0 km/h (0 Bft) 98,43 %
31.03.2016 06:59 6,5 C 97 % 1011,0 hPa 0,0 l/m 0,0 km/h (0 Bft) O-SO 122 0 min 0,000 mm 0,0 UV-I 12 W/m 6,1 C 6,5 C 0,0 km/h (0 Bft) 92,11 %
31.03.2016 07:00 6,5 C 97 % 1011,0 hPa 0,0 l/m 0,0 km/h (0 Bft) O-SO 122 0 min 0,000 mm 0,0 UV-I 12 W/m 6,1 C 6,5 C 0,0 km/h (0 Bft) 100,00 %
31.03.2016 07:02 6,6 C 97 % 1011,0 hPa 0,0 l/m 0,0 km/h (0 Bft) O-SO 122 0 min 0,000 mm 0,0 UV-I 12 W/m 6,2 C 6,6 C 0,0 km/h (0 Bft) 96,00 %
31.03.2016 07:03 6,6 C 97 % 1011,0 hPa 0,0 l/m 1,3 km/h (1 Bft) O-SO 122 0 min 0,000 mm 0,0 UV-I 12 W/m 6,2 C 6,6 C 3,2 km/h (1 Bft) 95,83 %
31.03.2016 07:04 6,6 C 98 % 1011,0 hPa 0,0 l/m 1,6 km/h (1 Bft) O-SO 122 0 min 0,000 mm 0,0 UV-I 12 W/m 6,3 C 6,6 C 3,2 km/h (1 Bft) 100,00 %
31.03.2016 07:05 6,7 C 98 % 1011,0 hPa 0,0 l/m 1,8 km/h (1 Bft) O-SO 122 0 min 0,000 mm 0,0 UV-I 12 W/m 6,4 C 6,7 C 3,2 km/h (1 Bft) 96,30 %
31.03.2016 07:06 6,7 C 98 % 1011,0 hPa 0,0 l/m 2,2 km/h (1 Bft) O-SO 122 0 min 0,000 mm 0,0 UV-I 13 W/m 6,4 C 6,7 C 3,2 km/h (1 Bft) 94,12 %
31.03.2016 07:07 6,8 C 97 % 1011,0 hPa 0,0 l/m 1,9 km/h (1 Bft) O-SO 122 0 min 0,000 mm 0,0 UV-I 14 W/m 6,4 C 6,8 C 3,2 km/h (1 Bft) 96,30 %
31.03.2016 07:08 6,8 C 97 % 1011,0 hPa 0,0 l/m 1,7 km/h (1 Bft) O-SO 122 0 min 0,000 mm 0,0 UV-I 14 W/m 6,4 C 6,8 C 3,2 km/h (1 Bft) 95,65 %
31.03.2016 07:09 6,9 C 97 % 1011,0 hPa 0,0 l/m 2,2 km/h (1 Bft) O-SO 122 0 min 0,000 mm 0,0 UV-I 14 W/m 6,5 C 6,9 C 3,2 km/h (1 Bft) 100,00 %
31.03.2016 07:10 6,9 C 97 % 1011,0 hPa 0,0 l/m 3,4 km/h (1 Bft) O-SO 117 0 min 0,000 mm 0,0 UV-I 14 W/m 6,5 C 6,9 C 4,8 km/h (1 Bft) 93,33 %
31.03.2016 07:11 7,1 C 98 % 1011,0 hPa 0,0 l/m 3,0 km/h (1 Bft) O-SO 117 0 min 0,000 mm 0,0 UV-I 15 W/m 6,8 C 7,1 C 4,8 km/h (1 Bft) 100,00 %
31.03.2016 07:12 7,1 C 98 % 1010,9 hPa 0,0 l/m 2,0 km/h (1 Bft) O-SO 117 0 min 0,000 mm 0,0 UV-I 16 W/m 6,8 C 7,1 C 3,2 km/h (1 Bft) 95,83 %
31.03.2016 07:13 7,1 C 98 % 1011,0 hPa 0,0 l/m 2,1 km/h (1 Bft) O-SO 117 0 min 0,000 mm 0,0 UV-I 16 W/m 6,8 C 7,1 C 3,2 km/h (1 Bft) 95,65 %
31.03.2016 07:14 7,1 C 98 % 1010,9 hPa 0,0 l/m 2,4 km/h (1 Bft) O-SO 117 0 min 0,000 mm 0,0 UV-I 18 W/m 6,8 C 7,1 C 3,2 km/h (1 Bft) 96,30 %
31.03.2016 07:15 7,1 C 97 % 1010,9 hPa 0,0 l/m 1,6 km/h (1 Bft) O-SO 117 0 min 0,000 mm 0,0 UV-I 18 W/m 6,7 C 7,1 C 3,2 km/h (1 Bft) 100,00 %
31.03.2016 07:16 7,2 C 97 % 1010,9 hPa 0,0 l/m 1,2 km/h (1 Bft) O-SO 117 0 min 0,000 mm 0,0 UV-I 20 W/m 6,8 C 7,2 C 3,2 km/h (1 Bft) 95,83 %
31.03.2016 07:17 7,2 C 97 % 1011,0 hPa 0,0 l/m 0,0 km/h (0 Bft) O-SO 117 0 min 0,000 mm 0,0 UV-I 21 W/m 6,8 C 7,2 C 0,0 km/h (0 Bft) 96,15 %
31.03.2016 07:18 7,2 C 97 % 1011,0 hPa 0,0 l/m 0,0 km/h (0 Bft) O-SO 117 0 min 0,000 mm 0,0 UV-I 21 W/m 6,8 C 7,2 C 0,0 km/h (0 Bft) 98,24 %
31.03.2016 07:19 7,2 C 97 % 1011,0 hPa 0,0 l/m 0,1 km/h (0 Bft) O-SO 117 0 min 0,000 mm 0,0 UV-I 22 W/m 6,8 C 7,2 C 1,6 km/h (1 Bft) 97,37 %
31.03.2016 07:20 7,2 C 97 % 1011,1 hPa 0,0 l/m 0,0 km/h (0 Bft) O-SO 117 0 min 0,000 mm 0,0 UV-I 23 W/m 6,8 C 7,2 C 0,0 km/h (0 Bft) 100,00 %
31.03.2016 07:21 7,2 C 97 % 1011,1 hPa 0,0 l/m 0,0 km/h (0 Bft) O-SO 117 0 min 0,000 mm 0,0 UV-I 25 W/m 6,8 C 7,2 C 0,0 km/h (0 Bft) 100,00 %
31.03.2016 07:22 7,2 C 97 % 1011,1 hPa 0,0 l/m 0,0 km/h (0 Bft) O-SO 117 0 min 0,000 mm 0,0 UV-I 25 W/m 6,8 C 7,2 C 0,0 km/h (0 Bft) 100,00 %
31.03.2016 07:23 7,1 C 97 % 1011,1 hPa 0,0 l/m 0,0 km/h (0 Bft) O-SO 117 0 min 0,000 mm 0,0 UV-I 27 W/m 6,7 C 7,1 C 0,0 km/h (0 Bft) 100,00 %
31.03.2016 07:24 7,1 C 97 % 1011,1 hPa 0,0 l/m 0,0 km/h (0 Bft) O-SO 117 0 min 0,000 mm 0,0 UV-I 28 W/m 6,7 C 7,1 C 0,0 km/h (0 Bft) 100,00 %
31.03.2016 07:25 7,0 C 97 % 1011,0 hPa 0,0 l/m 0,0 km/h (0 Bft) O-SO 117 0 min 0,000 mm 0,0 UV-I 28 W/m 6,6 C 7,0 C 0,0 km/h (0 Bft) 95,65 %
31.03.2016 07:26 6,9 C 97 % 1011,0 hPa 0,0 l/m 0,6 km/h (0 Bft) O-SO 117 0 min 0,000 mm 0,0 UV-I 30 W/m 6,5 C 6,9 C 1,6 km/h (1 Bft) 100,00 %
31.03.2016 07:27 6,8 C 97 % 1011,0 hPa 0,0 l/m 1,9 km/h (1 Bft) O-SO 117 0 min 0,000 mm 0,0 UV-I 30 W/m 6,4 C 6,8 C 3,2 km/h (1 Bft) 100,00 %
31.03.2016 07:28 6,8 C 97 % 1011,0 hPa 0,0 l/m 2,0 km/h (1 Bft) O-SO 117 0 min 0,000 mm 0,0 UV-I 30 W/m 6,4 C 6,8 C 3,2 km/h (1 Bft) 95,83 %
31.03.2016 07:29 6,7 C 97 % 1011,0 hPa 0,0 l/m 1,6 km/h (1 Bft) O-SO 117 0 min 0,000 mm 0,0 UV-I 31 W/m 6,3 C 6,7 C 3,2 km/h (1 Bft) 100,00 %
31.03.2016 07:30 6,6 C 97 % 1011,0 hPa 0,0 l/m 0,9 km/h (0 Bft) O-SO 117 0 min 0,000 mm 0,0 UV-I 32 W/m 6,2 C 6,6 C 1,6 km/h (1 Bft) 100,00 %
31.03.2016 07:31 6,6 C 97 % 1011,0 hPa 0,0 l/m 0,0 km/h (0 Bft) O-SO 117 0 min 0,000 mm 0,0 UV-I 32 W/m 6,2 C 6,6 C 0,0 km/h (0 Bft) 100,00 %
31.03.2016 07:32 6,6 C 97 % 1011,0 hPa 0,0 l/m 0,1 km/h (0 Bft) O-SO 117 0 min 0,000 mm 0,0 UV-I 33 W/m 6,2 C 6,6 C 1,6 km/h (1 Bft) 100,00 %
31.03.2016 07:33 6,7 C 97 % 1011,0 hPa 0,0 l/m 0,1 km/h (0 Bft) O-SO 117 0 min 0,000 mm 0,0 UV-I 33 W/m 6,3 C 6,7 C 1,6 km/h (1 Bft) 100,00 %
31.03.2016 07:34 6,7 C 97 % 1011,0 hPa 0,0 l/m 0,1 km/h (0 Bft) O-SO 117 0 min 0,000 mm 0,0 UV-I 34 W/m 6,3 C 6,7 C 1,6 km/h (1 Bft) 95,83 %
31.03.2016 07:35 6,7 C 97 % 1011,0 hPa 0,0 l/m 1,1 km/h (1 Bft) O-SO 117 0 min 0,000 mm 0,0 UV-I 35 W/m 6,3 C 6,7 C 1,6 km/h (1 Bft) 95,65 %
31.03.2016 07:36 6,7 C 97 % 1011,0 hPa 0,0 l/m 1,8 km/h (1 Bft) O-SO 117 0 min 0,000 mm 0,0 UV-I 36 W/m 6,3 C 6,7 C 3,2 km/h (1 Bft) 100,00 %
31.03.2016 07:37 6,6 C 97 % 1011,0 hPa 0,0 l/m 1,6 km/h (1 Bft) O-SO 117 0 min 0,000 mm 0,0 UV-I 37 W/m 6,2 C 6,6 C 1,6 km/h (1 Bft) 100,00 %
31.03.2016 07:38 6,6 C 97 % 1011,0 hPa 0,0 l/m 1,7 km/h (1 Bft) O-SO 117 0 min 0,000 mm 0,0 UV-I 39 W/m 6,2 C 6,6 C 3,2 km/h (1 Bft) 96,88 %
31.03.2016 07:39 6,7 C 97 % 1011,0 hPa 0,0 l/m 1,4 km/h (1 Bft) O-SO 117 0 min 0,000 mm 0,0 UV-I 39 W/m 6,3 C 6,7 C 1,6 km/h (1 Bft) 100,00 %
31.03.2016 07:40 6,7 C 97 % 1011,0 hPa 0,0 l/m 0,5 km/h (0 Bft) O-SO 117 0 min 0,000 mm 0,0 UV-I 40 W/m 6,3 C 6,7 C 1,6 km/h (1 Bft) 100,00 %
31.03.2016 07:41 6,8 C 97 % 1011,0 hPa 0,0 l/m 0,1 km/h (0 Bft) O-SO 117 0 min 0,000 mm 0,0 UV-I 41 W/m 6,4 C 6,8 C 1,6 km/h (1 Bft) 100,00 %
31.03.2016 07:42 6,8 C 97 % 1011,0 hPa 0,0 l/m 0,6 km/h (0 Bft) O-SO 117 0 min 0,000 mm 0,0 UV-I 42 W/m 6,4 C 6,8 C 3,2 km/h (1 Bft) 100,00 %
31.03.2016 07:43 6,8 C 97 % 1011,0 hPa 0,0 l/m 1,6 km/h (1 Bft) O-SO 117 0 min 0,000 mm 0,0 UV-I 44 W/m 6,4 C 6,8 C 1,6 km/h (1 Bft) 100,00 %
31.03.2016 07:44 6,8 C 98 % 1011,0 hPa 0,0 l/m 1,1 km/h (1 Bft) O-SO 117 0 min 0,000 mm 0,0 UV-I 44 W/m 6,5 C 6,8 C 1,6 km/h (1 Bft) 100,00 %
31.03.2016 07:45 6,9 C 98 % 1011,0 hPa 0,0 l/m 1,1 km/h (1 Bft) O-SO 117 0 min 0,000 mm 0,0 UV-I 46 W/m 6,6 C 6,9 C 1,6 km/h (1 Bft) 100,00 %
31.03.2016 07:46 6,9 C 98 % 1011,0 hPa 0,0 l/m 0,0 km/h (0 Bft) O-SO 117 0 min 0,000 mm 0,0 UV-I 48 W/m 6,6 C 6,9 C 0,0 km/h (0 Bft) 100,00 %
31.03.2016 07:47 7,0 C 98 % 1011,0 hPa 0,0 l/m 0,5 km/h (0 Bft) O-SO 117 0 min 0,000 mm 0,0 UV-I 50 W/m 6,7 C 7,0 C 1,6 km/h (1 Bft) 100,00 %
31.03.2016 07:48 7,1 C 98 % 1011,0 hPa 0,0 l/m 1,3 km/h (1 Bft) O-SO 117 0 min 0,000 mm 0,0 UV-I 52 W/m 6,8 C 7,1 C 1,6 km/h (1 Bft) 100,00 %
31.03.2016 07:49 7,1 C 98 % 1011,0 hPa 0,0 l/m 1,1 km/h (1 Bft) O-SO 117 0 min 0,000 mm 0,0 UV-I 54 W/m 6,8 C 7,1 C 1,6 km/h (1 Bft) 100,00 %
31.03.2016 07:50 7,1 C 98 % 1011,0 hPa 0,0 l/m 0,1 km/h (0 Bft) O-SO 117 0 min 0,000 mm 0,0 UV-I 54 W/m 6,8 C 7,1 C 1,6 km/h (1 Bft) 100,00 %
31.03.2016 07:51 7,1 C 98 % 1011,0 hPa 0,0 l/m 0,0 km/h (0 Bft) O-SO 117 0 min 0,000 mm 0,0 UV-I 57 W/m 6,8 C 7,1 C 0,0 km/h (0 Bft) 100,00 %
31.03.2016 07:52 7,0 C 98 % 1011,0 hPa 0,0 l/m 0,0 km/h (0 Bft) O-SO 117 0 min 0,000 mm 0,0 UV-I 60 W/m 6,7 C 7,0 C 0,0 km/h (0 Bft) 100,00 %
31.03.2016 07:53 7,0 C 98 % 1011,1 hPa 0,0 l/m 0,0 km/h (0 Bft) O-SO 117 0 min 0,000 mm 0,0 UV-I 63 W/m 6,7 C 7,0 C 0,0 km/h (0 Bft) 100,00 %
31.03.2016 07:54 7,1 C 97 % 1011,1 hPa 0,0 l/m 0,0 km/h (0 Bft) O-SO 117 0 min 0,000 mm 0,0 UV-I 65 W/m 6,7 C 7,1 C 0,0 km/h (0 Bft) 100,00 %
31.03.2016 07:55 7,1 C 98 % 1011,1 hPa 0,0 l/m 0,1 km/h (0 Bft) O-SO 117 0 min 0,000 mm 0,0 UV-I 69 W/m 6,8 C 7,1 C 1,6 km/h (1 Bft) 100,00 %
31.03.2016 07:56 7,1 C 98 % 1011,1 hPa 0,0 l/m 0,0 km/h (0 Bft) O-SO 117 0 min 0,000 mm 0,0 UV-I 71 W/m 6,8 C 7,1 C 0,0 km/h (0 Bft) 100,00 %
31.03.2016 07:57 7,1 C 98 % 1011,1 hPa 0,0 l/m 0,3 km/h (0 Bft) O-SO 117 0 min 0,000 mm 0,0 UV-I 74 W/m 6,8 C 7,1 C 1,6 km/h (1 Bft) 100,00 %
31.03.2016 07:58 7,1 C 98 % 1011,2 hPa 0,0 l/m 0,8 km/h (0 Bft) O-SO 117 0 min 0,000 mm 0,0 UV-I 77 W/m 6,8 C 7,1 C 1,6 km/h (1 Bft) 100,00 %
31.03.2016 07:59 7,1 C 98 % 1011,2 hPa 0,0 l/m 0,8 km/h (0 Bft) O-SO 117 0 min 0,000 mm 0,0 UV-I 78 W/m 6,8 C 7,1 C 1,6 km/h (1 Bft) 100,00 %
31.03.2016 08:00 7,0 C 98 % 1011,2 hPa 0,0 l/m 0,7 km/h (0 Bft) O-SO 117 0 min 0,025 mm 0,0 UV-I 81 W/m 6,7 C 7,0 C 1,6 km/h (1 Bft) 100,00 %
31.03.2016 08:02 6,9 C 98 % 1011,2 hPa 0,0 l/m 0,1 km/h (0 Bft) O-SO 117 0 min 0,000 mm 0,0 UV-I 83 W/m 6,6 C 6,9 C 1,6 km/h (1 Bft) 95,74 %
31.03.2016 08:03 6,9 C 98 % 1011,2 hPa 0,0 l/m 0,0 km/h (0 Bft) O-SO 117 0 min 0,000 mm 0,0 UV-I 85 W/m 6,6 C 6,9 C 0,0 km/h (0 Bft) 100,00 %
31.03.2016 08:04 6,9 C 97 % 1011,2 hPa 0,0 l/m 0,0 km/h (0 Bft) O-SO 117 0 min 0,000 mm 0,0 UV-I 87 W/m 6,5 C 6,9 C 0,0 km/h (0 Bft) 100,00 %
31.03.2016 08:05 6,9 C 97 % 1011,2 hPa 0,0 l/m 0,0 km/h (0 Bft) O-SO 117 0 min 0,000 mm 0,0 UV-I 89 W/m 6,5 C 6,9 C 0,0 km/h (0 Bft) 100,00 %
31.03.2016 08:06 6,9 C 97 % 1011,2 hPa 0,0 l/m 0,0 km/h (0 Bft) O-SO 117 0 min 0,000 mm 0,0 UV-I 92 W/m 6,5 C 6,9 C 0,0 km/h (0 Bft) 100,00 %
31.03.2016 08:07 6,8 C 98 % 1011,3 hPa 0,0 l/m 0,0 km/h (0 Bft) O-SO 117 0 min 0,000 mm 0,0 UV-I 108 W/m 6,5 C 6,8 C 0,0 km/h (0 Bft) 95,65 %
31.03.2016 08:08 6,8 C 98 % 1011,3 hPa 0,0 l/m 0,0 km/h (0 Bft) O-SO 117 1 min 0,000 mm 0,0 UV-I 154 W/m 6,5 C 6,8 C 0,0 km/h (0 Bft) 100,00 %
31.03.2016 08:09 6,9 C 98 % 1011,3 hPa 0,0 l/m 0,0 km/h (0 Bft) O-SO 117 1 min 0,000 mm 0,0 UV-I 184 W/m 6,6 C 6,9 C 0,0 km/h (0 Bft) 100,00 %
31.03.2016 08:10 6,9 C 98 % 1011,3 hPa 0,0 l/m 0,0 km/h (0 Bft) O-SO 117 1 min 0,000 mm 0,0 UV-I 182 W/m 6,6 C 6,9 C 0,0 km/h (0 Bft) 100,00 %
31.03.2016 08:11 7,0 C 98 % 1011,3 hPa 0,0 l/m 0,0 km/h (0 Bft) O-SO 117 1 min 0,000 mm 0,0 UV-I 171 W/m 6,7 C 7,0 C 0,0 km/h (0 Bft) 100,00 %
31.03.2016 08:12 7,1 C 98 % 1011,3 hPa 0,0 l/m 0,0 km/h (0 Bft) O-SO 117 1 min 0,000 mm 0,0 UV-I 158 W/m 6,8 C 7,1 C 0,0 km/h (0 Bft) 100,00 %
31.03.2016 08:13 7,1 C 98 % 1011,3 hPa 0,0 l/m 1,4 km/h (1 Bft) O-SO 117 1 min 0,000 mm 0,0 UV-I 149 W/m 6,8 C 7,1 C 3,2 km/h (1 Bft) 100,00 %
31.03.2016 08:14 7,0 C 98 % 1011,3 hPa 0,0 l/m 2,0 km/h (1 Bft) O-SO 117 1 min 0,000 mm 0,0 UV-I 172 W/m 6,7 C 7,0 C 3,2 km/h (1 Bft) 95,65 %
31.03.2016 08:15 7,1 C 98 % 1011,3 hPa 0,0 l/m 1,9 km/h (1 Bft) O-SO 117 1 min 0,000 mm 0,0 UV-I 157 W/m 6,8 C 7,1 C 3,2 km/h (1 Bft) 95,83 %
31.03.2016 08:16 7,1 C 98 % 1011,4 hPa 0,0 l/m 2,0 km/h (1 Bft) O-SO 117 0 min 0,000 mm 0,0 UV-I 129 W/m 6,8 C 7,1 C 3,2 km/h (1 Bft) 100,00 %
31.03.2016 08:17 7,1 C 98 % 1011,3 hPa 0,0 l/m 3,1 km/h (1 Bft) O-SO 117 0 min 0,000 mm 0,0 UV-I 138 W/m 6,8 C 7,1 C 4,8 km/h (1 Bft) 95,83 %
31.03.2016 08:18 7,1 C 98 % 1011,4 hPa 0,0 l/m 2,9 km/h (1 Bft) O-SO 117 1 min 0,000 mm 0,0 UV-I 180 W/m 6,8 C 7,1 C 4,8 km/h (1 Bft) 100,00 %
31.03.2016 08:19 7,2 C 98 % 1011,4 hPa 0,0 l/m 2,6 km/h (1 Bft) O-SO 117 1 min 0,000 mm 0,0 UV-I 190 W/m 6,9 C 7,2 C 3,2 km/h (1 Bft) 100,00 %
31.03.2016 08:20 7,2 C 98 % 1011,3 hPa 0,0 l/m 1,7 km/h (1 Bft) O-SO 117 1 min 0,000 mm 0,0 UV-I 179 W/m 6,9 C 7,2 C 3,2 km/h (1 Bft) 100,00 %
31.03.2016 08:21 7,3 C 98 % 1011,3 hPa 0,0 l/m 1,8 km/h (1 Bft) O-SO 117 1 min 0,000 mm 0,0 UV-I 196 W/m 7,0 C 7,3 C 3,2 km/h (1 Bft) 93,33 %
31.03.2016 08:22 7,3 C 98 % 1011,3 hPa 0,0 l/m 1,9 km/h (1 Bft) O-SO 117 1 min 0,000 mm 0,0 UV-I 219 W/m 7,0 C 7,3 C 3,2 km/h (1 Bft) 100,00 %
31.03.2016 08:23 7,4 C 98 % 1011,3 hPa 0,0 l/m 1,7 km/h (1 Bft) O-SO 117 1 min 0,000 mm 0,0 UV-I 227 W/m 7,1 C 7,4 C 3,2 km/h (1 Bft) 100,00 %
31.03.2016 08:24 7,6 C 98 % 1011,3 hPa 0,0 l/m 1,1 km/h (1 Bft) O-SO 117 1 min 0,000 mm 0,0 UV-I 230 W/m 7,3 C 7,6 C 1,6 km/h (1 Bft) 100,00 %
31.03.2016 08:25 7,6 C 98 % 1011,3 hPa 0,0 l/m 0,8 km/h (0 Bft) O-SO 117 1 min 0,000 mm 0,0 UV-I 231 W/m 7,3 C 7,6 C 1,6 km/h (1 Bft) 100,00 %
31.03.2016 08:26 7,7 C 98 % 1011,3 hPa 0,0 l/m 0,2 km/h (0 Bft) O-SO 117 1 min 0,000 mm 0,0 UV-I 229 W/m 7,4 C 7,7 C 1,6 km/h (1 Bft) 100,00 %
31.03.2016 08:27 7,8 C 98 % 1011,4 hPa 0,0 l/m 0,1 km/h (0 Bft) O-SO 117 1 min 0,000 mm 0,0 UV-I 234 W/m 7,5 C 7,8 C 1,6 km/h (1 Bft) 95,83 %
31.03.2016 08:28 7,8 C 98 % 1011,4 hPa 0,0 l/m 1,4 km/h (1 Bft) O-SO 117 1 min 0,000 mm 0,0 UV-I 234 W/m 7,5 C 7,8 C 3,2 km/h (1 Bft) 100,00 %
31.03.2016 08:29 7,9 C 98 % 1011,4 hPa 0,0 l/m 1,0 km/h (0 Bft) O-SO 117 1 min 0,000 mm 0,0 UV-I 203 W/m 7,6 C 7,9 C 1,6 km/h (1 Bft) 100,00 %
31.03.2016 08:30 7,9 C 98 % 1011,4 hPa 0,0 l/m 0,2 km/h (0 Bft) O-SO 117 1 min 0,000 mm 0,0 UV-I 186 W/m 7,6 C 7,9 C 1,6 km/h (1 Bft) 100,00 %
31.03.2016 08:31 7,9 C 98 % 1011,4 hPa 0,0 l/m 0,0 km/h (0 Bft) O-SO 117 1 min 0,000 mm 0,0 UV-I 176 W/m 7,6 C 7,9 C 0,0 km/h (0 Bft) 100,00 %
31.03.2016 08:32 7,9 C 98 % 1011,3 hPa 0,0 l/m 0,0 km/h (0 Bft) O-SO 117 1 min 0,000 mm 0,0 UV-I 179 W/m 7,6 C 7,9 C 0,0 km/h (0 Bft) 100,00 %
31.03.2016 08:33 8,1 C 98 % 1011,3 hPa 0,0 l/m 0,0 km/h (0 Bft) O-SO 117 1 min 0,000 mm 0,0 UV-I 188 W/m 7,8 C 8,1 C 0,0 km/h (0 Bft) 100,00 %
31.03.2016 08:34 8,1 C 98 % 1011,3 hPa 0,0 l/m 0,0 km/h (0 Bft) O-SO 117 1 min 0,000 mm 0,0 UV-I 188 W/m 7,8 C 8,1 C 0,0 km/h (0 Bft) 100,00 %
31.03.2016 08:35 8,1 C 98 % 1011,3 hPa 0,0 l/m 0,1 km/h (0 Bft) O-SO 117 1 min 0,000 mm 0,0 UV-I 189 W/m 7,8 C 8,1 C 1,6 km/h (1 Bft) 100,00 %
31.03.2016 08:36 8,2 C 98 % 1011,3 hPa 0,0 l/m 0,2 km/h (0 Bft) O-SO 117 1 min 0,000 mm 0,0 UV-I 193 W/m 7,9 C 8,2 C 1,6 km/h (1 Bft) 100,00 %
31.03.2016 08:37 8,3 C 98 % 1011,3 hPa 0,0 l/m 1,1 km/h (1 Bft) O-SO 117 1 min 0,000 mm 0,0 UV-I 196 W/m 8,0 C 8,3 C 1,6 km/h (1 Bft) 100,00 %
31.03.2016 08:38 8,3 C 98 % 1011,3 hPa 0,0 l/m 0,5 km/h (0 Bft) O-SO 117 1 min 0,000 mm 0,0 UV-I 196 W/m 8,0 C 8,3 C 3,2 km/h (1 Bft) 100,00 %
31.03.2016 08:39 8,5 C 98 % 1011,3 hPa 0,0 l/m 1,4 km/h (1 Bft) O-SO 117 1 min 0,000 mm 0,0 UV-I 228 W/m 8,2 C 8,5 C 3,2 km/h (1 Bft) 96,15 %
31.03.2016 08:40 8,6 C 98 % 1011,3 hPa 0,0 l/m 0,4 km/h (0 Bft) O-SO 117 1 min 0,000 mm 0,0 UV-I 271 W/m 8,3 C 8,6 C 1,6 km/h (1 Bft) 100,00 %
31.03.2016 08:41 8,6 C 98 % 1011,2 hPa 0,0 l/m 0,0 km/h (0 Bft) O-SO 117 1 min 0,000 mm 0,0 UV-I 280 W/m 8,3 C 8,6 C 0,0 km/h (0 Bft) 100,00 %
31.03.2016 08:42 8,7 C 98 % 1011,2 hPa 0,0 l/m 0,1 km/h (0 Bft) O-SO 117 1 min 0,000 mm 0,0 UV-I 259 W/m 8,4 C 8,7 C 1,6 km/h (1 Bft) 100,00 %
31.03.2016 08:43 8,7 C 98 % 1011,2 hPa 0,0 l/m 0,0 km/h (0 Bft) O-SO 117 1 min 0,000 mm 0,0 UV-I 250 W/m 8,4 C 8,7 C 0,0 km/h (0 Bft) 100,00 %
31.03.2016 08:44 8,8 C 98 % 1011,2 hPa 0,0 l/m 0,3 km/h (0 Bft) O-SO 117 1 min 0,000 mm 0,1 UV-I 254 W/m 8,5 C 8,8 C 1,6 km/h (1 Bft) 100,00 %
31.03.2016 08:45 8,8 C 98 % 1011,2 hPa 0,0 l/m 0,2 km/h (0 Bft) O-SO 117 1 min 0,000 mm 0,5 UV-I 261 W/m 8,5 C 8,8 C 1,6 km/h (1 Bft) 95,65 %
31.03.2016 08:46 8,8 C 98 % 1011,2 hPa 0,0 l/m 0,0 km/h (0 Bft) O-SO 117 1 min 0,000 mm 0,5 UV-I 255 W/m 8,5 C 8,8 C 0,0 km/h (0 Bft) 100,00 %
31.03.2016 08:47 8,8 C 98 % 1011,2 hPa 0,0 l/m 0,0 km/h (0 Bft) O-SO 117 1 min 0,000 mm 0,5 UV-I 242 W/m 8,5 C 8,8 C 0,0 km/h (0 Bft) 96,15 %
31.03.2016 08:48 8,8 C 98 % 1011,2 hPa 0,0 l/m 0,3 km/h (0 Bft) O-SO 117 1 min 0,000 mm 0,5 UV-I 212 W/m 8,5 C 8,8 C 1,6 km/h (1 Bft) 95,83 %
31.03.2016 08:50 9,0 C 98 % 1011,2 hPa 0,0 l/m 1,6 km/h (1 Bft) O-SO 112 2 min 0,000 mm 0,5 UV-I 215 W/m 8,7 C 9,0 C 3,2 km/h (1 Bft) 100,00 %
31.03.2016 08:55 9,2 C 98 % 1011,2 hPa 0,0 l/m 3,2 km/h (1 Bft) O-SO 112 0 min 0,000 mm 0,5 UV-I 180 W/m 8,9 C 9,2 C 6,4 km/h (2 Bft) 100,00 %
31.03.2016 09:00 9,2 C 98 % 1011,2 hPa 0,0 l/m 6,4 km/h (2 Bft) NO 45 0 min 0,076 mm 0,5 UV-I 175 W/m 8,9 C 9,2 C 9,7 km/h (2 Bft) 99,12 %
31.03.2016 09:01 9,2 C 98 % 1011,2 hPa 0,0 l/m 4,3 km/h (1 Bft) O-NO 63 0 min 0,001 mm 0,5 UV-I 190 W/m 8,9 C 9,2 C 4,8 km/h (1 Bft) 97,34 %
31.03.2016 09:02 9,2 C 98 % 1011,2 hPa 0,0 l/m 5,5 km/h (1 Bft) O-NO 64 0 min 0,000 mm 0,5 UV-I 162 W/m 8,9 C 9,2 C 6,4 km/h (2 Bft) 100,00 %
31.03.2016 09:03 9,3 C 98 % 1011,2 hPa 0,0 l/m 3,9 km/h (1 Bft) NO 53 0 min 0,000 mm 0,6 UV-I 164 W/m 9,0 C 9,3 C 6,4 km/h (2 Bft) 95,83 %
31.03.2016 09:04 9,3 C 98 % 1011,1 hPa 0,0 l/m 3,9 km/h (1 Bft) NO 53 0 min 0,000 mm 0,6 UV-I 164 W/m 9,0 C 9,3 C 4,8 km/h (1 Bft) 96,15 %
31.03.2016 09:05 9,3 C 98 % 1011,1 hPa 0,0 l/m 4,9 km/h (1 Bft) NO 53 0 min 0,000 mm 0,6 UV-I 168 W/m 9,0 C 9,3 C 6,4 km/h (2 Bft) 100,00 %
31.03.2016 09:06 9,3 C 98 % 1011,1 hPa 0,0 l/m 4,1 km/h (1 Bft) NO 53 0 min 0,000 mm 0,6 UV-I 177 W/m 9,0 C 9,3 C 6,4 km/h (2 Bft) 100,00 %
31.03.2016 09:07 9,3 C 98 % 1011,1 hPa 0,0 l/m 4,1 km/h (1 Bft) NO 53 0 min 0,000 mm 0,6 UV-I 195 W/m 9,0 C 9,3 C 4,8 km/h (1 Bft) 95,83 %
31.03.2016 09:08 9,3 C 98 % 1011,0 hPa 0,0 l/m 4,7 km/h (1 Bft) NO 53 1 min 0,000 mm 0,7 UV-I 220 W/m 9,0 C 9,3 C 4,8 km/h (1 Bft) 96,15 %
31.03.2016 09:09 9,4 C 98 % 1011,0 hPa 0,0 l/m 4,6 km/h (1 Bft) NO 54 1 min 0,000 mm 0,7 UV-I 234 W/m 9,1 C 9,4 C 4,8 km/h (1 Bft) 100,00 %
31.03.2016 09:10 9,4 C 97 % 1011,0 hPa 0,0 l/m 4,7 km/h (1 Bft) O-NO 61 1 min 0,000 mm 0,7 UV-I 251 W/m 8,9 C 9,4 C 6,4 km/h (2 Bft) 91,67 %
31.03.2016 09:11 9,5 C 97 % 1011,0 hPa 0,0 l/m 3,8 km/h (1 Bft) O-NO 61 1 min 0,000 mm 0,7 UV-I 261 W/m 9,0 C 9,5 C 4,8 km/h (1 Bft) 100,00 %
31.03.2016 09:12 9,6 C 98 % 1011,0 hPa 0,0 l/m 4,3 km/h (1 Bft) NO 50 1 min 0,000 mm 0,8 UV-I 276 W/m 9,3 C 9,6 C 6,4 km/h (2 Bft) 96,55 %
31.03.2016 09:13 9,6 C 97 % 1011,0 hPa 0,0 l/m 4,5 km/h (1 Bft) NO 50 1 min 0,000 mm 0,8 UV-I 273 W/m 9,1 C 9,6 C 6,4 km/h (2 Bft) 100,00 %
31.03.2016 09:14 9,7 C 97 % 1011,0 hPa 0,0 l/m 4,4 km/h (1 Bft) NO 50 1 min 0,000 mm 0,8 UV-I 272 W/m 9,2 C 9,7 C 6,4 km/h (2 Bft) 95,83 %
31.03.2016 09:15 9,8 C 97 % 1011,0 hPa 0,0 l/m 3,3 km/h (1 Bft) NO 50 1 min 0,000 mm 0,8 UV-I 296 W/m 9,3 C 9,8 C 4,8 km/h (1 Bft) 96,55 %
31.03.2016 09:16 9,8 C 97 % 1011,0 hPa 0,0 l/m 2,5 km/h (1 Bft) NO 50 1 min 0,000 mm 0,9 UV-I 322 W/m 9,3 C 9,8 C 4,8 km/h (1 Bft) 100,00 %
31.03.2016 09:17 9,9 C 97 % 1011,0 hPa 0,0 l/m 4,5 km/h (1 Bft) NO 50 1 min 0,000 mm 0,9 UV-I 330 W/m 9,4 C 9,9 C 6,4 km/h (2 Bft) 100,00 %
31.03.2016 09:18 9,9 C 97 % 1011,0 hPa 0,0 l/m 3,5 km/h (1 Bft) O 81 1 min 0,000 mm 0,9 UV-I 337 W/m 9,4 C 9,9 C 4,8 km/h (1 Bft) 100,00 %
31.03.2016 09:19 10,0 C 96 % 1011,0 hPa 0,0 l/m 5,0 km/h (1 Bft) O-NO 76 1 min 0,000 mm 0,9 UV-I 346 W/m 9,4 C 10,0 C 6,4 km/h (2 Bft) 100,00 %
31.03.2016 09:20 10,1 C 96 % 1010,9 hPa 0,0 l/m 5,1 km/h (1 Bft) O-NO 78 1 min 0,000 mm 1,0 UV-I 386 W/m 9,5 C 10,1 C 6,4 km/h (2 Bft) 100,00 %
31.03.2016 09:21 10,1 C 96 % 1010,9 hPa 0,0 l/m 5,2 km/h (1 Bft) O-NO 76 1 min 0,000 mm 1,0 UV-I 416 W/m 9,5 C 10,1 C 6,4 km/h (2 Bft) 100,00 %
31.03.2016 09:22 10,2 C 95 % 1010,9 hPa 0,0 l/m 5,3 km/h (1 Bft) O-NO 66 1 min 0,000 mm 1,0 UV-I 409 W/m 9,4 C 10,2 C 6,4 km/h (2 Bft) 95,83 %
31.03.2016 09:23 10,2 C 95 % 1010,9 hPa 0,0 l/m 5,2 km/h (1 Bft) O 81 1 min 0,000 mm 1,0 UV-I 420 W/m 9,4 C 10,2 C 8,0 km/h (2 Bft) 100,00 %
31.03.2016 09:24 10,3 C 95 % 1010,8 hPa 0,0 l/m 5,4 km/h (1 Bft) O-NO 70 1 min 0,000 mm 1,0 UV-I 410 W/m 9,5 C 10,3 C 8,0 km/h (2 Bft) 100,00 %
31.03.2016 09:25 10,3 C 95 % 1010,9 hPa 0,0 l/m 5,6 km/h (1 Bft) O-NO 64 1 min 0,000 mm 1,0 UV-I 396 W/m 9,5 C 10,3 C 8,0 km/h (2 Bft) 92,31 %
31.03.2016 09:26 10,4 C 94 % 1010,8 hPa 0,0 l/m 5,7 km/h (1 Bft) NO 43 1 min 0,000 mm 1,1 UV-I 400 W/m 9,5 C 10,4 C 8,0 km/h (2 Bft) 95,83 %
31.03.2016 09:27 10,5 C 94 % 1010,8 hPa 0,0 l/m 5,0 km/h (1 Bft) O 86 1 min 0,000 mm 1,1 UV-I 399 W/m 9,6 C 10,5 C 6,4 km/h (2 Bft) 100,00 %
31.03.2016 09:28 10,6 C 94 % 1010,8 hPa 0,0 l/m 6,2 km/h (2 Bft) O-NO 66 1 min 0,000 mm 1,1 UV-I 396 W/m 9,7 C 10,6 C 8,0 km/h (2 Bft) 100,00 %
31.03.2016 09:29 10,6 C 93 % 1010,8 hPa 0,0 l/m 5,5 km/h (1 Bft) O-NO 75 1 min 0,000 mm 1,1 UV-I 406 W/m 9,5 C 10,6 C 8,0 km/h (2 Bft) 100,00 %
31.03.2016 09:30 10,6 C 93 % 1010,8 hPa 0,0 l/m 4,2 km/h (1 Bft) O-NO 76 1 min 0,000 mm 1,1 UV-I 401 W/m 9,5 C 10,6 C 6,4 km/h (2 Bft) 100,00 %
31.03.2016 09:31 10,7 C 93 % 1010,8 hPa 0,0 l/m 5,9 km/h (2 Bft) NO 37 1 min 0,000 mm 1,1 UV-I 410 W/m 9,6 C 10,7 C 8,0 km/h (2 Bft) 100,00 %
31.03.2016 09:32 10,8 C 93 % 1010,8 hPa 0,0 l/m 6,5 km/h (2 Bft) NO 55 1 min 0,000 mm 1,2 UV-I 431 W/m 9,7 C 10,8 C 9,7 km/h (2 Bft) 100,00 %
31.03.2016 09:33 10,8 C 93 % 1010,8 hPa 0,0 l/m 5,8 km/h (2 Bft) NO 55 1 min 0,000 mm 1,2 UV-I 440 W/m 9,7 C 10,8 C 6,4 km/h (2 Bft) 100,00 %
31.03.2016 09:34 10,8 C 92 % 1010,8 hPa 0,0 l/m 4,2 km/h (1 Bft) NO 56 1 min 0,000 mm 1,2 UV-I 443 W/m 9,6 C 10,8 C 6,4 km/h (2 Bft) 100,00 %
31.03.2016 09:35 10,8 C 92 % 1010,8 hPa 0,0 l/m 5,8 km/h (2 Bft) NO 54 1 min 0,000 mm 1,2 UV-I 434 W/m 9,6 C 10,8 C 6,4 km/h (2 Bft) 100,00 %
31.03.2016 09:36 10,9 C 92 % 1010,8 hPa 0,0 l/m 5,9 km/h (2 Bft) O-NO 57 1 min 0,000 mm 1,2 UV-I 429 W/m 9,7 C 10,9 C 8,0 km/h (2 Bft) 100,00 %
31.03.2016 09:37 10,9 C 92 % 1010,8 hPa 0,0 l/m 4,8 km/h (1 Bft) NO 53 1 min 0,000 mm 1,3 UV-I 438 W/m 9,7 C 10,9 C 6,4 km/h (2 Bft) 100,00 %
31.03.2016 09:38 11,1 C 92 % 1010,8 hPa 0,0 l/m 4,9 km/h (1 Bft) O-NO 62 1 min 0,000 mm 1,3 UV-I 450 W/m 9,8 C 11,1 C 6,4 km/h (2 Bft) 100,00 %
31.03.2016 09:39 11,1 C 91 % 1010,8 hPa 0,0 l/m 4,1 km/h (1 Bft) NO 53 1 min 0,000 mm 1,3 UV-I 447 W/m 9,7 C 11,1 C 6,4 km/h (2 Bft) 100,00 %
31.03.2016 09:40 11,2 C 91 % 1010,8 hPa 0,0 l/m 3,8 km/h (1 Bft) O-NO 62 1 min 0,000 mm 1,3 UV-I 464 W/m 9,8 C 11,2 C 4,8 km/h (1 Bft) 100,00 %
31.03.2016 09:41 11,3 C 91 % 1010,8 hPa 0,0 l/m 6,0 km/h (2 Bft) NO 41 1 min 0,000 mm 1,3 UV-I 469 W/m 9,9 C 11,3 C 6,4 km/h (2 Bft) 100,00 %
31.03.2016 09:42 11,3 C 91 % 1010,8 hPa 0,0 l/m 6,8 km/h (2 Bft) NO 44 1 min 0,000 mm 1,4 UV-I 464 W/m 9,9 C 11,0 C 8,0 km/h (2 Bft) 100,00 %
31.03.2016 09:43 11,4 C 90 % 1010,8 hPa 0,0 l/m 5,4 km/h (1 Bft) NO 38 1 min 0,000 mm 1,4 UV-I 469 W/m 9,8 C 11,4 C 8,0 km/h (2 Bft) 100,00 %
31.03.2016 09:44 11,4 C 90 % 1010,8 hPa 0,0 l/m 5,0 km/h (1 Bft) N-NO 29 1 min 0,000 mm 1,4 UV-I 475 W/m 9,8 C 11,4 C 6,4 km/h (2 Bft) 100,00 %
31.03.2016 09:45 11,4 C 90 % 1010,8 hPa 0,0 l/m 4,9 km/h (1 Bft) NO 51 1 min 0,000 mm 1,3 UV-I 431 W/m 9,8 C 11,4 C 6,4 km/h (2 Bft) 100,00 %
31.03.2016 09:46 11,4 C 90 % 1010,7 hPa 0,0 l/m 5,5 km/h (1 Bft) O-NO 63 1 min 0,000 mm 1,4 UV-I 441 W/m 9,8 C 11,4 C 6,4 km/h (2 Bft) 100,00 %
31.03.2016 09:47 11,5 C 89 % 1010,8 hPa 0,0 l/m 4,7 km/h (1 Bft) NO 47 1 min 0,000 mm 1,4 UV-I 455 W/m 9,8 C 11,5 C 8,0 km/h (2 Bft) 100,00 %
31.03.2016 09:48 11,6 C 90 % 1010,8 hPa 0,0 l/m 3,8 km/h (1 Bft) NO 44 1 min 0,000 mm 1,4 UV-I 462 W/m 10,0 C 11,6 C 6,4 km/h (2 Bft) 100,00 %
31.03.2016 09:49 11,7 C 90 % 1010,8 hPa 0,0 l/m 4,6 km/h (1 Bft) O-NO 57 1 min 0,000 mm 1,4 UV-I 478 W/m 10,1 C 11,7 C 6,4 km/h (2 Bft) 100,00 %
31.03.2016 09:50 11,7 C 89 % 1010,8 hPa 0,0 l/m 5,1 km/h (1 Bft) O-NO 57 1 min 0,000 mm 1,5 UV-I 500 W/m 9,9 C 11,7 C 6,4 km/h (2 Bft) 100,00 %
31.03.2016 09:51 11,7 C 89 % 1010,8 hPa 0,0 l/m 4,4 km/h (1 Bft) NO 55 1 min 0,000 mm 1,6 UV-I 528 W/m 9,9 C 11,7 C 8,0 km/h (2 Bft) 100,00 %
31.03.2016 09:52 11,8 C 89 % 1010,8 hPa 0,0 l/m 4,2 km/h (1 Bft) N-NO 12 1 min 0,000 mm 1,6 UV-I 539 W/m 10,0 C 11,8 C 6,4 km/h (2 Bft) 100,00 %
31.03.2016 09:53 12,0 C 90 % 1010,8 hPa 0,0 l/m 6,7 km/h (2 Bft) NO 35 1 min 0,000 mm 1,6 UV-I 536 W/m 10,4 C 11,8 C 9,7 km/h (2 Bft) 100,00 %
31.03.2016 09:54 12,1 C 90 % 1010,8 hPa 0,0 l/m 4,7 km/h (1 Bft) NO 40 1 min 0,000 mm 1,6 UV-I 536 W/m 10,5 C 12,1 C 6,4 km/h (2 Bft) 100,00 %
31.03.2016 09:55 12,2 C 89 % 1010,7 hPa 0,0 l/m 4,3 km/h (1 Bft) NO 35 1 min 0,000 mm 1,7 UV-I 541 W/m 10,4 C 12,2 C 4,8 km/h (1 Bft) 98,55 %
31.03.2016 09:56 12,2 C 89 % 1010,7 hPa 0,0 l/m 1,9 km/h (1 Bft) N-NO 28 1 min 0,000 mm 1,7 UV-I 545 W/m 10,4 C 12,2 C 4,8 km/h (1 Bft) 100,00 %
31.03.2016 09:57 12,3 C 90 % 1010,7 hPa 0,0 l/m 2,4 km/h (1 Bft) N-NO 28 1 min 0,000 mm 1,7 UV-I 540 W/m 10,7 C 12,3 C 4,8 km/h (1 Bft) 100,00 %
31.03.2016 09:58 12,3 C 88 % 1010,7 hPa 0,0 l/m 2,7 km/h (1 Bft) N-NO 28 1 min 0,000 mm 1,7 UV-I 542 W/m 10,4 C 12,3 C 3,2 km/h (1 Bft) 100,00 %
31.03.2016 09:59 12,3 C 86 % 1010,7 hPa 0,0 l/m 4,5 km/h (1 Bft) NO 36 1 min 0,000 mm 1,7 UV-I 547 W/m 10,0 C 12,3 C 6,4 km/h (2 Bft) 100,00 %
31.03.2016 10:00 12,4 C 86 % 1010,7 hPa 0,0 l/m 4,4 km/h (1 Bft) O-NO 61 1 min 0,177 mm 1,8 UV-I 548 W/m 10,1 C 12,4 C 8,0 km/h (2 Bft) 96,30 %
31.03.2016 10:02 12,3 C 83 % 1010,7 hPa 0,0 l/m 6,4 km/h (2 Bft) NO 54 2 min 0,000 mm 1,8 UV-I 543 W/m 9,5 C 12,3 C 9,7 km/h (2 Bft) 100,00 %
31.03.2016 10:03 12,4 C 85 % 1010,7 hPa 0,0 l/m 3,2 km/h (1 Bft) NO 54 1 min 0,000 mm 1,8 UV-I 540 W/m 9,9 C 12,4 C 6,4 km/h (2 Bft) 100,00 %
31.03.2016 10:04 12,4 C 84 % 1010,7 hPa 0,0 l/m 3,1 km/h (1 Bft) NO 52 1 min 0,000 mm 1,8 UV-I 530 W/m 9,8 C 12,4 C 4,8 km/h (1 Bft) 100,00 %
31.03.2016 10:05 12,4 C 84 % 1010,7 hPa 0,0 l/m 2,7 km/h (1 Bft) N-NO 30 1 min 0,000 mm 1,8 UV-I 520 W/m 9,8 C 12,4 C 4,8 km/h (1 Bft) 96,15 %
31.03.2016 10:06 12,5 C 85 % 1010,7 hPa 0,0 l/m 5,3 km/h (1 Bft) NO 46 1 min 0,000 mm 1,8 UV-I 515 W/m 10,0 C 12,5 C 9,7 km/h (2 Bft) 100,00 %
31.03.2016 10:07 12,6 C 85 % 1010,7 hPa 0,0 l/m 6,4 km/h (2 Bft) N-NO 32 1 min 0,000 mm 1,8 UV-I 513 W/m 10,1 C 12,6 C 8,0 km/h (2 Bft) 100,00 %
31.03.2016 10:08 12,6 C 84 % 1010,7 hPa 0,0 l/m 6,7 km/h (2 Bft) O-NO 57 1 min 0,000 mm 1,9 UV-I 505 W/m 10,0 C 12,4 C 8,0 km/h (2 Bft) 100,00 %
31.03.2016 10:09 12,6 C 83 % 1010,7 hPa 0,0 l/m 6,5 km/h (2 Bft) O-NO 58 1 min 0,000 mm 1,9 UV-I 509 W/m 9,8 C 12,6 C 8,0 km/h (2 Bft) 100,00 %
31.03.2016 10:10 12,6 C 83 % 1010,6 hPa 0,0 l/m 5,4 km/h (1 Bft) O-NO 65 1 min 0,000 mm 1,9 UV-I 512 W/m 9,8 C 12,6 C 6,4 km/h (2 Bft) 100,00 %
31.03.2016 10:11 12,7 C 83 % 1010,7 hPa 0,0 l/m 5,6 km/h (1 Bft) O-NO 70 1 min 0,000 mm 1,9 UV-I 516 W/m 9,9 C 12,7 C 8,0 km/h (2 Bft) 100,00 %
31.03.2016 10:12 12,7 C 85 % 1010,6 hPa 0,0 l/m 6,1 km/h (2 Bft) NO 41 1 min 0,000 mm 1,9 UV-I 522 W/m 10,2 C 12,7 C 12,9 km/h (3 Bft) 100,00 %
31.03.2016 10:13 12,8 C 84 % 1010,6 hPa 0,0 l/m 6,4 km/h (2 Bft) NO 44 1 min 0,000 mm 1,9 UV-I 532 W/m 10,2 C 12,8 C 8,0 km/h (2 Bft) 100,00 %
31.03.2016 10:14 12,8 C 83 % 1010,6 hPa 0,0 l/m 4,1 km/h (1 Bft) NO 43 1 min 0,000 mm 1,9 UV-I 539 W/m 10,0 C 12,8 C 6,4 km/h (2 Bft) 100,00 %
31.03.2016 10:15 12,8 C 84 % 1010,6 hPa 0,0 l/m 4,9 km/h (1 Bft) O-NO 61 1 min 0,000 mm 1,9 UV-I 533 W/m 10,2 C 12,8 C 8,0 km/h (2 Bft) 100,00 %
31.03.2016 10:16 12,9 C 83 % 1010,6 hPa 0,0 l/m 5,8 km/h (2 Bft) NO 46 1 min 0,000 mm 2,0 UV-I 521 W/m 10,1 C 12,9 C 8,0 km/h (2 Bft) 100,00 %
31.03.2016 10:17 12,9 C 83 % 1010,6 hPa 0,0 l/m 5,4 km/h (1 Bft) N-NO 32 1 min 0,000 mm 1,9 UV-I 500 W/m 10,1 C 12,9 C 8,0 km/h (2 Bft) 100,00 %
31.03.2016 10:18 13,1 C 84 % 1010,6 hPa 0,0 l/m 5,4 km/h (1 Bft) NO 38 1 min 0,000 mm 1,9 UV-I 480 W/m 10,5 C 13,1 C 8,0 km/h (2 Bft) 100,00 %
31.03.2016 10:19 13,1 C 83 % 1010,6 hPa 0,0 l/m 6,8 km/h (2 Bft) NO 36 1 min 0,000 mm 1,9 UV-I 467 W/m 10,3 C 12,9 C 9,7 km/h (2 Bft) 100,00 %
31.03.2016 10:20 13,1 C 82 % 1010,6 hPa 0,0 l/m 4,3 km/h (1 Bft) NO 36 1 min 0,000 mm 1,9 UV-I 462 W/m 10,1 C 13,1 C 6,4 km/h (2 Bft) 100,00 %
31.03.2016 10:21 13,1 C 83 % 1010,6 hPa 0,0 l/m 3,2 km/h (1 Bft) N-NO 16 1 min 0,000 mm 1,9 UV-I 458 W/m 10,3 C 13,1 C 8,0 km/h (2 Bft) 100,00 %
31.03.2016 10:22 13,2 C 84 % 1010,6 hPa 0,0 l/m 5,6 km/h (1 Bft) NO 40 1 min 0,000 mm 1,9 UV-I 477 W/m 10,6 C 13,2 C 9,7 km/h (2 Bft) 100,00 %
31.03.2016 10:23 13,2 C 84 % 1010,6 hPa 0,0 l/m 6,2 km/h (2 Bft) NO 48 1 min 0,000 mm 2,0 UV-I 496 W/m 10,6 C 13,2 C 8,0 km/h (2 Bft) 100,00 %
31.03.2016 10:24 13,3 C 81 % 1010,6 hPa 0,0 l/m 3,8 km/h (1 Bft) NO 47 1 min 0,000 mm 2,0 UV-I 509 W/m 10,1 C 13,3 C 6,4 km/h (2 Bft) 100,00 %
31.03.2016 10:25 13,3 C 80 % 1010,6 hPa 0,0 l/m 5,5 km/h (1 Bft) NO 43 1 min 0,000 mm 2,1 UV-I 525 W/m 9,9 C 13,3 C 6,4 km/h (2 Bft) 100,00 %
31.03.2016 10:26 13,3 C 79 % 1010,6 hPa 0,0 l/m 4,0 km/h (1 Bft) O-NO 58 1 min 0,000 mm 2,1 UV-I 521 W/m 9,7 C 13,3 C 8,0 km/h (2 Bft) 100,00 %
31.03.2016 10:27 13,2 C 78 % 1010,6 hPa 0,0 l/m 1,7 km/h (1 Bft) O-NO 58 1 min 0,000 mm 2,1 UV-I 523 W/m 9,4 C 13,2 C 3,2 km/h (1 Bft) 100,00 %
31.03.2016 10:28 13,2 C 80 % 1010,6 hPa 0,0 l/m 5,1 km/h (1 Bft) NO 49 1 min 0,000 mm 2,2 UV-I 542 W/m 9,8 C 13,2 C 8,0 km/h (2 Bft) 100,00 %
31.03.2016 10:29 13,2 C 79 % 1010,6 hPa 0,0 l/m 3,9 km/h (1 Bft) NO 50 1 min 0,000 mm 2,2 UV-I 574 W/m 9,6 C 13,2 C 4,8 km/h (1 Bft) 100,00 %
31.03.2016 10:30 13,3 C 80 % 1010,6 hPa 0,0 l/m 6,4 km/h (2 Bft) O-NO 65 1 min 0,000 mm 2,2 UV-I 600 W/m 9,9 C 13,3 C 9,7 km/h (2 Bft) 100,00 %
31.03.2016 10:31 13,3 C 79 % 1010,6 hPa 0,0 l/m 4,8 km/h (1 Bft) O-NO 63 1 min 0,000 mm 2,2 UV-I 574 W/m 9,7 C 13,3 C 6,4 km/h (2 Bft) 100,00 %
31.03.2016 10:32 13,6 C 82 % 1010,6 hPa 0,0 l/m 5,4 km/h (1 Bft) NO 47 1 min 0,000 mm 2,1 UV-I 502 W/m 10,6 C 13,6 C 8,0 km/h (2 Bft) 95,65 %
31.03.2016 10:33 13,6 C 80 % 1010,6 hPa 0,0 l/m 6,0 km/h (2 Bft) NO 36 1 min 0,000 mm 2,0 UV-I 462 W/m 10,2 C 13,6 C 8,0 km/h (2 Bft) 100,00 %
31.03.2016 10:34 13,7 C 80 % 1010,6 hPa 0,0 l/m 8,4 km/h (2 Bft) NO 40 1 min 0,000 mm 2,1 UV-I 479 W/m 10,3 C 12,5 C 11,3 km/h (2 Bft) 96,30 %
31.03.2016 10:35 13,8 C 79 % 1010,6 hPa 0,0 l/m 9,8 km/h (2 Bft) NO 44 1 min 0,000 mm 2,1 UV-I 469 W/m 10,2 C 11,9 C 11,3 km/h (2 Bft) 100,00 %
31.03.2016 10:36 13,8 C 80 % 1010,6 hPa 0,0 l/m 7,7 km/h (2 Bft) NO 40 1 min 0,000 mm 2,1 UV-I 459 W/m 10,4 C 13,0 C 9,7 km/h (2 Bft) 96,67 %
31.03.2016 10:37 13,8 C 79 % 1010,6 hPa 0,0 l/m 5,0 km/h (1 Bft) NO 40 1 min 0,000 mm 2,3 UV-I 459 W/m 10,2 C 13,8 C 6,4 km/h (2 Bft) 95,65 %
31.03.2016 10:38 13,8 C 80 % 1010,6 hPa 0,0 l/m 8,0 km/h (2 Bft) NO 42 1 min 0,000 mm 2,2 UV-I 565 W/m 10,4 C 12,8 C 11,3 km/h (2 Bft) 96,30 %
31.03.2016 10:39 13,9 C 82 % 1010,6 hPa 0,0 l/m 8,0 km/h (2 Bft) NO 44 1 min 0,000 mm 2,2 UV-I 548 W/m 10,9 C 12,9 C 9,7 km/h (2 Bft) 100,00 %
31.03.2016 10:40 14,0 C 79 % 1010,5 hPa 0,0 l/m 6,8 km/h (2 Bft) NO 48 1 min 0,000 mm 2,1 UV-I 554 W/m 10,4 C 13,8 C 11,3 km/h (2 Bft) 96,30 %
31.03.2016 10:41 14,0 C 79 % 1010,5 hPa 0,0 l/m 7,0 km/h (2 Bft) NO 49 1 min 0,000 mm 2,0 UV-I 452 W/m 10,4 C 13,6 C 9,7 km/h (2 Bft) 98,63 %
31.03.2016 10:42 13,9 C 77 % 1010,6 hPa 0,0 l/m 4,2 km/h (1 Bft) NO 42 1 min 0,000 mm 2,0 UV-I 384 W/m 9,9 C 13,9 C 6,4 km/h (2 Bft) 97,56 %
31.03.2016 10:43 13,9 C 77 % 1010,5 hPa 0,0 l/m 4,0 km/h (1 Bft) NO 50 1 min 0,000 mm 2,1 UV-I 451 W/m 9,9 C 13,9 C 8,0 km/h (2 Bft) 91,30 %
31.03.2016 10:44 13,9 C 79 % 1010,5 hPa 0,0 l/m 5,3 km/h (1 Bft) NO 44 1 min 0,000 mm 2,1 UV-I 463 W/m 10,3 C 13,9 C 6,4 km/h (2 Bft) 100,00 %
31.03.2016 10:45 13,9 C 78 % 1010,6 hPa 0,0 l/m 6,5 km/h (2 Bft) O-NO 63 1 min 0,000 mm 2,2 UV-I 483 W/m 10,1 C 13,9 C 8,0 km/h (2 Bft) 96,15 %
31.03.2016 10:46 13,9 C 77 % 1010,5 hPa 0,0 l/m 5,3 km/h (1 Bft) NO 46 1 min 0,000 mm 2,3 UV-I 536 W/m 9,9 C 13,9 C 8,0 km/h (2 Bft) 100,00 %
31.03.2016 10:47 13,9 C 77 % 1010,5 hPa 0,0 l/m 8,7 km/h (2 Bft) NO 44 1 min 0,000 mm 2,4 UV-I 585 W/m 9,9 C 12,6 C 11,3 km/h (2 Bft) 96,15 %
31.03.2016 10:48 14,0 C 77 % 1010,5 hPa 0,0 l/m 5,3 km/h (1 Bft) NO 49 1 min 0,000 mm 2,4 UV-I 610 W/m 10,0 C 14,0 C 6,4 km/h (2 Bft) 100,00 %
31.03.2016 10:49 14,1 C 77 % 1010,5 hPa 0,0 l/m 6,0 km/h (2 Bft) NO 54 1 min 0,000 mm 2,4 UV-I 608 W/m 10,1 C 14,1 C 8,0 km/h (2 Bft) 96,15 %
31.03.2016 10:50 14,1 C 76 % 1010,6 hPa 0,0 l/m 7,3 km/h (2 Bft) NO 48 1 min 0,000 mm 2,4 UV-I 582 W/m 9,9 C 13,6 C 12,9 km/h (3 Bft) 95,83 %
31.03.2016 10:51 14,1 C 76 % 1010,4 hPa 0,0 l/m 9,5 km/h (2 Bft) NO 34 1 min 0,000 mm 2,2 UV-I 518 W/m 9,9 C 12,4 C 11,3 km/h (2 Bft) 100,00 %
31.03.2016 10:52 14,2 C 76 % 1010,4 hPa 0,0 l/m 7,0 km/h (2 Bft) NO 55 1 min 0,000 mm 2,2 UV-I 478 W/m 10,0 C 13,8 C 9,7 km/h (2 Bft) 95,83 %
31.03.2016 10:53 14,2 C 76 % 1010,4 hPa 0,0 l/m 8,6 km/h (2 Bft) N-NO 31 1 min 0,000 mm 2,2 UV-I 465 W/m 10,0 C 12,9 C 11,3 km/h (2 Bft) 100,00 %
31.03.2016 10:54 14,2 C 76 % 1010,4 hPa 0,0 l/m 7,7 km/h (2 Bft) O-NO 78 1 min 0,000 mm 2,1 UV-I 454 W/m 10,0 C 13,4 C 11,3 km/h (2 Bft) 95,65 %
31.03.2016 10:55 14,1 C 76 % 1010,4 hPa 0,0 l/m 7,4 km/h (2 Bft) NO 53 1 min 0,000 mm 2,1 UV-I 391 W/m 9,9 C 13,5 C 9,7 km/h (2 Bft) 100,00 %
31.03.2016 10:56 14,1 C 76 % 1010,4 hPa 0,0 l/m 8,3 km/h (2 Bft) NO 42 1 min 0,000 mm 2,2 UV-I 429 W/m 9,9 C 13,0 C 9,7 km/h (2 Bft) 96,55 %
31.03.2016 10:57 14,1 C 76 % 1010,3 hPa 0,0 l/m 6,4 km/h (2 Bft) NO 46 1 min 0,000 mm 2,3 UV-I 468 W/m 9,9 C 14,1 C 9,7 km/h (2 Bft) 95,83 %
31.03.2016 10:58 14,1 C 75 % 1010,4 hPa 0,0 l/m 7,8 km/h (2 Bft) O-NO 69 1 min 0,000 mm 2,3 UV-I 516 W/m 9,7 C 13,3 C 12,9 km/h (3 Bft) 100,00 %
31.03.2016 10:59 14,2 C 76 % 1010,4 hPa 0,0 l/m 5,7 km/h (1 Bft) NO 53 1 min 0,000 mm 2,4 UV-I 504 W/m 10,0 C 14,2 C 9,7 km/h (2 Bft) 100,00 %
31.03.2016 11:00 14,2 C 77 % 1010,4 hPa 0,0 l/m 6,2 km/h (2 Bft) NO 36 1 min 0,280 mm 2,4 UV-I 516 W/m 10,2 C 14,2 C 9,7 km/h (2 Bft) 96,15 %
31.03.2016 11:02 14,4 C 79 % 1010,4 hPa 0,0 l/m 6,0 km/h (2 Bft) N-NO 30 2 min 0,000 mm 2,5 UV-I 574 W/m 10,8 C 14,4 C 9,7 km/h (2 Bft) 98,11 %
31.03.2016 11:03 14,5 C 80 % 1010,4 hPa 0,0 l/m 8,0 km/h (2 Bft) N-NO 33 1 min 0,000 mm 2,6 UV-I 581 W/m 11,1 C 13,6 C 12,9 km/h (3 Bft) 91,67 %
31.03.2016 11:04 14,6 C 78 % 1010,3 hPa 0,0 l/m 10,3 km/h (2 Bft) NO 37 1 min 0,000 mm 2,6 UV-I 586 W/m 10,8 C 12,5 C 14,5 km/h (3 Bft) 100,00 %
31.03.2016 11:05 14,6 C 77 % 1010,3 hPa 0,0 l/m 7,1 km/h (2 Bft) N-NO 23 1 min 0,000 mm 2,6 UV-I 582 W/m 10,6 C 14,2 C 9,7 km/h (2 Bft) 100,00 %
31.03.2016 11:06 14,7 C 77 % 1010,3 hPa 0,0 l/m 8,4 km/h (2 Bft) N-NO 30 1 min 0,000 mm 2,6 UV-I 570 W/m 10,7 C 13,6 C 12,9 km/h (3 Bft) 100,00 %
31.03.2016 11:07 14,7 C 77 % 1010,3 hPa 0,0 l/m 7,1 km/h (2 Bft) N-NO 24 1 min 0,000 mm 2,6 UV-I 570 W/m 10,7 C 14,3 C 11,3 km/h (2 Bft) 95,83 %
31.03.2016 11:08 14,7 C 78 % 1010,3 hPa 0,0 l/m 5,0 km/h (1 Bft) N-NO 24 1 min 0,000 mm 2,7 UV-I 612 W/m 10,9 C 14,7 C 9,7 km/h (2 Bft) 100,00 %
31.03.2016 11:09 14,8 C 78 % 1010,3 hPa 0,0 l/m 5,7 km/h (1 Bft) O-NO 67 1 min 0,000 mm 2,7 UV-I 589 W/m 11,0 C 14,8 C 14,5 km/h (3 Bft) 100,00 %
31.03.2016 11:10 14,8 C 76 % 1010,3 hPa 0,0 l/m 8,2 km/h (2 Bft) O 81 1 min 0,000 mm 2,7 UV-I 588 W/m 10,6 C 13,8 C 12,9 km/h (3 Bft) 100,00 %
31.03.2016 11:11 14,9 C 73 % 1010,3 hPa 0,0 l/m 9,9 km/h (2 Bft) O-NO 68 1 min 0,000 mm 2,7 UV-I 592 W/m 10,1 C 13,1 C 14,5 km/h (3 Bft) 100,00 %
31.03.2016 11:12 14,9 C 74 % 1010,4 hPa 0,0 l/m 8,0 km/h (2 Bft) O 92 1 min 0,000 mm 2,7 UV-I 592 W/m 10,3 C 14,0 C 9,7 km/h (2 Bft) 96,30 %
31.03.2016 11:13 14,9 C 75 % 1010,4 hPa 0,0 l/m 6,7 km/h (2 Bft) NO 40 1 min 0,000 mm 2,8 UV-I 583 W/m 10,5 C 14,7 C 9,7 km/h (2 Bft) 100,00 %
31.03.2016 11:14 14,9 C 74 % 1010,3 hPa 0,0 l/m 6,3 km/h (2 Bft) NO 39 1 min 0,000 mm 2,7 UV-I 584 W/m 10,3 C 14,9 C 9,7 km/h (2 Bft) 100,00 %
31.03.2016 11:15 15,0 C 74 % 1010,3 hPa 0,0 l/m 8,0 km/h (2 Bft) O-NO 69 1 min 0,000 mm 2,7 UV-I 579 W/m 10,4 C 14,1 C 11,3 km/h (2 Bft) 100,00 %
31.03.2016 11:16 15,0 C 75 % 1010,3 hPa 0,0 l/m 8,8 km/h (2 Bft) O-NO 66 1 min 0,000 mm 2,8 UV-I 601 W/m 10,6 C 13,7 C 11,3 km/h (2 Bft) 96,67 %
31.03.2016 11:17 15,0 C 74 % 1010,3 hPa 0,0 l/m 9,2 km/h (2 Bft) O-NO 63 1 min 0,000 mm 2,8 UV-I 603 W/m 10,4 C 13,5 C 12,9 km/h (3 Bft) 100,00 %
31.03.2016 11:18 14,9 C 74 % 1010,3 hPa 0,0 l/m 9,6 km/h (2 Bft) NO 42 1 min 0,000 mm 2,8 UV-I 600 W/m 10,3 C 13,2 C 14,5 km/h (3 Bft) 100,00 %
31.03.2016 11:19 15,0 C 77 % 1010,3 hPa 0,0 l/m 10,2 km/h (2 Bft) NO 38 1 min 0,000 mm 2,7 UV-I 557 W/m 11,0 C 13,0 C 11,3 km/h (2 Bft) 96,55 %
31.03.2016 11:20 15,0 C 77 % 1010,3 hPa 0,0 l/m 8,0 km/h (2 Bft) NO 50 1 min 0,000 mm 2,8 UV-I 586 W/m 11,0 C 14,1 C 11,3 km/h (2 Bft) 100,00 %
31.03.2016 11:21 15,1 C 75 % 1010,3 hPa 0,0 l/m 6,6 km/h (2 Bft) NO 49 1 min 0,000 mm 2,8 UV-I 597 W/m 10,7 C 15,0 C 9,7 km/h (2 Bft) 100,00 %
31.03.2016 11:22 15,1 C 75 % 1010,3 hPa 0,0 l/m 8,0 km/h (2 Bft) O-NO 64 1 min 0,000 mm 2,9 UV-I 602 W/m 10,7 C 14,2 C 9,7 km/h (2 Bft) 100,00 %
31.03.2016 11:23 15,1 C 73 % 1010,3 hPa 0,0 l/m 7,7 km/h (2 Bft) NO 56 1 min 0,000 mm 3,0 UV-I 627 W/m 10,3 C 14,4 C 9,7 km/h (2 Bft) 100,00 %
31.03.2016 11:24 15,1 C 75 % 1010,3 hPa 0,0 l/m 6,4 km/h (2 Bft) NO 54 1 min 0,000 mm 3,0 UV-I 636 W/m 10,7 C 15,1 C 8,0 km/h (2 Bft) 100,00 %
31.03.2016 11:25 15,2 C 75 % 1010,3 hPa 0,0 l/m 7,2 km/h (2 Bft) O-NO 77 1 min 0,000 mm 2,9 UV-I 615 W/m 10,8 C 14,8 C 12,9 km/h (3 Bft) 100,00 %
31.03.2016 11:26 15,2 C 75 % 1010,3 hPa 0,0 l/m 9,7 km/h (2 Bft) O 81 1 min 0,000 mm 2,9 UV-I 582 W/m 10,8 C 13,5 C 14,5 km/h (3 Bft) 96,67 %
31.03.2016 11:27 15,2 C 73 % 1010,3 hPa 0,0 l/m 8,5 km/h (2 Bft) NO 53 1 min 0,000 mm 2,8 UV-I 537 W/m 10,4 C 14,1 C 12,9 km/h (3 Bft) 100,00 %
31.03.2016 11:28 15,2 C 75 % 1010,3 hPa 0,0 l/m 6,1 km/h (2 Bft) NO 55 1 min 0,000 mm 2,7 UV-I 456 W/m 10,8 C 15,2 C 9,7 km/h (2 Bft) 95,83 %
31.03.2016 11:29 15,2 C 73 % 1010,3 hPa 0,0 l/m 7,3 km/h (2 Bft) O-NO 58 1 min 0,000 mm 2,9 UV-I 422 W/m 10,4 C 14,7 C 9,7 km/h (2 Bft) 100,00 %
31.03.2016 11:30 15,2 C 73 % 1010,2 hPa 0,0 l/m 6,2 km/h (2 Bft) N-NO 32 1 min 0,000 mm 3,0 UV-I 588 W/m 10,4 C 15,2 C 9,7 km/h (2 Bft) 100,00 %
31.03.2016 11:31 15,3 C 75 % 1010,3 hPa 0,0 l/m 6,1 km/h (2 Bft) N-NO 22 1 min 0,000 mm 3,0 UV-I 627 W/m 10,9 C 15,3 C 9,7 km/h (2 Bft) 100,00 %
31.03.2016 11:32 15,3 C 75 % 1010,3 hPa 0,0 l/m 2,3 km/h (1 Bft) N-NO 24 1 min 0,000 mm 3,1 UV-I 628 W/m 10,9 C 15,3 C 3,2 km/h (1 Bft) 100,00 %
31.03.2016 11:33 15,3 C 76 % 1010,2 hPa 0,0 l/m 7,9 km/h (2 Bft) NO 53 1 min 0,000 mm 3,1 UV-I 631 W/m 11,1 C 14,5 C 11,3 km/h (2 Bft) 100,00 %
31.03.2016 11:34 15,4 C 72 % 1010,2 hPa 0,0 l/m 8,7 km/h (2 Bft) O-NO 65 1 min 0,000 mm 3,2 UV-I 654 W/m 10,4 C 14,2 C 12,9 km/h (3 Bft) 100,00 %
31.03.2016 11:35 15,4 C 71 % 1010,2 hPa 0,0 l/m 6,3 km/h (2 Bft) O-NO 66 1 min 0,000 mm 3,2 UV-I 672 W/m 10,2 C 15,4 C 9,7 km/h (2 Bft) 100,00 %
31.03.2016 11:36 15,4 C 74 % 1010,2 hPa 0,0 l/m 6,2 km/h (2 Bft) N-NO 32 1 min 0,000 mm 3,2 UV-I 673 W/m 10,8 C 15,4 C 8,0 km/h (2 Bft) 100,00 %
31.03.2016 11:37 15,6 C 75 % 1010,2 hPa 0,0 l/m 6,5 km/h (2 Bft) NO 49 1 min 0,000 mm 3,3 UV-I 670 W/m 11,2 C 15,6 C 9,7 km/h (2 Bft) 100,00 %
31.03.2016 11:38 15,6 C 74 % 1010,1 hPa 0,0 l/m 5,1 km/h (1 Bft) O-NO 73 1 min 0,000 mm 3,3 UV-I 666 W/m 11,0 C 15,6 C 8,0 km/h (2 Bft) 100,00 %
31.03.2016 11:39 15,7 C 74 % 1010,0 hPa 0,0 l/m 5,2 km/h (1 Bft) O-NO 57 1 min 0,000 mm 3,3 UV-I 668 W/m 11,1 C 15,7 C 6,4 km/h (2 Bft) 100,00 %
31.03.2016 11:40 15,7 C 73 % 1010,0 hPa 0,0 l/m 10,5 km/h (2 Bft) NO 49 1 min 0,000 mm 3,3 UV-I 664 W/m 10,9 C 13,7 C 14,5 km/h (3 Bft) 100,00 %
31.03.2016 11:41 15,7 C 72 % 1010,0 hPa 0,0 l/m 12,0 km/h (2 Bft) NO 40 1 min 0,000 mm 3,3 UV-I 660 W/m 10,7 C 13,1 C 16,1 km/h (3 Bft) 100,00 %
31.03.2016 11:42 15,7 C 71 % 1010,0 hPa 0,0 l/m 9,9 km/h (2 Bft) O-NO 67 1 min 0,000 mm 3,3 UV-I 656 W/m 10,5 C 13,9 C 14,5 km/h (3 Bft) 96,55 %
31.03.2016 11:43 15,7 C 72 % 1010,0 hPa 0,0 l/m 7,3 km/h (2 Bft) O-NO 71 1 min 0,000 mm 3,3 UV-I 665 W/m 10,7 C 15,2 C 12,9 km/h (3 Bft) 96,30 %
31.03.2016 11:44 15,7 C 72 % 1010,0 hPa 0,0 l/m 10,4 km/h (2 Bft) O 90 1 min 0,000 mm 3,4 UV-I 678 W/m 10,7 C 13,7 C 16,1 km/h (3 Bft) 100,00 %
31.03.2016 11:45 15,7 C 73 % 1010,0 hPa 0,0 l/m 8,1 km/h (2 Bft) N 5 1 min 0,000 mm 3,4 UV-I 678 W/m 10,9 C 14,8 C 16,1 km/h (3 Bft) 100,00 %
31.03.2016 11:46 15,8 C 75 % 1010,0 hPa 0,0 l/m 7,2 km/h (2 Bft) N-NO 16 1 min 0,000 mm 3,4 UV-I 685 W/m 11,4 C 15,4 C 12,9 km/h (3 Bft) 100,00 %
31.03.2016 11:47 15,9 C 74 % 1010,0 hPa 0,0 l/m 6,9 km/h (2 Bft) NO 42 1 min 0,000 mm 3,4 UV-I 683 W/m 11,3 C 15,6 C 9,7 km/h (2 Bft) 100,00 %
31.03.2016 11:48 16,0 C 75 % 1010,0 hPa 0,0 l/m 5,2 km/h (1 Bft) O-NO 63 1 min 0,000 mm 3,4 UV-I 688 W/m 11,6 C 16,0 C 9,7 km/h (2 Bft) 96,15 %
31.03.2016 11:49 16,1 C 72 % 1010,0 hPa 0,0 l/m 8,7 km/h (2 Bft) O-NO 63 1 min 0,000 mm 3,4 UV-I 682 W/m 11,0 C 14,9 C 11,3 km/h (2 Bft) 100,00 %
31.03.2016 11:50 16,1 C 72 % 1009,9 hPa 0,0 l/m 6,7 km/h (2 Bft) O-NO 77 1 min 0,000 mm 3,4 UV-I 684 W/m 11,0 C 16,0 C 9,7 km/h (2 Bft) 96,30 %
31.03.2016 11:51 16,1 C 72 % 1010,0 hPa 0,0 l/m 8,5 km/h (2 Bft) NO 55 1 min 0,000 mm 3,4 UV-I 687 W/m 11,0 C 15,0 C 14,5 km/h (3 Bft) 100,00 %
31.03.2016 11:52 16,0 C 72 % 1009,9 hPa 0,0 l/m 7,3 km/h (2 Bft) NO 44 1 min 0,000 mm 3,5 UV-I 687 W/m 11,0 C 15,5 C 12,9 km/h (3 Bft) 100,00 %
31.03.2016 11:53 16,1 C 72 % 1009,9 hPa 0,0 l/m 8,6 km/h (2 Bft) O-NO 58 1 min 0,000 mm 3,5 UV-I 687 W/m 11,0 C 15,0 C 12,9 km/h (3 Bft) 100,00 %
31.03.2016 11:54 16,1 C 72 % 1009,9 hPa 0,0 l/m 8,5 km/h (2 Bft) NO 55 1 min 0,000 mm 3,5 UV-I 686 W/m 11,0 C 15,0 C 14,5 km/h (3 Bft) 100,00 %
31.03.2016 11:55 16,1 C 73 % 1009,8 hPa 0,0 l/m 10,2 km/h (2 Bft) O-NO 63 1 min 0,000 mm 3,5 UV-I 696 W/m 11,3 C 14,2 C 14,5 km/h (3 Bft) 95,65 %
31.03.2016 11:56 16,1 C 72 % 1009,9 hPa 0,0 l/m 6,0 km/h (2 Bft) NO 48 1 min 0,000 mm 3,5 UV-I 702 W/m 11,0 C 16,1 C 8,0 km/h (2 Bft) 100,00 %
31.03.2016 11:57 16,1 C 76 % 1009,8 hPa 0,0 l/m 5,7 km/h (1 Bft) NO 43 1 min 0,000 mm 3,5 UV-I 703 W/m 11,9 C 16,1 C 8,0 km/h (2 Bft) 100,00 %
31.03.2016 11:58 16,3 C 75 % 1009,8 hPa 0,0 l/m 7,2 km/h (2 Bft) NO 49 1 min 0,000 mm 3,6 UV-I 703 W/m 11,9 C 15,9 C 12,9 km/h (3 Bft) 100,00 %
31.03.2016 11:59 16,3 C 75 % 1009,8 hPa 0,0 l/m 9,7 km/h (2 Bft) O-NO 67 1 min 0,000 mm 3,6 UV-I 705 W/m 11,9 C 14,7 C 16,1 km/h (3 Bft) 100,00 %
31.03.2016 12:00 16,3 C 71 % 1009,8 hPa 0,0 l/m 10,2 km/h (2 Bft) O-NO 59 1 min 0,355 mm 3,6 UV-I 701 W/m 11,0 C 14,5 C 14,5 km/h (3 Bft) 100,00 %
31.03.2016 12:02 16,2 C 71 % 1009,8 hPa 0,0 l/m 10,4 km/h (2 Bft) NO 53 2 min 0,000 mm 3,6 UV-I 681 W/m 10,9 C 14,3 C 14,5 km/h (3 Bft) 98,31 %
31.03.2016 12:03 16,2 C 74 % 1009,7 hPa 0,0 l/m 6,8 km/h (2 Bft) NO 53 1 min 0,000 mm 3,5 UV-I 676 W/m 11,6 C 16,0 C 9,7 km/h (2 Bft) 100,00 %
31.03.2016 12:04 16,3 C 71 % 1009,7 hPa 0,0 l/m 7,6 km/h (2 Bft) O-NO 74 1 min 0,000 mm 3,6 UV-I 692 W/m 11,0 C 15,7 C 11,3 km/h (2 Bft) 100,00 %
31.03.2016 12:05 16,3 C 71 % 1009,7 hPa 0,0 l/m 7,2 km/h (2 Bft) NO 46 1 min 0,000 mm 3,6 UV-I 694 W/m 11,0 C 15,9 C 14,5 km/h (3 Bft) 100,00 %
31.03.2016 12:06 16,3 C 71 % 1009,7 hPa 0,0 l/m 9,5 km/h (2 Bft) O-NO 65 1 min 0,000 mm 3,6 UV-I 699 W/m 11,0 C 14,8 C 14,5 km/h (3 Bft) 96,30 %
31.03.2016 12:07 16,3 C 69 % 1009,7 hPa 0,0 l/m 8,6 km/h (2 Bft) NO 36 1 min 0,000 mm 3,6 UV-I 704 W/m 10,6 C 15,2 C 11,3 km/h (2 Bft) 100,00 %
31.03.2016 12:08 16,3 C 72 % 1009,7 hPa 0,0 l/m 7,0 km/h (2 Bft) NO 51 1 min 0,000 mm 3,6 UV-I 707 W/m 11,2 C 16,0 C 9,7 km/h (2 Bft) 100,00 %
31.03.2016 12:09 16,3 C 71 % 1009,8 hPa 0,0 l/m 11,4 km/h (2 Bft) NO 49 1 min 0,000 mm 3,6 UV-I 708 W/m 11,0 C 14,0 C 14,5 km/h (3 Bft) 100,00 %
31.03.2016 12:10 16,3 C 72 % 1009,7 hPa 0,0 l/m 9,1 km/h (2 Bft) N-NO 30 1 min 0,000 mm 3,6 UV-I 701 W/m 11,2 C 14,9 C 14,5 km/h (3 Bft) 100,00 %
31.03.2016 12:11 16,4 C 74 % 1009,7 hPa 0,0 l/m 3,5 km/h (1 Bft) N-NO 17 1 min 0,000 mm 3,6 UV-I 707 W/m 11,8 C 16,4 C 4,8 km/h (1 Bft) 95,65 %
31.03.2016 12:12 16,6 C 74 % 1009,7 hPa 0,0 l/m 7,2 km/h (2 Bft) N-NO 32 1 min 0,000 mm 3,6 UV-I 694 W/m 11,9 C 16,2 C 11,3 km/h (2 Bft) 100,00 %
31.03.2016 12:13 16,7 C 72 % 1009,7 hPa 0,0 l/m 10,0 km/h (2 Bft) NO 46 1 min 0,000 mm 3,7 UV-I 688 W/m 11,6 C 15,0 C 14,5 km/h (3 Bft) 100,00 %
31.03.2016 12:14 16,8 C 74 % 1009,6 hPa 0,0 l/m 10,6 km/h (2 Bft) NO 43 1 min 0,000 mm 3,6 UV-I 696 W/m 12,1 C 14,9 C 14,5 km/h (3 Bft) 100,00 %
31.03.2016 12:15 16,8 C 70 % 1009,5 hPa 0,0 l/m 8,0 km/h (2 Bft) N-NO 29 1 min 0,000 mm 3,7 UV-I 709 W/m 11,3 C 16,0 C 14,5 km/h (3 Bft) 100,00 %
31.03.2016 12:16 16,8 C 70 % 1009,5 hPa 0,0 l/m 4,2 km/h (1 Bft) N-NO 26 1 min 0,000 mm 3,7 UV-I 712 W/m 11,3 C 16,8 C 8,0 km/h (2 Bft) 95,65 %
31.03.2016 12:17 16,8 C 72 % 1009,5 hPa 0,0 l/m 3,1 km/h (1 Bft) N-NO 26 1 min 0,000 mm 3,7 UV-I 710 W/m 11,7 C 16,8 C 4,8 km/h (1 Bft) 100,00 %
31.03.2016 12:18 16,9 C 73 % 1009,5 hPa 0,0 l/m 7,2 km/h (2 Bft) N-NO 22 1 min 0,000 mm 3,8 UV-I 708 W/m 12,0 C 16,5 C 12,9 km/h (3 Bft) 96,55 %
31.03.2016 12:19 17,1 C 73 % 1009,5 hPa 0,0 l/m 8,8 km/h (2 Bft) NO 50 1 min 0,000 mm 3,8 UV-I 708 W/m 12,2 C 15,9 C 11,3 km/h (2 Bft) 100,00 %
31.03.2016 12:20 17,2 C 73 % 1009,5 hPa 0,0 l/m 10,1 km/h (2 Bft) NO 44 1 min 0,000 mm 3,7 UV-I 710 W/m 12,3 C 15,5 C 14,5 km/h (3 Bft) 95,65 %
31.03.2016 12:21 17,3 C 70 % 1009,5 hPa 0,0 l/m 10,8 km/h (2 Bft) NO 37 1 min 0,000 mm 3,8 UV-I 715 W/m 11,8 C 15,4 C 14,5 km/h (3 Bft) 100,00 %
31.03.2016 12:22 17,3 C 70 % 1009,5 hPa 0,0 l/m 7,0 km/h (2 Bft) O-NO 63 1 min 0,000 mm 3,8 UV-I 715 W/m 11,8 C 17,0 C 9,7 km/h (2 Bft) 95,65 %
31.03.2016 12:23 17,3 C 70 % 1009,5 hPa 0,0 l/m 6,7 km/h (2 Bft) NO 53 1 min 0,000 mm 3,8 UV-I 714 W/m 11,8 C 17,2 C 12,9 km/h (3 Bft) 95,83 %
31.03.2016 12:24 17,2 C 67 % 1009,5 hPa 0,0 l/m 8,0 km/h (2 Bft) NO 52 1 min 0,000 mm 3,8 UV-I 711 W/m 11,0 C 16,4 C 12,9 km/h (3 Bft) 98,63 %
31.03.2016 12:25 17,1 C 67 % 1009,5 hPa 0,0 l/m 5,9 km/h (2 Bft) NO 53 1 min 0,000 mm 3,8 UV-I 705 W/m 10,9 C 17,1 C 8,0 km/h (2 Bft) 97,56 %
31.03.2016 12:26 17,0 C 70 % 1009,5 hPa 0,0 l/m 5,4 km/h (1 Bft) NO 56 1 min 0,000 mm 3,8 UV-I 719 W/m 11,5 C 17,0 C 9,7 km/h (2 Bft) 100,00 %
31.03.2016 12:27 17,1 C 70 % 1009,5 hPa 0,0 l/m 9,2 km/h (2 Bft) O-NO 59 1 min 0,000 mm 3,8 UV-I 721 W/m 11,6 C 15,8 C 16,1 km/h (3 Bft) 96,30 %
31.03.2016 12:28 17,1 C 67 % 1009,5 hPa 0,0 l/m 8,7 km/h (2 Bft) NO 45 1 min 0,000 mm 3,9 UV-I 722 W/m 10,9 C 16,0 C 12,9 km/h (3 Bft) 100,00 %
31.03.2016 12:29 17,1 C 69 % 1009,4 hPa 0,0 l/m 6,5 km/h (2 Bft) NO 53 1 min 0,000 mm 3,9 UV-I 724 W/m 11,4 C 17,1 C 9,7 km/h (2 Bft) 95,65 %
31.03.2016 12:30 17,1 C 69 % 1009,5 hPa 0,0 l/m 11,1 km/h (2 Bft) O-NO 59 1 min 0,000 mm 3,9 UV-I 724 W/m 11,4 C 15,0 C 16,1 km/h (3 Bft) 100,00 %
31.03.2016 12:31 17,1 C 67 % 1009,5 hPa 0,0 l/m 11,6 km/h (2 Bft) O-NO 58 1 min 0,000 mm 3,9 UV-I 725 W/m 10,9 C 14,8 C 14,5 km/h (3 Bft) 95,65 %
31.03.2016 12:32 17,1 C 67 % 1009,5 hPa 0,0 l/m 11,8 km/h (2 Bft) O 82 1 min 0,000 mm 3,9 UV-I 729 W/m 10,9 C 14,8 C 14,5 km/h (3 Bft) 96,30 %
31.03.2016 12:33 17,1 C 66 % 1009,5 hPa 0,0 l/m 13,4 km/h (3 Bft) NO 55 1 min 0,000 mm 3,9 UV-I 728 W/m 10,7 C 14,2 C 17,7 km/h (3 Bft) 96,15 %
31.03.2016 12:34 17,1 C 68 % 1009,5 hPa 0,0 l/m 11,1 km/h (2 Bft) NO 55 1 min 0,000 mm 3,9 UV-I 725 W/m 11,1 C 15,0 C 16,1 km/h (3 Bft) 95,83 %
31.03.2016 12:35 17,1 C 68 % 1009,4 hPa 0,0 l/m 5,7 km/h (1 Bft) O-NO 61 1 min 0,000 mm 3,8 UV-I 727 W/m 11,1 C 17,1 C 8,0 km/h (2 Bft) 100,00 %
31.03.2016 12:36 17,1 C 69 % 1009,4 hPa 0,0 l/m 10,0 km/h (2 Bft) O-NO 62 1 min 0,000 mm 3,9 UV-I 723 W/m 11,4 C 15,4 C 16,1 km/h (3 Bft) 95,83 %
31.03.2016 12:37 17,1 C 67 % 1009,4 hPa 0,0 l/m 9,6 km/h (2 Bft) NO 44 1 min 0,000 mm 3,9 UV-I 728 W/m 10,9 C 15,6 C 12,9 km/h (3 Bft) 100,00 %
31.03.2016 12:38 17,1 C 67 % 1009,4 hPa 0,0 l/m 10,7 km/h (2 Bft) O-NO 76 1 min 0,000 mm 3,9 UV-I 735 W/m 10,9 C 15,2 C 14,5 km/h (3 Bft) 93,33 %
31.03.2016 12:39 17,1 C 69 % 1009,4 hPa 0,0 l/m 9,0 km/h (2 Bft) NO 42 1 min 0,000 mm 3,9 UV-I 742 W/m 11,4 C 15,9 C 12,9 km/h (3 Bft) 100,00 %
31.03.2016 12:40 17,1 C 67 % 1009,4 hPa 0,0 l/m 10,5 km/h (2 Bft) NO 49 1 min 0,000 mm 3,9 UV-I 745 W/m 10,9 C 15,2 C 14,5 km/h (3 Bft) 96,67 %
31.03.2016 12:41 17,2 C 67 % 1009,4 hPa 0,0 l/m 8,9 km/h (2 Bft) NO 53 1 min 0,000 mm 3,9 UV-I 726 W/m 11,0 C 16,0 C 14,5 km/h (3 Bft) 96,15 %
31.03.2016 12:42 17,2 C 67 % 1009,3 hPa 0,0 l/m 9,8 km/h (2 Bft) N-NO 33 1 min 0,000 mm 3,8 UV-I 705 W/m 11,0 C 15,6 C 14,5 km/h (3 Bft) 100,00 %
31.03.2016 12:43 17,3 C 69 % 1009,3 hPa 0,0 l/m 8,7 km/h (2 Bft) O-NO 61 1 min 0,000 mm 3,8 UV-I 693 W/m 11,6 C 16,2 C 12,9 km/h (3 Bft) 100,00 %
31.03.2016 12:44 17,3 C 67 % 1009,3 hPa 0,0 l/m 6,5 km/h (2 Bft) O-NO 59 1 min 0,000 mm 3,8 UV-I 681 W/m 11,1 C 17,3 C 9,7 km/h (2 Bft) 96,67 %
31.03.2016 12:45 17,4 C 69 % 1009,3 hPa 0,0 l/m 10,6 km/h (2 Bft) O-NO 65 1 min 0,000 mm 3,7 UV-I 666 W/m 11,7 C 15,5 C 17,7 km/h (3 Bft) 96,15 %
31.03.2016 12:46 17,4 C 67 % 1009,3 hPa 0,0 l/m 11,8 km/h (2 Bft) O-NO 71 1 min 0,000 mm 3,7 UV-I 676 W/m 11,2 C 15,1 C 14,5 km/h (3 Bft) 100,00 %
31.03.2016 12:47 17,4 C 66 % 1009,2 hPa 0,0 l/m 7,8 km/h (2 Bft) O-NO 66 1 min 0,000 mm 3,7 UV-I 673 W/m 11,0 C 16,7 C 11,3 km/h (2 Bft) 96,15 %
31.03.2016 12:48 17,3 C 66 % 1009,2 hPa 0,0 l/m 5,4 km/h (1 Bft) O-NO 59 1 min 0,000 mm 3,8 UV-I 694 W/m 10,9 C 17,3 C 8,0 km/h (2 Bft) 100,00 %
31.03.2016 12:49 17,3 C 67 % 1009,2 hPa 0,0 l/m 6,1 km/h (2 Bft) NO 45 1 min 0,000 mm 3,8 UV-I 701 W/m 11,1 C 17,3 C 9,7 km/h (2 Bft) 100,00 %
31.03.2016 12:50 17,4 C 70 % 1009,1 hPa 0,0 l/m 7,8 km/h (2 Bft) N-NO 19 1 min 0,000 mm 3,8 UV-I 709 W/m 11,9 C 16,7 C 12,9 km/h (3 Bft) 95,83 %
31.03.2016 12:51 17,6 C 71 % 1009,1 hPa 0,0 l/m 10,1 km/h (2 Bft) N-NO 12 1 min 0,000 mm 3,9 UV-I 717 W/m 12,3 C 16,0 C 14,5 km/h (3 Bft) 100,00 %
31.03.2016 12:52 17,8 C 71 % 1009,1 hPa 0,0 l/m 9,2 km/h (2 Bft) O-NO 67 1 min 0,000 mm 3,8 UV-I 704 W/m 12,5 C 16,5 C 16,1 km/h (3 Bft) 100,00 %
31.03.2016 12:53 17,8 C 65 % 1009,1 hPa 0,0 l/m 9,5 km/h (2 Bft) NO 48 1 min 0,000 mm 3,5 UV-I 661 W/m 11,1 C 16,4 C 11,3 km/h (2 Bft) 95,24 %
31.03.2016 12:54 17,7 C 65 % 1009,1 hPa 0,0 l/m 7,4 km/h (2 Bft) NO 51 1 min 0,000 mm 3,5 UV-I 597 W/m 11,0 C 17,2 C 12,9 km/h (3 Bft) 100,00 %
31.03.2016 12:55 17,7 C 68 % 1009,1 hPa 0,0 l/m 8,9 km/h (2 Bft) N-NO 15 1 min 0,000 mm 3,6 UV-I 651 W/m 11,7 C 16,5 C 12,9 km/h (3 Bft) 100,00 %
31.03.2016 12:56 17,7 C 70 % 1009,1 hPa 0,0 l/m 6,0 km/h (2 Bft) NO 37 1 min 0,000 mm 3,7 UV-I 685 W/m 12,2 C 17,7 C 12,9 km/h (3 Bft) 100,00 %
31.03.2016 12:57 17,7 C 68 % 1009,1 hPa 0,0 l/m 7,3 km/h (2 Bft) O-NO 68 1 min 0,000 mm 3,5 UV-I 694 W/m 11,7 C 17,3 C 9,7 km/h (2 Bft) 100,00 %
31.03.2016 12:58 17,7 C 67 % 1009,1 hPa 0,0 l/m 4,8 km/h (1 Bft) NO 56 1 min 0,000 mm 3,5 UV-I 641 W/m 11,5 C 17,7 C 8,0 km/h (2 Bft) 100,00 %
31.03.2016 12:59 17,6 C 66 % 1009,1 hPa 0,0 l/m 4,9 km/h (1 Bft) O-NO 64 1 min 0,000 mm 3,8 UV-I 696 W/m 11,2 C 17,6 C 8,0 km/h (2 Bft) 100,00 %
31.03.2016 13:00 17,6 C 67 % 1009,1 hPa 0,0 l/m 5,9 km/h (2 Bft) O 99 1 min 0,407 mm 3,8 UV-I 722 W/m 11,4 C 17,6 C 8,0 km/h (2 Bft) 100,00 %
31.03.2016 13:02 17,7 C 67 % 1009,1 hPa 0,0 l/m 9,1 km/h (2 Bft) NO 52 2 min 0,000 mm 3,8 UV-I 717 W/m 11,5 C 16,5 C 16,1 km/h (3 Bft) 100,00 %
31.03.2016 13:03 17,8 C 65 % 1009,1 hPa 0,0 l/m 7,2 km/h (2 Bft) O-NO 68 1 min 0,000 mm 3,7 UV-I 675 W/m 11,1 C 17,4 C 11,3 km/h (2 Bft) 100,00 %
31.03.2016 13:04 17,8 C 65 % 1009,0 hPa 0,0 l/m 6,8 km/h (2 Bft) O-NO 61 1 min 0,000 mm 3,6 UV-I 665 W/m 11,1 C 17,6 C 9,7 km/h (2 Bft) 100,00 %
31.03.2016 13:05 17,8 C 66 % 1009,0 hPa 0,0 l/m 9,7 km/h (2 Bft) NO 53 1 min 0,000 mm 3,7 UV-I 661 W/m 11,4 C 16,3 C 14,5 km/h (3 Bft) 100,00 %
31.03.2016 13:06 17,8 C 67 % 1009,0 hPa 0,0 l/m 11,4 km/h (2 Bft) NO 47 1 min 0,000 mm 3,7 UV-I 682 W/m 11,6 C 15,7 C 14,5 km/h (3 Bft) 100,00 %
31.03.2016 13:07 17,9 C 66 % 1009,0 hPa 0,0 l/m 7,7 km/h (2 Bft) O-NO 73 1 min 0,000 mm 3,7 UV-I 682 W/m 11,5 C 17,3 C 11,3 km/h (2 Bft) 100,00 %
31.03.2016 13:08 17,9 C 67 % 1009,0 hPa 0,0 l/m 8,6 km/h (2 Bft) O-NO 74 1 min 0,000 mm 3,6 UV-I 639 W/m 11,7 C 16,9 C 14,5 km/h (3 Bft) 100,00 %
31.03.2016 13:09 18,0 C 65 % 1008,9 hPa 0,0 l/m 15,5 km/h (3 Bft) O-NO 59 1 min 0,000 mm 3,5 UV-I 631 W/m 11,3 C 14,7 C 17,7 km/h (3 Bft) 100,00 %
31.03.2016 13:10 18,0 C 64 % 1008,9 hPa 0,0 l/m 11,8 km/h (2 Bft) NO 47 1 min 0,000 mm 3,4 UV-I 565 W/m 11,1 C 15,8 C 16,1 km/h (3 Bft) 100,00 %
31.03.2016 13:11 18,0 C 65 % 1008,9 hPa 0,0 l/m 10,1 km/h (2 Bft) O-NO 59 1 min 0,000 mm 3,6 UV-I 601 W/m 11,3 C 16,4 C 14,5 km/h (3 Bft) 96,55 %
31.03.2016 13:12 18,0 C 63 % 1008,9 hPa 0,0 l/m 8,3 km/h (2 Bft) O-NO 64 1 min 0,000 mm 3,6 UV-I 629 W/m 10,8 C 17,1 C 11,3 km/h (2 Bft) 100,00 %
31.03.2016 13:13 18,0 C 64 % 1008,8 hPa 0,0 l/m 8,4 km/h (2 Bft) NO 42 1 min 0,000 mm 3,6 UV-I 629 W/m 11,1 C 17,1 C 12,9 km/h (3 Bft) 100,00 %
31.03.2016 13:14 18,0 C 65 % 1008,8 hPa 0,0 l/m 4,8 km/h (1 Bft) NO 36 1 min 0,000 mm 3,6 UV-I 629 W/m 11,3 C 18,0 C 8,0 km/h (2 Bft) 100,00 %
31.03.2016 13:15 18,1 C 67 % 1008,8 hPa 0,0 l/m 8,4 km/h (2 Bft) NO 44 1 min 0,000 mm 3,7 UV-I 655 W/m 11,9 C 17,2 C 14,5 km/h (3 Bft) 97,73 %
31.03.2016 13:16 18,1 C 66 % 1008,8 hPa 0,0 l/m 7,6 km/h (2 Bft) NO 36 1 min 0,000 mm 3,8 UV-I 686 W/m 11,6 C 17,5 C 11,3 km/h (2 Bft) 100,00 %
31.03.2016 13:17 18,1 C 65 % 1008,8 hPa 0,0 l/m 9,2 km/h (2 Bft) O-NO 61 1 min 0,000 mm 3,8 UV-I 685 W/m 11,4 C 16,9 C 12,9 km/h (3 Bft) 100,00 %
31.03.2016 13:18 18,1 C 65 % 1008,8 hPa 0,0 l/m 6,8 km/h (2 Bft) NO 53 1 min 0,000 mm 3,6 UV-I 639 W/m 11,4 C 17,9 C 11,3 km/h (2 Bft) 100,00 %
31.03.2016 13:19 18,1 C 64 % 1008,8 hPa 0,0 l/m 9,4 km/h (2 Bft) NO 45 1 min 0,000 mm 3,6 UV-I 637 W/m 11,2 C 16,8 C 12,9 km/h (3 Bft) 100,00 %
31.03.2016 13:20 18,1 C 65 % 1008,8 hPa 0,0 l/m 6,5 km/h (2 Bft) N-NO 19 1 min 0,000 mm 3,6 UV-I 684 W/m 11,4 C 18,1 C 9,7 km/h (2 Bft) 100,00 %
31.03.2016 13:21 18,1 C 65 % 1008,7 hPa 0,0 l/m 7,9 km/h (2 Bft) NO 42 1 min 0,000 mm 3,6 UV-I 628 W/m 11,4 C 17,4 C 12,9 km/h (3 Bft) 100,00 %
31.03.2016 13:22 18,1 C 66 % 1008,7 hPa 0,0 l/m 6,5 km/h (2 Bft) O-NO 78 1 min 0,000 mm 3,7 UV-I 667 W/m 11,6 C 18,1 C 8,0 km/h (2 Bft) 100,00 %
31.03.2016 13:23 18,2 C 66 % 1008,7 hPa 0,0 l/m 9,1 km/h (2 Bft) NO 34 1 min 0,000 mm 3,7 UV-I 705 W/m 11,7 C 17,0 C 12,9 km/h (3 Bft) 100,00 %
31.03.2016 13:24 18,3 C 67 % 1008,7 hPa 0,0 l/m 8,2 km/h (2 Bft) NO 42 1 min 0,000 mm 3,9 UV-I 732 W/m 12,1 C 17,5 C 11,3 km/h (2 Bft) 96,30 %
31.03.2016 13:25 18,4 C 69 % 1008,7 hPa 0,0 l/m 10,1 km/h (2 Bft) O-NO 73 1 min 0,000 mm 3,9 UV-I 710 W/m 12,6 C 16,8 C 14,5 km/h (3 Bft) 100,00 %
31.03.2016 13:26 18,6 C 66 % 1008,7 hPa 0,0 l/m 8,6 km/h (2 Bft) O 96 1 min 0,000 mm 3,7 UV-I 685 W/m 12,1 C 17,6 C 12,9 km/h (3 Bft) 100,00 %
31.03.2016 13:27 18,7 C 66 % 1008,7 hPa 0,0 l/m 6,8 km/h (2 Bft) O-NO 62 1 min 0,000 mm 3,8 UV-I 686 W/m 12,2 C 18,5 C 9,7 km/h (2 Bft) 100,00 %
31.03.2016 13:28 18,7 C 64 % 1008,7 hPa 0,0 l/m 7,3 km/h (2 Bft) O-NO 62 1 min 0,000 mm 3,9 UV-I 741 W/m 11,7 C 18,3 C 9,7 km/h (2 Bft) 100,00 %
31.03.2016 13:29 18,7 C 66 % 1008,7 hPa 0,0 l/m 8,6 km/h (2 Bft) NO 53 1 min 0,000 mm 3,8 UV-I 704 W/m 12,2 C 17,7 C 12,9 km/h (3 Bft) 100,00 %
31.03.2016 13:30 18,7 C 66 % 1008,7 hPa 0,0 l/m 11,9 km/h (2 Bft) O-NO 72 1 min 0,000 mm 4,0 UV-I 766 W/m 12,2 C 16,6 C 14,5 km/h (3 Bft) 100,00 %
31.03.2016 13:31 18,7 C 64 % 1008,7 hPa 0,0 l/m 8,6 km/h (2 Bft) NO 40 1 min 0,000 mm 4,0 UV-I 785 W/m 11,7 C 17,7 C 11,3 km/h (2 Bft) 100,00 %
31.03.2016 13:32 18,7 C 64 % 1008,7 hPa 0,0 l/m 6,9 km/h (2 Bft) NO 55 1 min 0,000 mm 3,9 UV-I 764 W/m 11,7 C 18,5 C 11,3 km/h (2 Bft) 100,00 %
31.03.2016 13:33 18,7 C 64 % 1008,6 hPa 0,0 l/m 9,3 km/h (2 Bft) O-NO 71 1 min 0,000 mm 4,0 UV-I 764 W/m 11,7 C 17,5 C 14,5 km/h (3 Bft) 100,00 %
31.03.2016 13:34 18,7 C 64 % 1008,6 hPa 0,0 l/m 10,3 km/h (2 Bft) NO 39 1 min 0,000 mm 4,1 UV-I 797 W/m 11,7 C 17,1 C 14,5 km/h (3 Bft) 100,00 %
31.03.2016 13:35 18,8 C 64 % 1008,6 hPa 0,0 l/m 10,7 km/h (2 Bft) NO 46 1 min 0,000 mm 4,0 UV-I 758 W/m 11,8 C 17,1 C 14,5 km/h (3 Bft) 100,00 %
31.03.2016 13:36 18,9 C 67 % 1008,5 hPa 0,0 l/m 9,4 km/h (2 Bft) O-NO 72 1 min 0,000 mm 3,8 UV-I 745 W/m 12,6 C 17,6 C 12,9 km/h (3 Bft) 100,00 %
31.03.2016 13:37 18,9 C 63 % 1008,6 hPa 0,0 l/m 10,8 km/h (2 Bft) O-NO 67 1 min 0,000 mm 3,8 UV-I 713 W/m 11,7 C 17,1 C 12,9 km/h (3 Bft) 100,00 %
31.03.2016 13:38 18,9 C 62 % 1008,5 hPa 0,0 l/m 10,3 km/h (2 Bft) O 89 1 min 0,000 mm 3,7 UV-I 698 W/m 11,5 C 17,3 C 14,5 km/h (3 Bft) 100,00 %
31.03.2016 13:39 18,8 C 63 % 1008,5 hPa 0,0 l/m 6,6 km/h (2 Bft) N-NO 26 1 min 0,000 mm 3,7 UV-I 706 W/m 11,6 C 18,7 C 9,7 km/h (2 Bft) 100,00 %
31.03.2016 13:40 18,8 C 64 % 1008,5 hPa 0,0 l/m 8,7 km/h (2 Bft) O-NO 63 1 min 0,000 mm 3,8 UV-I 710 W/m 11,8 C 17,8 C 9,7 km/h (2 Bft) 100,00 %
31.03.2016 13:41 18,9 C 65 % 1008,5 hPa 0,0 l/m 11,0 km/h (2 Bft) O-NO 61 1 min 0,000 mm 3,8 UV-I 711 W/m 12,2 C 17,1 C 19,3 km/h (3 Bft) 97,56 %
31.03.2016 13:42 18,9 C 63 % 1008,4 hPa 0,0 l/m 12,3 km/h (3 Bft) O-NO 61 1 min 0,000 mm 3,7 UV-I 640 W/m 11,7 C 16,7 C 17,7 km/h (3 Bft) 100,00 %
31.03.2016 13:43 18,9 C 64 % 1008,4 hPa 0,0 l/m 8,0 km/h (2 Bft) O-NO 60 1 min 0,000 mm 3,7 UV-I 639 W/m 11,9 C 18,2 C 12,9 km/h (3 Bft) 100,00 %
31.03.2016 13:44 19,0 C 64 % 1008,4 hPa 0,0 l/m 10,1 km/h (2 Bft) O-NO 74 1 min 0,000 mm 3,9 UV-I 738 W/m 12,0 C 17,5 C 16,1 km/h (3 Bft) 100,00 %
31.03.2016 13:45 19,0 C 64 % 1008,3 hPa 0,0 l/m 13,5 km/h (3 Bft) O-NO 66 1 min 0,000 mm 3,8 UV-I 736 W/m 12,0 C 16,4 C 19,3 km/h (3 Bft) 100,00 %
31.03.2016 13:46 19,0 C 62 % 1008,3 hPa 0,0 l/m 13,0 km/h (3 Bft) N-NO 19 1 min 0,000 mm 3,7 UV-I 659 W/m 11,6 C 16,6 C 17,7 km/h (3 Bft) 100,00 %
31.03.2016 13:47 19,0 C 66 % 1008,3 hPa 0,0 l/m 14,4 km/h (3 Bft) NO 51 1 min 0,000 mm 3,6 UV-I 659 W/m 12,5 C 16,2 C 17,7 km/h (3 Bft) 98,67 %
31.03.2016 13:48 19,0 C 64 % 1008,3 hPa 0,0 l/m 8,4 km/h (2 Bft) NO 44 1 min 0,000 mm 3,8 UV-I 659 W/m 12,0 C 18,1 C 11,3 km/h (2 Bft) 97,44 %
31.03.2016 13:49 19,1 C 64 % 1008,3 hPa 0,0 l/m 7,0 km/h (2 Bft) NO 38 1 min 0,000 mm 3,8 UV-I 704 W/m 12,1 C 18,8 C 9,7 km/h (2 Bft) 100,00 %
31.03.2016 13:50 19,1 C 63 % 1008,3 hPa 0,0 l/m 12,7 km/h (3 Bft) NO 55 1 min 0,000 mm 3,8 UV-I 733 W/m 11,9 C 16,8 C 17,7 km/h (3 Bft) 100,00 %
31.03.2016 13:51 19,1 C 63 % 1008,3 hPa 0,0 l/m 12,3 km/h (3 Bft) O-NO 58 1 min 0,000 mm 3,8 UV-I 727 W/m 11,9 C 16,9 C 16,1 km/h (3 Bft) 100,00 %
31.03.2016 13:52 19,1 C 62 % 1008,2 hPa 0,0 l/m 10,1 km/h (2 Bft) N-NO 33 1 min 0,000 mm 3,8 UV-I 712 W/m 11,6 C 17,6 C 14,5 km/h (3 Bft) 96,30 %
31.03.2016 13:53 19,2 C 65 % 1008,2 hPa 0,0 l/m 11,7 km/h (2 Bft) NO 50 1 min 0,000 mm 3,7 UV-I 694 W/m 12,5 C 17,2 C 16,1 km/h (3 Bft) 100,00 %
31.03.2016 13:54 19,3 C 63 % 1008,2 hPa 0,0 l/m 9,9 km/h (2 Bft) N-NO 33 1 min 0,000 mm 3,7 UV-I 679 W/m 12,1 C 17,9 C 16,1 km/h (3 Bft) 100,00 %
31.03.2016 13:55 19,4 C 63 % 1008,1 hPa 0,0 l/m 11,9 km/h (2 Bft) NO 46 1 min 0,000 mm 3,6 UV-I 673 W/m 12,2 C 17,4 C 19,3 km/h (3 Bft) 95,65 %
31.03.2016 13:56 19,4 C 62 % 1008,1 hPa 0,0 l/m 11,9 km/h (2 Bft) NO 51 1 min 0,000 mm 3,7 UV-I 702 W/m 11,9 C 17,4 C 19,3 km/h (3 Bft) 100,00 %
31.03.2016 13:57 19,4 C 61 % 1008,1 hPa 0,0 l/m 11,9 km/h (2 Bft) O 86 1 min 0,000 mm 3,8 UV-I 684 W/m 11,7 C 17,4 C 14,5 km/h (3 Bft) 100,00 %
31.03.2016 13:58 19,4 C 63 % 1008,0 hPa 0,0 l/m 13,6 km/h (3 Bft) O 90 1 min 0,000 mm 3,7 UV-I 715 W/m 12,2 C 16,9 C 16,1 km/h (3 Bft) 100,00 %
31.03.2016 13:59 19,4 C 62 % 1008,0 hPa 0,0 l/m 14,4 km/h (3 Bft) O-NO 67 1 min 0,000 mm 3,7 UV-I 715 W/m 11,9 C 16,7 C 17,7 km/h (3 Bft) 100,00 %
31.03.2016 14:00 19,3 C 61 % 1008,0 hPa 0,0 l/m 12,4 km/h (3 Bft) NO 53 1 min 0,432 mm 3,7 UV-I 698 W/m 11,6 C 17,1 C 17,7 km/h (3 Bft) 100,00 %
31.03.2016 14:02 19,4 C 62 % 1008,0 hPa 0,0 l/m 11,8 km/h (2 Bft) O 80 2 min 0,000 mm 3,7 UV-I 705 W/m 11,9 C 17,4 C 17,7 km/h (3 Bft) 97,78 %
31.03.2016 14:03 19,4 C 61 % 1008,0 hPa 0,0 l/m 14,3 km/h (3 Bft) O 84 1 min 0,000 mm 3,7 UV-I 703 W/m 11,7 C 16,7 C 16,1 km/h (3 Bft) 100,00 %
31.03.2016 14:04 19,4 C 60 % 1008,0 hPa 0,0 l/m 14,8 km/h (3 Bft) O-NO 63 1 min 0,000 mm 3,7 UV-I 701 W/m 11,4 C 16,6 C 17,7 km/h (3 Bft) 92,59 %
31.03.2016 14:05 19,4 C 60 % 1008,0 hPa 0,0 l/m 11,8 km/h (2 Bft) O-NO 74 1 min 0,000 mm 3,7 UV-I 718 W/m 11,4 C 17,4 C 16,1 km/h (3 Bft) 100,00 %
31.03.2016 14:06 19,4 C 60 % 1008,0 hPa 0,0 l/m 14,0 km/h (3 Bft) O-NO 66 1 min 0,000 mm 3,7 UV-I 734 W/m 11,4 C 16,8 C 17,7 km/h (3 Bft) 94,12 %
31.03.2016 14:07 19,5 C 61 % 1007,9 hPa 0,0 l/m 11,1 km/h (2 Bft) O-NO 61 1 min 0,000 mm 3,7 UV-I 731 W/m 11,8 C 17,7 C 16,1 km/h (3 Bft) 100,00 %
31.03.2016 14:08 19,5 C 62 % 1008,0 hPa 0,0 l/m 9,9 km/h (2 Bft) NO 40 1 min 0,000 mm 3,6 UV-I 724 W/m 12,0 C 18,1 C 14,5 km/h (3 Bft) 96,15 %
31.03.2016 14:10 19,7 C 63 % 1007,9 hPa 0,0 l/m 8,8 km/h (2 Bft) NO 56 2 min 0,000 mm 3,6 UV-I 665 W/m 12,5 C 18,7 C 12,9 km/h (3 Bft) 93,33 %
31.03.2016 14:11 19,7 C 61 % 1008,0 hPa 0,0 l/m 13,4 km/h (3 Bft) O-NO 63 1 min 0,000 mm 3,6 UV-I 693 W/m 12,0 C 17,3 C 16,1 km/h (3 Bft) 97,44 %
31.03.2016 14:12 19,7 C 59 % 1007,9 hPa 0,0 l/m 14,1 km/h (3 Bft) O-NO 70 1 min 0,000 mm 3,7 UV-I 706 W/m 11,5 C 17,1 C 17,7 km/h (3 Bft) 100,00 %
31.03.2016 14:13 19,7 C 61 % 1008,0 hPa 0,0 l/m 13,1 km/h (3 Bft) O 82 1 min 0,000 mm 3,6 UV-I 686 W/m 12,0 C 17,4 C 16,1 km/h (3 Bft) 96,15 %
31.03.2016 14:14 19,8 C 62 % 1007,9 hPa 0,0 l/m 11,3 km/h (2 Bft) O-SO 105 1 min 0,000 mm 3,6 UV-I 695 W/m 12,3 C 18,0 C 14,5 km/h (3 Bft) 100,00 %
31.03.2016 14:15 19,8 C 59 % 1007,9 hPa 0,0 l/m 11,6 km/h (2 Bft) O-NO 71 1 min 0,000 mm 3,6 UV-I 712 W/m 11,6 C 17,9 C 16,1 km/h (3 Bft) 94,12 %
31.03.2016 14:16 19,8 C 59 % 1007,9 hPa 0,0 l/m 9,6 km/h (2 Bft) O-NO 58 1 min 0,000 mm 3,6 UV-I 713 W/m 11,6 C 18,6 C 12,9 km/h (3 Bft) 100,00 %
31.03.2016 14:17 19,9 C 59 % 1007,9 hPa 0,0 l/m 11,8 km/h (2 Bft) O-NO 78 1 min 0,000 mm 3,6 UV-I 707 W/m 11,6 C 18,0 C 14,5 km/h (3 Bft) 96,15 %
31.03.2016 14:18 19,9 C 61 % 1007,8 hPa 0,0 l/m 9,0 km/h (2 Bft) O-NO 61 1 min 0,000 mm 3,6 UV-I 711 W/m 12,2 C 18,9 C 14,5 km/h (3 Bft) 100,00 %
31.03.2016 14:19 20,0 C 60 % 1007,9 hPa 0,0 l/m 14,2 km/h (3 Bft) NO 43 1 min 0,000 mm 3,6 UV-I 716 W/m 12,0 C 17,4 C 19,3 km/h (3 Bft) 95,83 %
31.03.2016 14:20 20,0 C 59 % 1007,8 hPa 0,0 l/m 11,8 km/h (2 Bft) NO 53 1 min 0,000 mm 3,5 UV-I 709 W/m 11,7 C 18,1 C 16,1 km/h (3 Bft) 96,55 %
31.03.2016 14:21 20,0 C 59 % 1007,8 hPa 0,0 l/m 8,9 km/h (2 Bft) NO 42 1 min 0,000 mm 3,5 UV-I 681 W/m 11,7 C 19,0 C 12,9 km/h (3 Bft) 100,00 %
31.03.2016 14:22 20,1 C 61 % 1007,8 hPa 0,0 l/m 12,2 km/h (2 Bft) O-NO 61 1 min 0,000 mm 3,6 UV-I 708 W/m 12,3 C 18,1 C 17,7 km/h (3 Bft) 96,15 %
31.03.2016 14:23 20,2 C 61 % 1007,8 hPa 0,0 l/m 11,2 km/h (2 Bft) O-NO 63 1 min 0,000 mm 3,5 UV-I 702 W/m 12,4 C 18,5 C 16,1 km/h (3 Bft) 100,00 %
31.03.2016 14:24 20,2 C 60 % 1007,8 hPa 0,0 l/m 9,7 km/h (2 Bft) O-NO 57 1 min 0,000 mm 3,5 UV-I 709 W/m 12,2 C 19,0 C 12,9 km/h (3 Bft) 95,65 %
31.03.2016 14:25 20,3 C 59 % 1007,8 hPa 0,0 l/m 10,1 km/h (2 Bft) O-NO 65 1 min 0,000 mm 3,5 UV-I 718 W/m 12,0 C 18,9 C 14,5 km/h (3 Bft) 100,00 %
31.03.2016 14:26 20,3 C 58 % 1007,8 hPa 0,0 l/m 12,6 km/h (3 Bft) NO 55 1 min 0,000 mm 3,4 UV-I 708 W/m 11,8 C 18,2 C 17,7 km/h (3 Bft) 96,15 %
31.03.2016 14:27 20,3 C 59 % 1007,7 hPa 0,0 l/m 8,4 km/h (2 Bft) O-NO 63 1 min 0,000 mm 3,4 UV-I 668 W/m 12,0 C 19,5 C 11,3 km/h (2 Bft) 95,83 %
31.03.2016 14:28 20,3 C 58 % 1007,7 hPa 0,0 l/m 9,2 km/h (2 Bft) N-NO 30 1 min 0,000 mm 3,4 UV-I 655 W/m 11,8 C 19,2 C 14,5 km/h (3 Bft) 100,00 %
31.03.2016 14:29 20,3 C 59 % 1007,7 hPa 0,0 l/m 10,9 km/h (2 Bft) NO 55 1 min 0,000 mm 3,3 UV-I 632 W/m 12,0 C 18,7 C 14,5 km/h (3 Bft) 92,59 %
31.03.2016 14:30 20,4 C 58 % 1007,7 hPa 0,0 l/m 9,4 km/h (2 Bft) NO 49 1 min 0,000 mm 3,3 UV-I 613 W/m 11,9 C 19,3 C 16,1 km/h (3 Bft) 100,00 %
31.03.2016 14:31 20,4 C 56 % 1007,7 hPa 0,0 l/m 15,0 km/h (3 Bft) O-NO 69 1 min 0,000 mm 3,1 UV-I 587 W/m 11,3 C 17,7 C 19,3 km/h (3 Bft) 91,67 %
31.03.2016 14:32 20,3 C 56 % 1007,7 hPa 0,0 l/m 9,3 km/h (2 Bft) O 100 1 min 0,000 mm 3,2 UV-I 669 W/m 11,2 C 19,2 C 11,3 km/h (2 Bft) 100,00 %
31.03.2016 14:33 20,3 C 58 % 1007,6 hPa 0,0 l/m 10,3 km/h (2 Bft) O-NO 70 1 min 0,000 mm 3,5 UV-I 713 W/m 11,8 C 18,9 C 14,5 km/h (3 Bft) 93,33 %
31.03.2016 14:34 20,3 C 57 % 1007,6 hPa 0,0 l/m 9,6 km/h (2 Bft) O 79 1 min 0,000 mm 3,4 UV-I 704 W/m 11,5 C 19,1 C 14,5 km/h (3 Bft) 97,56 %
31.03.2016 14:35 20,3 C 58 % 1007,6 hPa 0,0 l/m 11,3 km/h (2 Bft) NO 55 1 min 0,000 mm 3,4 UV-I 702 W/m 11,8 C 18,6 C 14,5 km/h (3 Bft) 91,67 %
31.03.2016 14:36 20,4 C 56 % 1007,6 hPa 0,0 l/m 6,9 km/h (2 Bft) NO 43 1 min 0,000 mm 3,4 UV-I 676 W/m 11,3 C 20,2 C 14,5 km/h (3 Bft) 100,00 %
31.03.2016 14:37 20,4 C 56 % 1007,6 hPa 0,0 l/m 10,5 km/h (2 Bft) O-NO 63 1 min 0,000 mm 3,3 UV-I 686 W/m 11,3 C 18,9 C 16,1 km/h (3 Bft) 100,00 %
31.03.2016 14:38 20,5 C 59 % 1007,6 hPa 0,0 l/m 9,9 km/h (2 Bft) O-NO 62 1 min 0,000 mm 3,2 UV-I 626 W/m 12,2 C 19,2 C 14,5 km/h (3 Bft) 96,15 %
31.03.2016 14:39 20,6 C 54 % 1007,5 hPa 0,0 l/m 11,5 km/h (2 Bft) NO 52 1 min 0,000 mm 3,3 UV-I 687 W/m 11,0 C 18,9 C 16,1 km/h (3 Bft) 100,00 %
31.03.2016 14:40 20,7 C 53 % 1007,6 hPa 0,0 l/m 12,2 km/h (2 Bft) O-NO 57 1 min 0,000 mm 3,3 UV-I 687 W/m 10,8 C 18,8 C 16,1 km/h (3 Bft) 100,00 %
31.03.2016 14:41 20,7 C 55 % 1007,6 hPa 0,0 l/m 14,7 km/h (3 Bft) O-NO 63 1 min 0,000 mm 3,0 UV-I 689 W/m 11,3 C 18,2 C 19,3 km/h (3 Bft) 100,00 %
31.03.2016 14:42 20,7 C 55 % 1007,6 hPa 0,0 l/m 11,8 km/h (2 Bft) N-NO 30 1 min 0,000 mm 3,2 UV-I 689 W/m 11,3 C 18,9 C 16,1 km/h (3 Bft) 96,30 %
31.03.2016 14:43 20,8 C 57 % 1007,5 hPa 0,0 l/m 11,3 km/h (2 Bft) N-NO 28 1 min 0,000 mm 3,3 UV-I 706 W/m 12,0 C 19,1 C 16,1 km/h (3 Bft) 98,60 %
31.03.2016 14:44 20,8 C 59 % 1007,5 hPa 0,0 l/m 5,6 km/h (1 Bft) N-NO 24 1 min 0,000 mm 3,3 UV-I 695 W/m 12,5 C 20,8 C 9,7 km/h (2 Bft) 100,00 %
31.03.2016 14:45 20,8 C 61 % 1007,6 hPa 0,0 l/m 9,9 km/h (2 Bft) N-NO 19 1 min 0,000 mm 3,2 UV-I 642 W/m 13,0 C 19,6 C 12,9 km/h (3 Bft) 100,00 %
31.03.2016 14:46 20,9 C 62 % 1007,5 hPa 0,0 l/m 12,1 km/h (2 Bft) NO 46 1 min 0,000 mm 2,9 UV-I 592 W/m 13,3 C 19,0 C 14,5 km/h (3 Bft) 100,00 %
31.03.2016 14:47 20,8 C 55 % 1007,5 hPa 0,0 l/m 8,2 km/h (2 Bft) NO 52 1 min 0,000 mm 2,8 UV-I 529 W/m 11,4 C 20,1 C 11,3 km/h (2 Bft) 96,15 %
31.03.2016 14:48 20,8 C 55 % 1007,5 hPa 0,0 l/m 10,6 km/h (2 Bft) O-NO 61 1 min 0,000 mm 2,7 UV-I 522 W/m 11,4 C 19,3 C 17,7 km/h (3 Bft) 100,00 %
31.03.2016 14:49 20,7 C 55 % 1007,5 hPa 0,0 l/m 6,3 km/h (2 Bft) O-NO 61 1 min 0,000 mm 2,8 UV-I 509 W/m 11,3 C 20,7 C 8,0 km/h (2 Bft) 100,00 %
31.03.2016 14:50 20,7 C 57 % 1007,5 hPa 0,0 l/m 8,1 km/h (2 Bft) NO 55 1 min 0,000 mm 2,8 UV-I 528 W/m 11,9 C 20,0 C 14,5 km/h (3 Bft) 100,00 %
31.03.2016 14:51 20,7 C 57 % 1007,5 hPa 0,0 l/m 8,8 km/h (2 Bft) NO 43 1 min 0,000 mm 2,9 UV-I 565 W/m 11,9 C 19,8 C 14,5 km/h (3 Bft) 100,00 %
31.03.2016 14:52 20,7 C 58 % 1007,5 hPa 0,0 l/m 11,9 km/h (2 Bft) N-NO 20 1 min 0,000 mm 2,9 UV-I 610 W/m 12,1 C 18,9 C 17,7 km/h (3 Bft) 95,83 %
31.03.2016 14:53 20,8 C 59 % 1007,4 hPa 0,0 l/m 14,8 km/h (3 Bft) NO 45 1 min 0,000 mm 2,8 UV-I 656 W/m 12,5 C 18,3 C 17,7 km/h (3 Bft) 100,00 %
31.03.2016 14:54 20,8 C 55 % 1007,4 hPa 0,0 l/m 10,9 km/h (2 Bft) O-NO 59 1 min 0,000 mm 2,5 UV-I 656 W/m 11,4 C 19,3 C 14,5 km/h (3 Bft) 100,00 %
31.03.2016 14:55 20,7 C 55 % 1007,4 hPa 0,0 l/m 10,3 km/h (2 Bft) O-NO 61 1 min 0,000 mm 2,6 UV-I 656 W/m 11,3 C 19,3 C 14,5 km/h (3 Bft) 100,00 %
31.03.2016 14:56 20,7 C 56 % 1007,3 hPa 0,0 l/m 15,0 km/h (3 Bft) N-NO 19 1 min 0,000 mm 2,8 UV-I 535 W/m 11,6 C 18,1 C 17,7 km/h (3 Bft) 100,00 %
31.03.2016 14:57 20,7 C 61 % 1007,3 hPa 0,0 l/m 9,5 km/h (2 Bft) NO 42 1 min 0,000 mm 2,9 UV-I 612 W/m 12,9 C 19,6 C 14,5 km/h (3 Bft) 100,00 %
31.03.2016 14:58 20,8 C 56 % 1007,3 hPa 0,0 l/m 11,9 km/h (2 Bft) O-NO 59 1 min 0,000 mm 2,9 UV-I 627 W/m 11,7 C 19,0 C 17,7 km/h (3 Bft) 100,00 %
31.03.2016 14:59 20,8 C 56 % 1007,3 hPa 0,0 l/m 12,5 km/h (3 Bft) NO 50 1 min 0,000 mm 2,4 UV-I 612 W/m 11,7 C 18,8 C 17,7 km/h (3 Bft) 100,00 %
31.03.2016 15:00 20,7 C 55 % 1007,3 hPa 0,0 l/m 10,9 km/h (2 Bft) O-NO 57 1 min 0,431 mm 2,1 UV-I 408 W/m 11,3 C 19,1 C 14,5 km/h (3 Bft) 100,00 %
31.03.2016 15:02 20,7 C 56 % 1007,2 hPa 0,0 l/m 8,6 km/h (2 Bft) NO 50 2 min 0,000 mm 2,2 UV-I 375 W/m 11,6 C 19,9 C 12,9 km/h (3 Bft) 100,00 %
31.03.2016 15:03 20,7 C 56 % 1007,2 hPa 0,0 l/m 8,7 km/h (2 Bft) O-NO 76 1 min 0,000 mm 2,3 UV-I 450 W/m 11,6 C 19,8 C 12,9 km/h (3 Bft) 98,63 %
31.03.2016 15:04 20,6 C 55 % 1007,2 hPa 0,0 l/m 13,7 km/h (3 Bft) O-NO 65 1 min 0,000 mm 2,4 UV-I 467 W/m 11,2 C 18,3 C 17,7 km/h (3 Bft) 100,00 %
31.03.2016 15:05 20,6 C 56 % 1007,2 hPa 0,0 l/m 13,7 km/h (3 Bft) NO 55 1 min 0,000 mm 2,4 UV-I 480 W/m 11,5 C 18,3 C 17,7 km/h (3 Bft) 100,00 %
31.03.2016 15:06 20,7 C 56 % 1007,2 hPa 0,0 l/m 15,3 km/h (3 Bft) O-NO 63 1 min 0,000 mm 2,5 UV-I 500 W/m 11,6 C 18,0 C 19,3 km/h (3 Bft) 92,86 %
31.03.2016 15:07 20,7 C 53 % 1007,2 hPa 0,0 l/m 11,5 km/h (2 Bft) NO 55 1 min 0,000 mm 2,5 UV-I 525 W/m 10,8 C 19,0 C 17,7 km/h (3 Bft) 100,00 %
31.03.2016 15:08 20,7 C 55 % 1007,2 hPa 0,0 l/m 8,4 km/h (2 Bft) NO 49 1 min 0,000 mm 2,5 UV-I 524 W/m 11,3 C 19,9 C 12,9 km/h (3 Bft) 100,00 %
31.03.2016 15:09 20,7 C 55 % 1007,2 hPa 0,0 l/m 7,2 km/h (2 Bft) NO 55 1 min 0,000 mm 2,1 UV-I 524 W/m 11,3 C 20,4 C 9,7 km/h (2 Bft) 94,44 %
31.03.2016 15:10 20,7 C 55 % 1007,2 hPa 0,0 l/m 8,2 km/h (2 Bft) O-NO 58 1 min 0,000 mm 1,9 UV-I 378 W/m 11,3 C 20,0 C 14,5 km/h (3 Bft) 100,00 %
31.03.2016 15:11 20,8 C 52 % 1007,2 hPa 0,0 l/m 11,2 km/h (2 Bft) O-NO 66 0 min 0,000 mm 1,9 UV-I 291 W/m 10,6 C 19,2 C 16,1 km/h (3 Bft) 100,00 %
31.03.2016 15:12 20,7 C 53 % 1007,1 hPa 0,0 l/m 10,2 km/h (2 Bft) O-NO 66 0 min 0,000 mm 2,3 UV-I 318 W/m 10,8 C 19,4 C 14,5 km/h (3 Bft) 96,15 %
31.03.2016 15:13 20,7 C 54 % 1007,1 hPa 0,0 l/m 10,3 km/h (2 Bft) NO 46 0 min 0,000 mm 2,6 UV-I 342 W/m 11,1 C 19,3 C 14,5 km/h (3 Bft) 100,00 %
31.03.2016 15:14 20,8 C 56 % 1007,1 hPa 0,0 l/m 12,3 km/h (3 Bft) NO 42 1 min 0,000 mm 2,5 UV-I 570 W/m 11,7 C 18,9 C 17,7 km/h (3 Bft) 96,55 %
31.03.2016 15:15 20,8 C 57 % 1007,1 hPa 0,0 l/m 11,6 km/h (2 Bft) NO 43 1 min 0,000 mm 2,6 UV-I 594 W/m 12,0 C 19,1 C 14,5 km/h (3 Bft) 100,00 %
31.03.2016 15:16 20,8 C 53 % 1007,0 hPa 0,0 l/m 10,0 km/h (2 Bft) NO 34 1 min 0,000 mm 2,6 UV-I 591 W/m 10,9 C 19,5 C 14,5 km/h (3 Bft) 100,00 %
31.03.2016 15:17 20,9 C 54 % 1007,0 hPa 0,0 l/m 10,1 km/h (2 Bft) N-NO 32 1 min 0,000 mm 2,7 UV-I 619 W/m 11,2 C 19,6 C 14,5 km/h (3 Bft) 100,00 %
31.03.2016 15:18 21,1 C 58 % 1007,0 hPa 0,0 l/m 11,5 km/h (2 Bft) NO 43 1 min 0,000 mm 2,7 UV-I 639 W/m 12,5 C 19,4 C 14,5 km/h (3 Bft) 100,00 %
31.03.2016 15:19 21,1 C 54 % 1007,0 hPa 0,0 l/m 11,2 km/h (2 Bft) NO 56 1 min 0,000 mm 2,7 UV-I 654 W/m 11,4 C 19,5 C 16,1 km/h (3 Bft) 100,00 %
31.03.2016 15:20 21,2 C 53 % 1006,9 hPa 0,0 l/m 9,7 km/h (2 Bft) N-NO 30 1 min 0,000 mm 2,6 UV-I 606 W/m 11,2 C 20,1 C 17,7 km/h (3 Bft) 100,00 %
31.03.2016 15:21 21,2 C 51 % 1006,9 hPa 0,0 l/m 9,6 km/h (2 Bft) NO 56 1 min 0,000 mm 2,6 UV-I 607 W/m 10,7 C 20,1 C 14,5 km/h (3 Bft) 100,00 %
31.03.2016 15:22 21,2 C 54 % 1006,9 hPa 0,0 l/m 10,1 km/h (2 Bft) N-NO 30 1 min 0,000 mm 2,5 UV-I 604 W/m 11,5 C 19,9 C 16,1 km/h (3 Bft) 95,83 %
31.03.2016 15:23 21,3 C 53 % 1006,9 hPa 0,0 l/m 11,7 km/h (2 Bft) NO 46 1 min 0,000 mm 2,6 UV-I 618 W/m 11,3 C 19,6 C 16,1 km/h (3 Bft) 100,00 %
31.03.2016 15:24 21,3 C 52 % 1006,9 hPa 0,0 l/m 15,1 km/h (3 Bft) NO 55 1 min 0,000 mm 2,5 UV-I 566 W/m 11,0 C 18,8 C 20,9 km/h (4 Bft) 100,00 %
31.03.2016 15:25 21,3 C 48 % 1006,9 hPa 0,0 l/m 13,9 km/h (3 Bft) NO 44 1 min 0,000 mm 2,3 UV-I 498 W/m 9,8 C 19,1 C 17,7 km/h (3 Bft) 100,00 %
31.03.2016 15:26 21,3 C 49 % 1006,8 hPa 0,0 l/m 10,4 km/h (2 Bft) O-NO 73 1 min 0,000 mm 2,3 UV-I 523 W/m 10,1 C 20,0 C 14,5 km/h (3 Bft) 100,00 %
31.03.2016 15:27 21,3 C 49 % 1006,8 hPa 0,0 l/m 11,2 km/h (2 Bft) O-NO 64 1 min 0,000 mm 2,3 UV-I 509 W/m 10,1 C 19,7 C 16,1 km/h (3 Bft) 100,00 %
31.03.2016 15:28 21,3 C 49 % 1006,8 hPa 0,0 l/m 12,4 km/h (3 Bft) O-NO 63 1 min 0,000 mm 2,3 UV-I 512 W/m 10,1 C 19,4 C 16,1 km/h (3 Bft) 100,00 %
31.03.2016 15:29 21,3 C 48 % 1006,8 hPa 0,0 l/m 10,0 km/h (2 Bft) N-NO 31 1 min 0,000 mm 2,4 UV-I 512 W/m 9,8 C 20,1 C 14,5 km/h (3 Bft) 96,55 %
31.03.2016 15:30 21,3 C 52 % 1006,8 hPa 0,0 l/m 16,2 km/h (3 Bft) NO 44 1 min 0,000 mm 2,4 UV-I 542 W/m 11,0 C 18,6 C 20,9 km/h (4 Bft) 93,33 %
31.03.2016 15:31 21,3 C 49 % 1006,8 hPa 0,0 l/m 10,2 km/h (2 Bft) N-NO 27 1 min 0,000 mm 2,5 UV-I 597 W/m 10,1 C 20,0 C 14,5 km/h (3 Bft) 100,00 %
31.03.2016 15:32 21,3 C 50 % 1006,8 hPa 0,0 l/m 12,6 km/h (3 Bft) N-NO 32 1 min 0,000 mm 2,3 UV-I 568 W/m 10,4 C 19,4 C 16,1 km/h (3 Bft) 100,00 %
31.03.2016 15:33 21,3 C 53 % 1006,8 hPa 0,0 l/m 13,0 km/h (3 Bft) N-NO 19 1 min 0,000 mm 2,2 UV-I 568 W/m 11,3 C 19,3 C 16,1 km/h (3 Bft) 100,00 %
31.03.2016 15:34 21,3 C 51 % 1006,8 hPa 0,0 l/m 11,6 km/h (2 Bft) NO 46 1 min 0,000 mm 2,2 UV-I 568 W/m 10,7 C 19,6 C 16,1 km/h (3 Bft) 100,00 %
31.03.2016 15:35 21,2 C 50 % 1006,8 hPa 0,0 l/m 10,6 km/h (2 Bft) NO 44 1 min 0,000 mm 2,2 UV-I 482 W/m 10,4 C 19,8 C 14,5 km/h (3 Bft) 95,83 %
31.03.2016 15:36 21,2 C 52 % 1006,8 hPa 0,0 l/m 12,0 km/h (2 Bft) O-NO 59 1 min 0,000 mm 2,2 UV-I 489 W/m 10,9 C 19,4 C 16,1 km/h (3 Bft) 100,00 %
31.03.2016 15:37 21,2 C 48 % 1006,8 hPa 0,0 l/m 15,0 km/h (3 Bft) O 95 1 min 0,000 mm 2,2 UV-I 531 W/m 9,7 C 18,7 C 17,7 km/h (3 Bft) 100,00 %
31.03.2016 15:38 21,3 C 46 % 1006,8 hPa 0,0 l/m 10,1 km/h (2 Bft) O-NO 66 1 min 0,000 mm 2,3 UV-I 544 W/m 9,2 C 20,0 C 16,1 km/h (3 Bft) 100,00 %
31.03.2016 15:39 21,3 C 48 % 1006,7 hPa 0,0 l/m 14,1 km/h (3 Bft) NO 40 1 min 0,000 mm 2,3 UV-I 556 W/m 9,8 C 19,0 C 17,7 km/h (3 Bft) 100,00 %
31.03.2016 15:40 21,4 C 46 % 1006,7 hPa 0,0 l/m 9,7 km/h (2 Bft) NO 40 1 min 0,000 mm 2,3 UV-I 564 W/m 9,3 C 20,3 C 12,9 km/h (3 Bft) 100,00 %
31.03.2016 15:41 21,4 C 47 % 1006,7 hPa 0,0 l/m 9,3 km/h (2 Bft) O-NO 65 1 min 0,000 mm 2,3 UV-I 530 W/m 9,6 C 20,4 C 14,5 km/h (3 Bft) 100,00 %
31.03.2016 15:42 21,4 C 47 % 1006,7 hPa 0,0 l/m 9,4 km/h (2 Bft) N-NO 24 1 min 0,000 mm 2,1 UV-I 501 W/m 9,6 C 20,4 C 14,5 km/h (3 Bft) 96,55 %
31.03.2016 15:43 21,5 C 50 % 1006,7 hPa 0,0 l/m 6,4 km/h (2 Bft) N-NO 30 1 min 0,000 mm 2,1 UV-I 504 W/m 10,6 C 21,5 C 9,7 km/h (2 Bft) 100,00 %
31.03.2016 15:44 21,6 C 50 % 1006,6 hPa 0,0 l/m 14,6 km/h (3 Bft) NO 36 1 min 0,000 mm 2,1 UV-I 491 W/m 10,7 C 19,3 C 20,9 km/h (4 Bft) 96,15 %
31.03.2016 15:45 21,6 C 50 % 1006,6 hPa 0,0 l/m 16,2 km/h (3 Bft) NO 34 1 min 0,000 mm 2,1 UV-I 489 W/m 10,7 C 18,9 C 17,7 km/h (3 Bft) 100,00 %
31.03.2016 15:46 21,6 C 47 % 1006,6 hPa 0,0 l/m 15,7 km/h (3 Bft) NO 51 1 min 0,000 mm 2,0 UV-I 482 W/m 9,8 C 19,0 C 19,3 km/h (3 Bft) 96,15 %
31.03.2016 15:47 21,5 C 49 % 1006,7 hPa 0,0 l/m 16,3 km/h (3 Bft) NO 36 1 min 0,000 mm 2,0 UV-I 466 W/m 10,3 C 18,8 C 19,3 km/h (3 Bft) 100,00 %
31.03.2016 15:48 21,4 C 47 % 1006,6 hPa 0,0 l/m 10,4 km/h (2 Bft) O-NO 57 1 min 0,000 mm 1,9 UV-I 397 W/m 9,6 C 20,1 C 14,5 km/h (3 Bft) 100,00 %
31.03.2016 15:49 21,4 C 48 % 1006,6 hPa 0,0 l/m 10,3 km/h (2 Bft) O-NO 70 1 min 0,000 mm 1,8 UV-I 394 W/m 9,9 C 20,1 C 14,5 km/h (3 Bft) 100,00 %
31.03.2016 15:50 21,4 C 48 % 1006,6 hPa 0,0 l/m 14,1 km/h (3 Bft) O-NO 63 1 min 0,000 mm 1,9 UV-I 422 W/m 9,9 C 19,1 C 19,3 km/h (3 Bft) 100,00 %
31.03.2016 15:51 21,4 C 47 % 1006,6 hPa 0,0 l/m 16,8 km/h (3 Bft) O-NO 58 1 min 0,000 mm 2,0 UV-I 488 W/m 9,6 C 18,6 C 19,3 km/h (3 Bft) 100,00 %
31.03.2016 15:52 21,4 C 47 % 1006,7 hPa 0,0 l/m 11,2 km/h (2 Bft) NO 43 1 min 0,000 mm 2,0 UV-I 489 W/m 9,6 C 19,9 C 19,3 km/h (3 Bft) 100,00 %
31.03.2016 15:53 21,4 C 48 % 1006,6 hPa 0,0 l/m 10,6 km/h (2 Bft) NO 44 1 min 0,000 mm 1,9 UV-I 474 W/m 9,9 C 20,0 C 14,5 km/h (3 Bft) 100,00 %
31.03.2016 15:54 21,4 C 48 % 1006,6 hPa 0,0 l/m 10,4 km/h (2 Bft) NO 48 1 min 0,000 mm 1,9 UV-I 477 W/m 9,9 C 20,1 C 17,7 km/h (3 Bft) 100,00 %
31.03.2016 15:55 21,4 C 47 % 1006,6 hPa 0,0 l/m 10,7 km/h (2 Bft) NO 55 1 min 0,000 mm 2,0 UV-I 491 W/m 9,6 C 20,0 C 14,5 km/h (3 Bft) 100,00 %
31.03.2016 15:56 21,5 C 46 % 1006,6 hPa 0,0 l/m 9,3 km/h (2 Bft) NO 42 1 min 0,000 mm 1,9 UV-I 482 W/m 9,4 C 20,5 C 16,1 km/h (3 Bft) 100,00 %
31.03.2016 15:57 21,5 C 47 % 1006,6 hPa 0,0 l/m 14,3 km/h (3 Bft) NO 54 1 min 0,000 mm 1,9 UV-I 462 W/m 9,7 C 19,2 C 16,1 km/h (3 Bft) 93,33 %
31.03.2016 15:58 21,5 C 47 % 1006,5 hPa 0,0 l/m 9,2 km/h (2 Bft) N-NO 32 1 min 0,000 mm 1,8 UV-I 450 W/m 9,7 C 20,5 C 12,9 km/h (3 Bft) 100,00 %
31.03.2016 15:59 21,6 C 52 % 1006,5 hPa 0,0 l/m 13,2 km/h (3 Bft) N-NO 23 1 min 0,000 mm 1,8 UV-I 458 W/m 11,3 C 19,6 C 17,7 km/h (3 Bft) 96,15 %
31.03.2016 16:00 21,6 C 50 % 1006,4 hPa 0,0 l/m 10,4 km/h (2 Bft) NO 51 1 min 0,381 mm 1,8 UV-I 405 W/m 10,7 C 20,3 C 14,5 km/h (3 Bft) 100,00 %
31.03.2016 16:02 21,6 C 47 % 1006,4 hPa 0,0 l/m 8,6 km/h (2 Bft) NO 46 2 min 0,000 mm 1,9 UV-I 500 W/m 9,8 C 20,8 C 12,9 km/h (3 Bft) 96,23 %
31.03.2016 16:03 21,6 C 48 % 1006,3 hPa 0,0 l/m 7,3 km/h (2 Bft) NO 35 1 min 0,000 mm 1,9 UV-I 511 W/m 10,1 C 21,3 C 12,9 km/h (3 Bft) 100,00 %
31.03.2016 16:04 21,7 C 50 % 1006,4 hPa 0,0 l/m 8,1 km/h (2 Bft) O-NO 57 1 min 0,000 mm 1,8 UV-I 500 W/m 10,8 C 21,1 C 12,9 km/h (3 Bft) 95,83 %
31.03.2016 16:05 21,7 C 47 % 1006,4 hPa 0,0 l/m 10,6 km/h (2 Bft) O-NO 58 1 min 0,000 mm 1,9 UV-I 502 W/m 9,9 C 20,4 C 12,9 km/h (3 Bft) 100,00 %
31.03.2016 16:06 21,7 C 48 % 1006,4 hPa 0,0 l/m 11,1 km/h (2 Bft) O-NO 78 1 min 0,000 mm 1,9 UV-I 525 W/m 10,2 C 20,2 C 14,5 km/h (3 Bft) 91,67 %
31.03.2016 16:07 21,7 C 47 % 1006,3 hPa 0,0 l/m 13,1 km/h (3 Bft) O-NO 63 1 min 0,000 mm 1,9 UV-I 522 W/m 9,9 C 19,7 C 19,3 km/h (3 Bft) 100,00 %
31.03.2016 16:08 21,7 C 47 % 1006,3 hPa 0,0 l/m 8,9 km/h (2 Bft) O-NO 57 1 min 0,000 mm 1,8 UV-I 518 W/m 9,9 C 20,8 C 16,1 km/h (3 Bft) 96,30 %
31.03.2016 16:09 21,7 C 49 % 1006,3 hPa 0,0 l/m 8,1 km/h (2 Bft) N-NO 18 1 min 0,000 mm 1,8 UV-I 525 W/m 10,5 C 21,1 C 9,7 km/h (2 Bft) 100,00 %
31.03.2016 16:10 21,8 C 49 % 1006,3 hPa 0,0 l/m 11,4 km/h (2 Bft) O-NO 64 1 min 0,000 mm 1,8 UV-I 530 W/m 10,6 C 20,3 C 17,7 km/h (3 Bft) 96,67 %
31.03.2016 16:11 21,8 C 45 % 1006,3 hPa 0,0 l/m 15,5 km/h (3 Bft) NO 51 1 min 0,000 mm 1,8 UV-I 507 W/m 9,3 C 19,3 C 19,3 km/h (3 Bft) 91,30 %
31.03.2016 16:12 21,8 C 46 % 1006,3 hPa 0,0 l/m 11,0 km/h (2 Bft) O-NO 73 1 min 0,000 mm 1,7 UV-I 505 W/m 9,7 C 20,4 C 17,7 km/h (3 Bft) 100,00 %
31.03.2016 16:13 21,8 C 45 % 1006,2 hPa 0,0 l/m 14,6 km/h (3 Bft) NO 38 1 min 0,000 mm 1,7 UV-I 515 W/m 9,3 C 19,5 C 19,3 km/h (3 Bft) 100,00 %
31.03.2016 16:14 21,8 C 44 % 1006,2 hPa 0,0 l/m 12,2 km/h (2 Bft) NO 37 1 min 0,000 mm 1,7 UV-I 487 W/m 9,0 C 20,1 C 16,1 km/h (3 Bft) 96,55 %
31.03.2016 16:15 21,8 C 45 % 1006,2 hPa 0,0 l/m 13,6 km/h (3 Bft) NO 41 1 min 0,000 mm 1,7 UV-I 489 W/m 9,3 C 19,7 C 16,1 km/h (3 Bft) 92,31 %
31.03.2016 16:16 21,8 C 44 % 1006,2 hPa 0,0 l/m 11,4 km/h (2 Bft) NO 37 1 min 0,000 mm 1,6 UV-I 496 W/m 9,0 C 20,3 C 16,1 km/h (3 Bft) 92,59 %
31.03.2016 16:17 21,7 C 45 % 1006,3 hPa 0,0 l/m 11,1 km/h (2 Bft) NO 53 1 min 0,000 mm 1,5 UV-I 489 W/m 9,2 C 20,2 C 16,1 km/h (3 Bft) 86,67 %
31.03.2016 16:18 21,8 C 46 % 1006,3 hPa 0,0 l/m 11,1 km/h (2 Bft) O-NO 65 1 min 0,000 mm 1,4 UV-I 306 W/m 9,7 C 20,3 C 16,1 km/h (3 Bft) 100,00 %
31.03.2016 16:19 21,7 C 46 % 1006,3 hPa 0,0 l/m 9,3 km/h (2 Bft) O-NO 59 1 min 0,000 mm 1,6 UV-I 336 W/m 9,6 C 20,7 C 12,9 km/h (3 Bft) 95,83 %
31.03.2016 16:20 21,7 C 46 % 1006,3 hPa 0,0 l/m 11,5 km/h (2 Bft) NO 56 1 min 0,000 mm 1,5 UV-I 456 W/m 9,6 C 20,1 C 16,1 km/h (3 Bft) 98,61 %
31.03.2016 16:21 21,7 C 46 % 1006,2 hPa 0,0 l/m 14,9 km/h (3 Bft) NO 43 1 min 0,000 mm 1,4 UV-I 424 W/m 9,6 C 19,3 C 19,3 km/h (3 Bft) 97,87 %
31.03.2016 16:22 21,7 C 43 % 1006,3 hPa 0,0 l/m 15,9 km/h (3 Bft) O-NO 61 1 min 0,000 mm 1,5 UV-I 445 W/m 8,6 C 19,1 C 19,3 km/h (3 Bft) 86,96 %
31.03.2016 16:23 21,7 C 44 % 1006,2 hPa 0,0 l/m 16,2 km/h (3 Bft) O-NO 59 1 min 0,000 mm 1,4 UV-I 422 W/m 8,9 C 19,1 C 19,3 km/h (3 Bft) 100,00 %
31.03.2016 16:24 21,7 C 43 % 1006,2 hPa 0,0 l/m 12,5 km/h (3 Bft) O-NO 59 1 min 0,000 mm 1,2 UV-I 391 W/m 8,6 C 19,9 C 17,7 km/h (3 Bft) 95,65 %
31.03.2016 16:25 21,6 C 45 % 1006,2 hPa 0,0 l/m 9,5 km/h (2 Bft) O-NO 57 0 min 0,000 mm 1,2 UV-I 265 W/m 9,2 C 20,6 C 14,5 km/h (3 Bft) 100,00 %
31.03.2016 16:26 21,6 C 44 % 1006,1 hPa 0,0 l/m 11,3 km/h (2 Bft) O 80 1 min 0,000 mm 1,3 UV-I 276 W/m 8,8 C 20,1 C 16,1 km/h (3 Bft) 92,86 %
31.03.2016 16:27 21,6 C 45 % 1006,1 hPa 0,0 l/m 11,8 km/h (2 Bft) NO 38 1 min 0,000 mm 1,2 UV-I 276 W/m 9,2 C 19,9 C 16,1 km/h (3 Bft) 96,97 %
31.03.2016 16:28 21,6 C 45 % 1006,1 hPa 0,0 l/m 8,0 km/h (2 Bft) NO 51 0 min 0,000 mm 1,1 UV-I 262 W/m 9,2 C 21,0 C 11,3 km/h (2 Bft) 92,86 %
31.03.2016 16:29 21,5 C 47 % 1006,1 hPa 0,0 l/m 13,8 km/h (3 Bft) NO 40 0 min 0,000 mm 1,1 UV-I 197 W/m 9,7 C 19,3 C 19,3 km/h (3 Bft) 100,00 %
31.03.2016 16:30 21,4 C 47 % 1006,1 hPa 0,0 l/m 14,7 km/h (3 Bft) NO 55 0 min 0,000 mm 1,2 UV-I 232 W/m 9,6 C 19,0 C 17,7 km/h (3 Bft) 100,00 %
31.03.2016 16:31 21,4 C 45 % 1006,1 hPa 0,0 l/m 12,6 km/h (3 Bft) O-NO 63 0 min 0,000 mm 1,2 UV-I 257 W/m 9,0 C 19,5 C 19,3 km/h (3 Bft) 100,00 %
31.03.2016 16:32 21,4 C 45 % 1006,1 hPa 0,0 l/m 12,8 km/h (3 Bft) N-NO 27 1 min 0,000 mm 1,2 UV-I 342 W/m 9,0 C 19,4 C 16,1 km/h (3 Bft) 100,00 %
31.03.2016 16:33 21,4 C 44 % 1006,0 hPa 0,0 l/m 12,7 km/h (3 Bft) NO 41 1 min 0,000 mm 1,2 UV-I 353 W/m 8,6 C 19,5 C 16,1 km/h (3 Bft) 100,00 %
31.03.2016 16:34 21,4 C 45 % 1006,0 hPa 0,0 l/m 15,7 km/h (3 Bft) NO 43 1 min 0,000 mm 1,2 UV-I 364 W/m 9,0 C 18,8 C 20,9 km/h (4 Bft) 100,00 %
31.03.2016 16:35 21,3 C 46 % 1006,0 hPa 0,0 l/m 16,7 km/h (3 Bft) NO 55 1 min 0,000 mm 1,2 UV-I 361 W/m 9,2 C 18,5 C 20,9 km/h (4 Bft) 95,83 %
31.03.2016 16:36 21,3 C 48 % 1006,0 hPa 0,0 l/m 16,8 km/h (3 Bft) NO 52 1 min 0,000 mm 1,1 UV-I 304 W/m 9,8 C 18,5 C 19,3 km/h (3 Bft) 100,00 %
31.03.2016 16:37 21,3 C 47 % 1006,1 hPa 0,0 l/m 11,5 km/h (2 Bft) O-NO 61 1 min 0,000 mm 1,1 UV-I 266 W/m 9,5 C 19,7 C 16,1 km/h (3 Bft) 100,00 %
31.03.2016 16:38 21,3 C 46 % 1006,1 hPa 0,0 l/m 7,8 km/h (2 Bft) NO 51 0 min 0,000 mm 1,0 UV-I 209 W/m 9,2 C 20,8 C 16,1 km/h (3 Bft) 100,00 %
31.03.2016 16:39 21,3 C 45 % 1006,1 hPa 0,0 l/m 9,9 km/h (2 Bft) NO 36 0 min 0,000 mm 1,0 UV-I 185 W/m 8,9 C 20,1 C 14,5 km/h (3 Bft) 100,00 %
31.03.2016 16:40 21,3 C 44 % 1006,0 hPa 0,0 l/m 11,1 km/h (2 Bft) NO 43 0 min 0,000 mm 0,9 UV-I 168 W/m 8,5 C 19,8 C 14,5 km/h (3 Bft) 100,00 %
31.03.2016 16:41 21,2 C 44 % 1006,0 hPa 0,0 l/m 11,2 km/h (2 Bft) N-NO 30 0 min 0,000 mm 0,9 UV-I 171 W/m 8,5 C 19,6 C 17,7 km/h (3 Bft) 100,00 %
31.03.2016 16:42 21,2 C 47 % 1006,0 hPa 0,0 l/m 12,6 km/h (3 Bft) O-NO 59 0 min 0,000 mm 0,9 UV-I 166 W/m 9,4 C 19,3 C 17,7 km/h (3 Bft) 100,00 %
31.03.2016 16:43 21,1 C 44 % 1006,0 hPa 0,0 l/m 12,7 km/h (3 Bft) N-NO 30 0 min 0,000 mm 0,8 UV-I 170 W/m 8,4 C 19,1 C 16,1 km/h (3 Bft) 100,00 %
31.03.2016 16:44 21,1 C 43 % 1006,0 hPa 0,0 l/m 13,5 km/h (3 Bft) O-NO 58 0 min 0,000 mm 0,8 UV-I 173 W/m 8,0 C 18,9 C 16,1 km/h (3 Bft) 100,00 %
31.03.2016 16:45 21,1 C 44 % 1006,0 hPa 0,0 l/m 10,5 km/h (2 Bft) NO 51 0 min 0,000 mm 0,8 UV-I 177 W/m 8,4 C 19,7 C 16,1 km/h (3 Bft) 100,00 %
31.03.2016 16:46 21,1 C 45 % 1006,0 hPa 0,0 l/m 10,1 km/h (2 Bft) N-NO 30 0 min 0,000 mm 0,8 UV-I 182 W/m 8,7 C 19,8 C 16,1 km/h (3 Bft) 100,00 %
31.03.2016 16:47 21,1 C 45 % 1005,9 hPa 0,0 l/m 11,2 km/h (2 Bft) O-NO 63 0 min 0,000 mm 0,8 UV-I 189 W/m 8,7 C 19,5 C 14,5 km/h (3 Bft) 92,86 %
31.03.2016 16:48 21,1 C 46 % 1005,9 hPa 0,0 l/m 9,7 km/h (2 Bft) NO 56 0 min 0,000 mm 0,8 UV-I 196 W/m 9,0 C 19,9 C 14,5 km/h (3 Bft) 100,00 %
31.03.2016 16:49 21,0 C 48 % 1005,9 hPa 0,0 l/m 8,0 km/h (2 Bft) NO 37 0 min 0,000 mm 0,8 UV-I 196 W/m 9,6 C 20,4 C 12,9 km/h (3 Bft) 100,00 %
31.03.2016 16:50 20,9 C 45 % 1005,9 hPa 0,0 l/m 10,5 km/h (2 Bft) O-NO 57 0 min 0,000 mm 0,8 UV-I 193 W/m 8,5 C 19,5 C 14,5 km/h (3 Bft) 100,00 %
31.03.2016 16:51 20,9 C 46 % 1005,9 hPa 0,0 l/m 7,9 km/h (2 Bft) NO 53 0 min 0,000 mm 0,8 UV-I 188 W/m 8,8 C 20,3 C 11,3 km/h (2 Bft) 100,00 %
31.03.2016 16:52 20,9 C 47 % 1005,9 hPa 0,0 l/m 9,7 km/h (2 Bft) NO 42 0 min 0,000 mm 0,8 UV-I 186 W/m 9,2 C 19,7 C 14,5 km/h (3 Bft) 100,00 %
31.03.2016 16:53 20,9 C 46 % 1005,9 hPa 0,0 l/m 10,2 km/h (2 Bft) O-NO 59 0 min 0,000 mm 0,7 UV-I 185 W/m 8,8 C 19,6 C 12,9 km/h (3 Bft) 100,00 %
31.03.2016 16:54 20,8 C 47 % 1005,8 hPa 0,0 l/m 9,3 km/h (2 Bft) O-NO 66 0 min 0,000 mm 0,7 UV-I 182 W/m 9,1 C 19,7 C 14,5 km/h (3 Bft) 100,00 %
31.03.2016 16:55 20,8 C 47 % 1005,8 hPa 0,0 l/m 11,6 km/h (2 Bft) O-NO 62 0 min 0,000 mm 0,7 UV-I 185 W/m 9,1 C 19,1 C 16,1 km/h (3 Bft) 92,31 %
31.03.2016 16:56 20,8 C 48 % 1005,8 hPa 0,0 l/m 10,3 km/h (2 Bft) NO 51 0 min 0,000 mm 0,7 UV-I 192 W/m 9,4 C 19,4 C 14,5 km/h (3 Bft) 100,00 %
31.03.2016 16:57 20,8 C 48 % 1005,8 hPa 0,0 l/m 15,4 km/h (3 Bft) O-NO 69 0 min 0,000 mm 0,7 UV-I 192 W/m 9,4 C 18,1 C 19,3 km/h (3 Bft) 100,00 %
31.03.2016 16:58 20,7 C 48 % 1005,8 hPa 0,0 l/m 13,6 km/h (3 Bft) O-NO 59 0 min 0,000 mm 0,7 UV-I 193 W/m 9,3 C 18,4 C 17,7 km/h (3 Bft) 100,00 %
31.03.2016 16:59 20,7 C 47 % 1005,7 hPa 0,0 l/m 11,0 km/h (2 Bft) O-NO 78 0 min 0,000 mm 0,7 UV-I 196 W/m 9,0 C 19,1 C 14,5 km/h (3 Bft) 100,00 %
31.03.2016 17:00 20,7 C 47 % 1005,7 hPa 0,0 l/m 9,7 km/h (2 Bft) O-NO 58 0 min 0,280 mm 0,7 UV-I 200 W/m 9,0 C 19,5 C 14,5 km/h (3 Bft) 100,00 %
31.03.2016 17:02 20,7 C 48 % 1005,7 hPa 0,0 l/m 12,0 km/h (2 Bft) O-NO 76 0 min 0,000 mm 0,7 UV-I 202 W/m 9,3 C 18,8 C 17,7 km/h (3 Bft) 98,08 %
31.03.2016 17:03 20,7 C 48 % 1005,7 hPa 0,0 l/m 9,1 km/h (2 Bft) NO 48 0 min 0,000 mm 0,6 UV-I 188 W/m 9,3 C 19,7 C 11,3 km/h (2 Bft) 100,00 %
31.03.2016 17:04 20,7 C 48 % 1005,7 hPa 0,0 l/m 7,7 km/h (2 Bft) NO 53 0 min 0,000 mm 0,6 UV-I 182 W/m 9,3 C 20,2 C 9,7 km/h (2 Bft) 100,00 %
31.03.2016 17:05 20,7 C 49 % 1005,7 hPa 0,0 l/m 7,6 km/h (2 Bft) N-NO 20 0 min 0,000 mm 0,6 UV-I 182 W/m 9,6 C 20,2 C 12,9 km/h (3 Bft) 100,00 %
31.03.2016 17:06 20,7 C 48 % 1005,8 hPa 0,0 l/m 8,0 km/h (2 Bft) N-NO 23 0 min 0,000 mm 0,6 UV-I 187 W/m 9,3 C 20,1 C 11,3 km/h (2 Bft) 100,00 %
31.03.2016 17:07 20,6 C 51 % 1005,8 hPa 0,0 l/m 6,7 km/h (2 Bft) N-NO 31 0 min 0,000 mm 0,6 UV-I 185 W/m 10,1 C 20,5 C 8,0 km/h (2 Bft) 100,00 %
31.03.2016 17:08 20,5 C 50 % 1005,7 hPa 0,0 l/m 5,4 km/h (1 Bft) N-NO 27 0 min 0,000 mm 0,6 UV-I 184 W/m 9,7 C 20,5 C 6,4 km/h (2 Bft) 100,00 %
31.03.2016 17:09 20,4 C 51 % 1005,7 hPa 0,0 l/m 6,6 km/h (2 Bft) NO 46 0 min 0,000 mm 0,6 UV-I 182 W/m 9,9 C 20,3 C 9,7 km/h (2 Bft) 100,00 %
31.03.2016 17:10 20,4 C 51 % 1005,7 hPa 0,0 l/m 4,2 km/h (1 Bft) N-NO 17 0 min 0,000 mm 0,6 UV-I 185 W/m 9,9 C 20,4 C 6,4 km/h (2 Bft) 96,15 %
31.03.2016 17:11 20,3 C 53 % 1005,7 hPa 0,0 l/m 5,8 km/h (2 Bft) NO 36 0 min 0,000 mm 0,6 UV-I 185 W/m 10,4 C 20,3 C 8,0 km/h (2 Bft) 100,00 %
31.03.2016 17:12 20,3 C 52 % 1005,7 hPa 0,0 l/m 5,9 km/h (2 Bft) N-NO 25 0 min 0,000 mm 0,6 UV-I 187 W/m 10,1 C 20,3 C 8,0 km/h (2 Bft) 95,65 %
31.03.2016 17:13 20,3 C 51 % 1005,7 hPa 0,0 l/m 6,9 km/h (2 Bft) N-NO 33 0 min 0,000 mm 0,6 UV-I 189 W/m 9,8 C 20,1 C 8,0 km/h (2 Bft) 100,00 %
31.03.2016 17:14 20,2 C 52 % 1005,6 hPa 0,0 l/m 6,1 km/h (2 Bft) NO 40 0 min 0,000 mm 0,6 UV-I 192 W/m 10,0 C 20,2 C 8,0 km/h (2 Bft) 100,00 %
31.03.2016 17:15 20,3 C 51 % 1005,6 hPa 0,0 l/m 8,1 km/h (2 Bft) N-NO 24 0 min 0,000 mm 0,6 UV-I 193 W/m 9,8 C 19,6 C 11,3 km/h (2 Bft) 93,75 %
31.03.2016 17:16 20,3 C 49 % 1005,7 hPa 0,0 l/m 7,3 km/h (2 Bft) NO 56 0 min 0,000 mm 0,6 UV-I 192 W/m 9,2 C 19,9 C 8,0 km/h (2 Bft) 100,00 %
31.03.2016 17:17 20,3 C 52 % 1005,7 hPa 0,0 l/m 6,9 km/h (2 Bft) O-NO 63 0 min 0,000 mm 0,6 UV-I 191 W/m 10,1 C 20,1 C 9,7 km/h (2 Bft) 98,61 %
31.03.2016 17:18 20,4 C 49 % 1005,7 hPa 0,0 l/m 5,5 km/h (1 Bft) O-NO 63 0 min 0,000 mm 0,5 UV-I 182 W/m 9,3 C 20,4 C 6,4 km/h (2 Bft) 100,00 %
31.03.2016 17:19 20,4 C 49 % 1005,7 hPa 0,0 l/m 6,1 km/h (2 Bft) O-NO 57 0 min 0,000 mm 0,5 UV-I 176 W/m 9,3 C 20,4 C 8,0 km/h (2 Bft) 100,00 %
31.03.2016 17:20 20,4 C 51 % 1005,7 hPa 0,0 l/m 5,6 km/h (1 Bft) NO 55 0 min 0,000 mm 0,5 UV-I 173 W/m 9,9 C 20,4 C 8,0 km/h (2 Bft) 100,00 %
31.03.2016 17:21 20,4 C 50 % 1005,7 hPa 0,0 l/m 3,4 km/h (1 Bft) O-NO 58 0 min 0,000 mm 0,5 UV-I 176 W/m 9,6 C 20,4 C 4,8 km/h (1 Bft) 100,00 %
31.03.2016 17:22 20,4 C 50 % 1005,7 hPa 0,0 l/m 3,9 km/h (1 Bft) O-NO 59 0 min 0,000 mm 0,5 UV-I 173 W/m 9,6 C 20,4 C 6,4 km/h (2 Bft) 100,00 %
31.03.2016 17:23 20,4 C 51 % 1005,7 hPa 0,0 l/m 5,1 km/h (1 Bft) O-NO 58 0 min 0,000 mm 0,5 UV-I 170 W/m 9,9 C 20,4 C 6,4 km/h (2 Bft) 100,00 %
31.03.2016 17:24 20,3 C 52 % 1005,7 hPa 0,0 l/m 6,0 km/h (2 Bft) NO 46 0 min 0,000 mm 0,5 UV-I 170 W/m 10,1 C 20,3 C 8,0 km/h (2 Bft) 96,30 %
31.03.2016 17:25 20,4 C 48 % 1005,7 hPa 0,0 l/m 4,2 km/h (1 Bft) NO 51 0 min 0,000 mm 0,5 UV-I 169 W/m 9,0 C 20,4 C 8,0 km/h (2 Bft) 100,00 %
31.03.2016 17:26 20,4 C 49 % 1005,7 hPa 0,0 l/m 4,6 km/h (1 Bft) N-NO 29 0 min 0,000 mm 0,5 UV-I 170 W/m 9,3 C 20,4 C 6,4 km/h (2 Bft) 95,83 %
31.03.2016 17:27 20,4 C 52 % 1005,7 hPa 0,0 l/m 7,2 km/h (2 Bft) NO 39 0 min 0,000 mm 0,5 UV-I 172 W/m 10,2 C 20,1 C 9,7 km/h (2 Bft) 100,00 %
31.03.2016 17:28 20,4 C 49 % 1005,6 hPa 0,0 l/m 5,1 km/h (1 Bft) NO 36 0 min 0,000 mm 0,5 UV-I 171 W/m 9,3 C 20,4 C 8,0 km/h (2 Bft) 100,00 %
31.03.2016 17:29 20,3 C 50 % 1005,7 hPa 0,0 l/m 5,8 km/h (2 Bft) NO 49 0 min 0,000 mm 0,5 UV-I 164 W/m 9,5 C 20,3 C 8,0 km/h (2 Bft) 100,00 %
31.03.2016 17:30 20,3 C 50 % 1005,7 hPa 0,0 l/m 5,1 km/h (1 Bft) NO 40 0 min 0,000 mm 0,4 UV-I 159 W/m 9,5 C 20,3 C 8,0 km/h (2 Bft) 100,00 %
31.03.2016 17:31 20,3 C 50 % 1005,6 hPa 0,0 l/m 6,6 km/h (2 Bft) NO 46 0 min 0,000 mm 0,0 UV-I 154 W/m 9,5 C 20,2 C 9,7 km/h (2 Bft) 100,00 %
31.03.2016 17:32 20,3 C 50 % 1005,6 hPa 0,0 l/m 6,2 km/h (2 Bft) NO 41 0 min 0,000 mm 0,0 UV-I 150 W/m 9,5 C 20,3 C 9,7 km/h (2 Bft) 100,00 %
31.03.2016 17:33 20,2 C 49 % 1005,6 hPa 0,0 l/m 5,6 km/h (1 Bft) N-NO 33 0 min 0,000 mm 0,0 UV-I 146 W/m 9,1 C 20,2 C 8,0 km/h (2 Bft) 100,00 %
31.03.2016 17:34 20,2 C 49 % 1005,6 hPa 0,0 l/m 4,9 km/h (1 Bft) NO 44 0 min 0,000 mm 0,0 UV-I 141 W/m 9,1 C 20,2 C 6,4 km/h (2 Bft) 100,00 %
31.03.2016 17:35 20,3 C 49 % 1005,6 hPa 0,0 l/m 4,6 km/h (1 Bft) NO 54 0 min 0,000 mm 0,0 UV-I 138 W/m 9,2 C 20,3 C 4,8 km/h (1 Bft) 100,00 %
31.03.2016 17:36 20,3 C 48 % 1005,6 hPa 0,0 l/m 5,9 km/h (2 Bft) O-NO 58 0 min 0,000 mm 0,0 UV-I 136 W/m 8,9 C 20,3 C 6,4 km/h (2 Bft) 100,00 %
31.03.2016 17:37 20,3 C 48 % 1005,6 hPa 0,0 l/m 5,0 km/h (1 Bft) O-NO 63 0 min 0,000 mm 0,0 UV-I 132 W/m 8,9 C 20,3 C 8,0 km/h (2 Bft) 100,00 %
31.03.2016 17:38 20,4 C 46 % 1005,6 hPa 0,0 l/m 5,6 km/h (1 Bft) O-NO 58 0 min 0,000 mm 0,0 UV-I 128 W/m 8,4 C 20,4 C 8,0 km/h (2 Bft) 100,00 %
31.03.2016 17:39 20,4 C 48 % 1005,6 hPa 0,0 l/m 5,7 km/h (1 Bft) O-NO 67 0 min 0,000 mm 0,0 UV-I 124 W/m 9,0 C 20,4 C 6,4 km/h (2 Bft) 100,00 %
31.03.2016 17:40 20,4 C 46 % 1005,6 hPa 0,0 l/m 6,0 km/h (2 Bft) NO 53 0 min 0,000 mm 0,0 UV-I 120 W/m 8,4 C 20,4 C 8,0 km/h (2 Bft) 96,55 %
31.03.2016 17:41 20,5 C 47 % 1005,6 hPa 0,0 l/m 5,4 km/h (1 Bft) O-NO 60 0 min 0,000 mm 0,0 UV-I 117 W/m 8,8 C 20,5 C 6,4 km/h (2 Bft) 91,67 %
31.03.2016 17:42 20,5 C 46 % 1005,6 hPa 0,0 l/m 4,8 km/h (1 Bft) O-NO 60 0 min 0,000 mm 0,0 UV-I 115 W/m 8,5 C 20,5 C 6,4 km/h (2 Bft) 100,00 %
31.03.2016 17:43 20,4 C 49 % 1005,6 hPa 0,0 l/m 4,4 km/h (1 Bft) O-NO 60 0 min 0,000 mm 0,0 UV-I 113 W/m 9,3 C 20,4 C 6,4 km/h (2 Bft) 100,00 %
31.03.2016 17:44 20,4 C 51 % 1005,6 hPa 0,0 l/m 4,8 km/h (1 Bft) NO 51 0 min 0,000 mm 0,0 UV-I 112 W/m 9,9 C 20,4 C 6,4 km/h (2 Bft) 100,00 %
31.03.2016 17:45 20,3 C 48 % 1005,6 hPa 0,0 l/m 3,1 km/h (1 Bft) NO 51 0 min 0,000 mm 0,0 UV-I 109 W/m 8,9 C 20,3 C 4,8 km/h (1 Bft) 96,30 %
31.03.2016 17:46 20,3 C 49 % 1005,6 hPa 0,0 l/m 5,5 km/h (1 Bft) O-NO 62 0 min 0,000 mm 0,0 UV-I 104 W/m 9,2 C 20,3 C 8,0 km/h (2 Bft) 100,00 %
31.03.2016 17:47 20,3 C 48 % 1005,5 hPa 0,0 l/m 6,6 km/h (2 Bft) NO 53 0 min 0,000 mm 0,0 UV-I 101 W/m 8,9 C 20,2 C 8,0 km/h (2 Bft) 100,00 %
31.03.2016 17:48 20,3 C 49 % 1005,5 hPa 0,0 l/m 6,5 km/h (2 Bft) NO 56 0 min 0,000 mm 0,0 UV-I 98 W/m 9,2 C 20,3 C 9,7 km/h (2 Bft) 100,00 %
31.03.2016 17:49 20,2 C 49 % 1005,5 hPa 0,0 l/m 6,0 km/h (2 Bft) NO 46 0 min 0,000 mm 0,0 UV-I 94 W/m 9,1 C 20,2 C 8,0 km/h (2 Bft) 100,00 %
31.03.2016 17:50 20,2 C 49 % 1005,5 hPa 0,0 l/m 5,2 km/h (1 Bft) NO 55 0 min 0,000 mm 0,0 UV-I 91 W/m 9,1 C 20,2 C 6,4 km/h (2 Bft) 100,00 %
31.03.2016 17:51 20,1 C 49 % 1005,6 hPa 0,0 l/m 4,8 km/h (1 Bft) N-NO 28 0 min 0,000 mm 0,0 UV-I 91 W/m 9,0 C 20,1 C 4,8 km/h (1 Bft) 100,00 %
31.03.2016 17:52 20,1 C 51 % 1005,5 hPa 0,0 l/m 4,1 km/h (1 Bft) NO 38 0 min 0,000 mm 0,0 UV-I 90 W/m 9,6 C 20,1 C 4,8 km/h (1 Bft) 100,00 %
31.03.2016 17:53 19,9 C 52 % 1005,5 hPa 0,0 l/m 4,7 km/h (1 Bft) NO 52 0 min 0,000 mm 0,0 UV-I 89 W/m 9,7 C 19,9 C 6,4 km/h (2 Bft) 100,00 %
31.03.2016 17:54 19,8 C 50 % 1005,5 hPa 0,0 l/m 5,1 km/h (1 Bft) NO 53 0 min 0,000 mm 0,0 UV-I 88 W/m 9,1 C 19,8 C 6,4 km/h (2 Bft) 96,15 %
31.03.2016 17:55 19,8 C 50 % 1005,5 hPa 0,0 l/m 4,8 km/h (1 Bft) NO 46 0 min 0,000 mm 0,0 UV-I 88 W/m 9,1 C 19,8 C 8,0 km/h (2 Bft) 92,59 %
31.03.2016 17:56 19,8 C 49 % 1005,5 hPa 0,0 l/m 4,8 km/h (1 Bft) NO 49 0 min 0,000 mm 0,0 UV-I 88 W/m 8,8 C 19,8 C 6,4 km/h (2 Bft) 100,00 %
31.03.2016 17:57 19,8 C 49 % 1005,5 hPa 0,0 l/m 4,6 km/h (1 Bft) NO 56 0 min 0,000 mm 0,0 UV-I 88 W/m 8,8 C 19,8 C 6,4 km/h (2 Bft) 95,83 %
31.03.2016 17:58 19,9 C 47 % 1005,5 hPa 0,0 l/m 5,4 km/h (1 Bft) O-NO 59 0 min 0,000 mm 0,0 UV-I 90 W/m 8,3 C 19,9 C 6,4 km/h (2 Bft) 100,00 %
31.03.2016 17:59 19,9 C 48 % 1005,5 hPa 0,0 l/m 5,6 km/h (1 Bft) O-NO 68 0 min 0,000 mm 0,0 UV-I 91 W/m 8,6 C 19,9 C 6,4 km/h (2 Bft) 96,15 %
31.03.2016 18:00 19,9 C 48 % 1005,5 hPa 0,0 l/m 5,7 km/h (1 Bft) O-NO 57 0 min 0,127 mm 0,0 UV-I 91 W/m 8,6 C 19,9 C 8,0 km/h (2 Bft) 100,00 %
31.03.2016 18:02 20,0 C 48 % 1005,4 hPa 0,0 l/m 5,8 km/h (2 Bft) NO 55 0 min 0,000 mm 0,0 UV-I 91 W/m 8,7 C 20,0 C 8,0 km/h (2 Bft) 97,37 %
31.03.2016 18:03 20,0 C 48 % 1005,4 hPa 0,0 l/m 6,6 km/h (2 Bft) O-NO 57 0 min 0,000 mm 0,0 UV-I 91 W/m 8,7 C 19,9 C 8,0 km/h (2 Bft) 96,15 %
31.03.2016 18:04 20,0 C 47 % 1005,4 hPa 0,0 l/m 5,6 km/h (1 Bft) O-NO 57 0 min 0,000 mm 0,0 UV-I 91 W/m 8,3 C 20,0 C 6,4 km/h (2 Bft) 95,83 %
31.03.2016 18:05 20,1 C 46 % 1005,3 hPa 0,0 l/m 5,8 km/h (2 Bft) O-NO 70 0 min 0,000 mm 0,0 UV-I 89 W/m 8,1 C 20,1 C 8,0 km/h (2 Bft) 100,00 %
31.03.2016 18:06 20,1 C 48 % 1005,4 hPa 0,0 l/m 5,4 km/h (1 Bft) O-NO 66 0 min 0,000 mm 0,0 UV-I 87 W/m 8,7 C 20,1 C 6,4 km/h (2 Bft) 95,83 %
31.03.2016 18:07 20,0 C 49 % 1005,3 hPa 0,0 l/m 5,6 km/h (1 Bft) O-NO 67 0 min 0,000 mm 0,0 UV-I 84 W/m 9,0 C 20,0 C 8,0 km/h (2 Bft) 100,00 %
31.03.2016 18:08 19,9 C 51 % 1005,3 hPa 0,0 l/m 4,9 km/h (1 Bft) NO 53 0 min 0,000 mm 0,0 UV-I 83 W/m 9,5 C 19,9 C 8,0 km/h (2 Bft) 96,15 %
31.03.2016 18:09 19,8 C 50 % 1005,3 hPa 0,0 l/m 5,3 km/h (1 Bft) O-NO 74 0 min 0,000 mm 0,0 UV-I 76 W/m 9,1 C 19,8 C 6,4 km/h (2 Bft) 100,00 %
31.03.2016 18:10 19,8 C 50 % 1005,2 hPa 0,0 l/m 5,4 km/h (1 Bft) O-NO 65 0 min 0,000 mm 0,0 UV-I 74 W/m 9,1 C 19,8 C 6,4 km/h (2 Bft) 95,45 %
31.03.2016 18:11 19,7 C 50 % 1005,2 hPa 0,0 l/m 5,4 km/h (1 Bft) O-NO 69 0 min 0,000 mm 0,0 UV-I 71 W/m 9,0 C 19,7 C 6,4 km/h (2 Bft) 100,00 %
31.03.2016 18:12 19,7 C 50 % 1005,2 hPa 0,0 l/m 5,4 km/h (1 Bft) NO 56 0 min 0,000 mm 0,0 UV-I 70 W/m 9,0 C 19,7 C 9,7 km/h (2 Bft) 96,15 %
31.03.2016 18:13 19,7 C 49 % 1005,2 hPa 0,0 l/m 6,3 km/h (2 Bft) NO 53 0 min 0,000 mm 0,0 UV-I 68 W/m 8,7 C 19,7 C 8,0 km/h (2 Bft) 100,00 %
31.03.2016 18:14 19,7 C 50 % 1005,1 hPa 0,0 l/m 5,9 km/h (2 Bft) NO 53 0 min 0,000 mm 0,0 UV-I 65 W/m 9,0 C 19,7 C 6,4 km/h (2 Bft) 97,56 %
31.03.2016 18:15 19,7 C 50 % 1005,1 hPa 0,0 l/m 5,6 km/h (1 Bft) O-NO 71 0 min 0,000 mm 0,0 UV-I 63 W/m 9,0 C 19,7 C 8,0 km/h (2 Bft) 98,61 %
31.03.2016 18:16 19,6 C 50 % 1005,1 hPa 0,0 l/m 5,3 km/h (1 Bft) NO 55 0 min 0,000 mm 0,0 UV-I 63 W/m 8,9 C 19,6 C 6,4 km/h (2 Bft) 97,56 %
31.03.2016 18:17 19,6 C 53 % 1005,1 hPa 0,0 l/m 6,0 km/h (2 Bft) O-NO 70 0 min 0,000 mm 0,0 UV-I 61 W/m 9,8 C 19,6 C 9,7 km/h (2 Bft) 95,83 %
31.03.2016 18:18 19,4 C 53 % 1005,1 hPa 0,0 l/m 4,6 km/h (1 Bft) NO 50 0 min 0,000 mm 0,0 UV-I 60 W/m 9,6 C 19,4 C 6,4 km/h (2 Bft) 95,65 %
31.03.2016 18:19 19,3 C 53 % 1005,1 hPa 0,0 l/m 5,6 km/h (1 Bft) O 79 0 min 0,000 mm 0,0 UV-I 59 W/m 9,5 C 19,3 C 8,0 km/h (2 Bft) 96,67 %
31.03.2016 18:20 19,2 C 54 % 1005,1 hPa 0,0 l/m 7,0 km/h (2 Bft) O-NO 73 0 min 0,000 mm 0,0 UV-I 56 W/m 9,7 C 18,9 C 11,3 km/h (2 Bft) 92,86 %
31.03.2016 18:21 19,2 C 51 % 1005,1 hPa 0,0 l/m 6,3 km/h (2 Bft) O-NO 71 0 min 0,000 mm 0,0 UV-I 56 W/m 8,8 C 19,2 C 8,0 km/h (2 Bft) 96,30 %
31.03.2016 18:22 19,2 C 52 % 1005,1 hPa 0,0 l/m 7,2 km/h (2 Bft) O-NO 66 0 min 0,000 mm 0,0 UV-I 54 W/m 9,1 C 18,9 C 8,0 km/h (2 Bft) 96,55 %
31.03.2016 18:23 19,1 C 53 % 1005,1 hPa 0,0 l/m 5,4 km/h (1 Bft) O-NO 71 0 min 0,000 mm 0,0 UV-I 52 W/m 9,3 C 19,1 C 8,0 km/h (2 Bft) 100,00 %
31.03.2016 18:24 19,1 C 53 % 1005,1 hPa 0,0 l/m 6,7 km/h (2 Bft) O 82 0 min 0,000 mm 0,0 UV-I 51 W/m 9,3 C 19,0 C 8,0 km/h (2 Bft) 95,65 %
31.03.2016 18:25 19,1 C 53 % 1005,1 hPa 0,0 l/m 5,4 km/h (1 Bft) O-NO 69 0 min 0,000 mm 0,0 UV-I 50 W/m 9,3 C 19,1 C 6,4 km/h (2 Bft) 100,00 %
31.03.2016 18:26 19,1 C 53 % 1005,0 hPa 0,0 l/m 5,6 km/h (1 Bft) O-NO 69 0 min 0,000 mm 0,0 UV-I 49 W/m 9,3 C 19,1 C 8,0 km/h (2 Bft) 100,00 %
31.03.2016 18:27 19,0 C 53 % 1005,1 hPa 0,0 l/m 6,0 km/h (2 Bft) O-NO 74 0 min 0,000 mm 0,0 UV-I 47 W/m 9,2 C 19,0 C 8,0 km/h (2 Bft) 100,00 %
31.03.2016 18:28 19,0 C 53 % 1005,1 hPa 0,0 l/m 6,0 km/h (2 Bft) O 80 0 min 0,000 mm 0,0 UV-I 47 W/m 9,2 C 19,0 C 8,0 km/h (2 Bft) 100,00 %
31.03.2016 18:29 19,0 C 53 % 1005,0 hPa 0,0 l/m 5,2 km/h (1 Bft) O-NO 67 0 min 0,000 mm 0,0 UV-I 47 W/m 9,2 C 19,0 C 6,4 km/h (2 Bft) 100,00 %
31.03.2016 18:30 19,0 C 52 % 1005,0 hPa 0,0 l/m 3,9 km/h (1 Bft) O 101 0 min 0,000 mm 0,0 UV-I 46 W/m 8,9 C 19,0 C 4,8 km/h (1 Bft) 100,00 %
31.03.2016 18:31 19,0 C 51 % 1005,0 hPa 0,0 l/m 4,4 km/h (1 Bft) O 91 0 min 0,000 mm 0,0 UV-I 46 W/m 8,6 C 19,0 C 6,4 km/h (2 Bft) 96,30 %
31.03.2016 18:32 19,0 C 51 % 1005,0 hPa 0,0 l/m 4,3 km/h (1 Bft) O 85 0 min 0,000 mm 0,0 UV-I 46 W/m 8,6 C 19,0 C 6,4 km/h (2 Bft) 100,00 %
31.03.2016 18:33 19,0 C 52 % 1005,0 hPa 0,0 l/m 6,6 km/h (2 Bft) O-NO 69 0 min 0,000 mm 0,0 UV-I 44 W/m 8,9 C 18,9 C 8,0 km/h (2 Bft) 100,00 %
31.03.2016 18:34 19,1 C 51 % 1004,9 hPa 0,0 l/m 6,6 km/h (2 Bft) O 80 0 min 0,000 mm 0,0 UV-I 43 W/m 8,7 C 19,0 C 8,0 km/h (2 Bft) 100,00 %
31.03.2016 18:35 19,1 C 51 % 1004,9 hPa 0,0 l/m 7,6 km/h (2 Bft) O-NO 75 0 min 0,000 mm 0,0 UV-I 41 W/m 8,7 C 18,6 C 9,7 km/h (2 Bft) 100,00 %
31.03.2016 18:36 19,1 C 50 % 1004,8 hPa 0,0 l/m 5,8 km/h (2 Bft) O 81 0 min 0,000 mm 0,0 UV-I 39 W/m 8,4 C 19,1 C 8,0 km/h (2 Bft) 100,00 %
31.03.2016 18:37 19,1 C 50 % 1004,8 hPa 0,0 l/m 6,4 km/h (2 Bft) O-NO 59 0 min 0,000 mm 0,0 UV-I 37 W/m 8,4 C 19,1 C 9,7 km/h (2 Bft) 100,00 %
31.03.2016 18:38 19,1 C 50 % 1004,8 hPa 0,0 l/m 7,5 km/h (2 Bft) O-NO 77 0 min 0,000 mm 0,0 UV-I 35 W/m 8,4 C 18,6 C 11,3 km/h (2 Bft) 100,00 %
31.03.2016 18:39 19,1 C 50 % 1004,7 hPa 0,0 l/m 7,7 km/h (2 Bft) O-NO 71 0 min 0,000 mm 0,0 UV-I 34 W/m 8,4 C 18,5 C 11,3 km/h (2 Bft) 100,00 %
31.03.2016 18:40 19,2 C 51 % 1004,7 hPa 0,0 l/m 8,7 km/h (2 Bft) O-NO 78 0 min 0,000 mm 0,0 UV-I 33 W/m 8,8 C 18,2 C 12,9 km/h (3 Bft) 100,00 %
31.03.2016 18:41 19,1 C 51 % 1004,7 hPa 0,0 l/m 9,3 km/h (2 Bft) NO 51 0 min 0,000 mm 0,0 UV-I 33 W/m 8,7 C 17,9 C 12,9 km/h (3 Bft) 100,00 %
31.03.2016 18:42 19,1 C 50 % 1004,7 hPa 0,0 l/m 7,4 km/h (2 Bft) O-NO 65 0 min 0,000 mm 0,0 UV-I 32 W/m 8,4 C 18,7 C 12,9 km/h (3 Bft) 100,00 %
31.03.2016 18:43 19,1 C 51 % 1004,7 hPa 0,0 l/m 8,9 km/h (2 Bft) O-NO 78 0 min 0,000 mm 0,0 UV-I 32 W/m 8,7 C 18,0 C 12,9 km/h (3 Bft) 96,15 %
31.03.2016 18:44 19,1 C 51 % 1004,7 hPa 0,0 l/m 10,0 km/h (2 Bft) O-NO 70 0 min 0,000 mm 0,0 UV-I 32 W/m 8,7 C 17,6 C 14,5 km/h (3 Bft) 100,00 %
31.03.2016 18:45 19,1 C 50 % 1004,6 hPa 0,0 l/m 10,1 km/h (2 Bft) O 86 0 min 0,000 mm 0,0 UV-I 32 W/m 8,4 C 17,6 C 12,9 km/h (3 Bft) 100,00 %
31.03.2016 18:46 19,1 C 51 % 1004,7 hPa 0,0 l/m 6,4 km/h (2 Bft) O 101 0 min 0,000 mm 0,0 UV-I 32 W/m 8,7 C 19,1 C 11,3 km/h (2 Bft) 100,00 %
31.03.2016 18:47 19,1 C 52 % 1004,7 hPa 0,0 l/m 4,2 km/h (1 Bft) O 90 0 min 0,000 mm 0,0 UV-I 32 W/m 9,0 C 19,1 C 6,4 km/h (2 Bft) 100,00 %
31.03.2016 18:48 19,1 C 51 % 1004,7 hPa 0,0 l/m 6,0 km/h (2 Bft) O 82 0 min 0,000 mm 0,0 UV-I 33 W/m 8,7 C 19,1 C 8,0 km/h (2 Bft) 100,00 %
31.03.2016 18:49 19,0 C 51 % 1004,6 hPa 0,0 l/m 8,0 km/h (2 Bft) O-NO 76 0 min 0,000 mm 0,0 UV-I 35 W/m 8,6 C 18,3 C 12,9 km/h (3 Bft) 100,00 %
31.03.2016 18:50 19,0 C 52 % 1004,7 hPa 0,0 l/m 5,2 km/h (1 Bft) O 83 0 min 0,000 mm 0,0 UV-I 37 W/m 8,9 C 19,0 C 6,4 km/h (2 Bft) 100,00 %
31.03.2016 18:51 19,0 C 51 % 1004,7 hPa 0,0 l/m 6,9 km/h (2 Bft) O 89 0 min 0,000 mm 0,0 UV-I 39 W/m 8,6 C 18,8 C 11,3 km/h (2 Bft) 100,00 %
31.03.2016 18:52 19,1 C 51 % 1004,7 hPa 0,0 l/m 9,2 km/h (2 Bft) O-NO 77 0 min 0,000 mm 0,0 UV-I 40 W/m 8,7 C 17,9 C 14,5 km/h (3 Bft) 100,00 %
31.03.2016 18:53 19,1 C 52 % 1004,7 hPa 0,0 l/m 7,8 km/h (2 Bft) O-NO 76 0 min 0,000 mm 0,0 UV-I 40 W/m 9,0 C 18,5 C 11,3 km/h (2 Bft) 100,00 %
31.03.2016 18:54 19,0 C 52 % 1004,7 hPa 0,0 l/m 5,3 km/h (1 Bft) O-NO 69 0 min 0,000 mm 0,0 UV-I 41 W/m 8,9 C 19,0 C 9,7 km/h (2 Bft) 100,00 %
31.03.2016 18:55 19,0 C 52 % 1004,6 hPa 0,0 l/m 9,3 km/h (2 Bft) O 101 0 min 0,000 mm 0,0 UV-I 42 W/m 8,9 C 17,8 C 14,5 km/h (3 Bft) 100,00 %
31.03.2016 18:56 18,9 C 52 % 1004,6 hPa 0,0 l/m 7,1 km/h (2 Bft) O 97 0 min 0,000 mm 0,0 UV-I 42 W/m 8,8 C 18,6 C 12,9 km/h (3 Bft) 100,00 %
31.03.2016 18:57 18,9 C 52 % 1004,6 hPa 0,0 l/m 5,3 km/h (1 Bft) O 82 0 min 0,000 mm 0,0 UV-I 40 W/m 8,8 C 18,9 C 6,4 km/h (2 Bft) 100,00 %
31.03.2016 18:58 18,8 C 54 % 1004,6 hPa 0,0 l/m 7,7 km/h (2 Bft) O 93 0 min 0,000 mm 0,0 UV-I 38 W/m 9,3 C 18,2 C 14,5 km/h (3 Bft) 100,00 %
31.03.2016 18:59 18,8 C 54 % 1004,6 hPa 0,0 l/m 6,4 km/h (2 Bft) O-NO 78 0 min 0,000 mm 0,0 UV-I 36 W/m 9,3 C 18,8 C 12,9 km/h (3 Bft) 100,00 %
31.03.2016 19:00 18,8 C 54 % 1004,5 hPa 0,0 l/m 7,7 km/h (2 Bft) O 82 0 min 0,076 mm 0,0 UV-I 34 W/m 9,3 C 18,2 C 12,9 km/h (3 Bft) 96,15 %
31.03.2016 19:02 18,8 C 53 % 1004,5 hPa 0,0 l/m 10,1 km/h (2 Bft) O 79 0 min 0,000 mm 0,0 UV-I 31 W/m 9,0 C 17,3 C 14,5 km/h (3 Bft) 98,00 %
31.03.2016 19:03 18,8 C 53 % 1004,5 hPa 0,0 l/m 9,9 km/h (2 Bft) O-NO 76 0 min 0,000 mm 0,0 UV-I 27 W/m 9,0 C 17,4 C 12,9 km/h (3 Bft) 100,00 %
31.03.2016 19:04 18,8 C 53 % 1004,5 hPa 0,0 l/m 8,8 km/h (2 Bft) O 89 0 min 0,000 mm 0,0 UV-I 26 W/m 9,0 C 17,8 C 12,9 km/h (3 Bft) 100,00 %
31.03.2016 19:05 18,8 C 53 % 1004,5 hPa 0,0 l/m 7,6 km/h (2 Bft) O 84 0 min 0,000 mm 0,0 UV-I 23 W/m 9,0 C 18,3 C 11,3 km/h (2 Bft) 100,00 %
31.03.2016 19:06 18,8 C 54 % 1004,5 hPa 0,0 l/m 6,8 km/h (2 Bft) O 82 0 min 0,000 mm 0,0 UV-I 21 W/m 9,3 C 18,6 C 11,3 km/h (2 Bft) 100,00 %
31.03.2016 19:07 18,8 C 54 % 1004,5 hPa 0,0 l/m 6,5 km/h (2 Bft) O 101 0 min 0,000 mm 0,0 UV-I 19 W/m 9,3 C 18,8 C 11,3 km/h (2 Bft) 100,00 %
31.03.2016 19:08 18,7 C 54 % 1004,5 hPa 0,0 l/m 6,9 km/h (2 Bft) O 97 0 min 0,000 mm 0,0 UV-I 19 W/m 9,2 C 18,5 C 11,3 km/h (2 Bft) 100,00 %
31.03.2016 19:09 18,7 C 54 % 1004,5 hPa 0,0 l/m 6,4 km/h (2 Bft) O 82 0 min 0,000 mm 0,0 UV-I 17 W/m 9,2 C 18,7 C 9,7 km/h (2 Bft) 100,00 %
31.03.2016 19:10 18,7 C 54 % 1004,5 hPa 0,0 l/m 6,6 km/h (2 Bft) O 94 0 min 0,000 mm 0,0 UV-I 16 W/m 9,2 C 18,6 C 9,7 km/h (2 Bft) 100,00 %
31.03.2016 19:11 18,7 C 54 % 1004,5 hPa 0,0 l/m 6,3 km/h (2 Bft) O 101 0 min 0,000 mm 0,0 UV-I 15 W/m 9,2 C 18,7 C 11,3 km/h (2 Bft) 100,00 %
31.03.2016 19:12 18,6 C 54 % 1004,4 hPa 0,0 l/m 7,4 km/h (2 Bft) O-NO 69 0 min 0,000 mm 0,0 UV-I 14 W/m 9,1 C 18,1 C 11,3 km/h (2 Bft) 100,00 %
31.03.2016 19:13 18,6 C 54 % 1004,4 hPa 0,0 l/m 8,4 km/h (2 Bft) O 81 0 min 0,000 mm 0,0 UV-I 12 W/m 9,1 C 17,7 C 12,9 km/h (3 Bft) 100,00 %
31.03.2016 19:14 18,6 C 54 % 1004,4 hPa 0,0 l/m 11,0 km/h (2 Bft) O-NO 66 0 min 0,000 mm 0,0 UV-I 12 W/m 9,1 C 16,7 C 14,5 km/h (3 Bft) 100,00 %
31.03.2016 19:15 18,6 C 54 % 1004,4 hPa 0,0 l/m 9,7 km/h (2 Bft) O 94 0 min 0,000 mm 0,0 UV-I 12 W/m 9,1 C 17,2 C 14,5 km/h (3 Bft) 100,00 %
31.03.2016 19:16 18,6 C 54 % 1004,4 hPa 0,0 l/m 8,7 km/h (2 Bft) O 86 0 min 0,000 mm 0,0 UV-I 12 W/m 9,1 C 17,6 C 12,9 km/h (3 Bft) 100,00 %
31.03.2016 19:17 18,6 C 54 % 1004,4 hPa 0,0 l/m 10,3 km/h (2 Bft) O 79 0 min 0,000 mm 0,0 UV-I 11 W/m 9,1 C 17,0 C 14,5 km/h (3 Bft) 100,00 %
31.03.2016 19:18 18,6 C 55 % 1004,4 hPa 0,0 l/m 8,6 km/h (2 Bft) O 84 0 min 0,000 mm 0,0 UV-I 11 W/m 9,4 C 17,6 C 12,9 km/h (3 Bft) 100,00 %
31.03.2016 19:19 18,6 C 55 % 1004,4 hPa 0,0 l/m 6,7 km/h (2 Bft) O-NO 78 0 min 0,000 mm 0,0 UV-I 9 W/m 9,4 C 18,5 C 11,3 km/h (2 Bft) 96,15 %
31.03.2016 19:20 18,4 C 55 % 1004,4 hPa 0,0 l/m 3,7 km/h (1 Bft) O-SO 103 0 min 0,000 mm 0,0 UV-I 9 W/m 9,2 C 18,4 C 4,8 km/h (1 Bft) 92,59 %
31.03.2016 19:21 18,4 C 56 % 1004,4 hPa 0,0 l/m 5,6 km/h (1 Bft) O-SO 104 0 min 0,000 mm 0,0 UV-I 9 W/m 9,5 C 18,4 C 8,0 km/h (2 Bft) 96,15 %
31.03.2016 19:22 18,3 C 56 % 1004,4 hPa 0,0 l/m 6,8 km/h (2 Bft) O 95 0 min 0,000 mm 0,0 UV-I 8 W/m 9,4 C 18,1 C 9,7 km/h (2 Bft) 100,00 %
31.03.2016 19:23 18,2 C 56 % 1004,4 hPa 0,0 l/m 7,3 km/h (2 Bft) O 101 0 min 0,000 mm 0,0 UV-I 7 W/m 9,3 C 17,8 C 9,7 km/h (2 Bft) 95,65 %
31.03.2016 19:24 18,2 C 56 % 1004,4 hPa 0,0 l/m 6,0 km/h (2 Bft) O 95 0 min 0,000 mm 0,0 UV-I 7 W/m 9,3 C 18,2 C 9,7 km/h (2 Bft) 100,00 %
31.03.2016 19:25 18,1 C 56 % 1004,4 hPa 0,0 l/m 7,3 km/h (2 Bft) O 101 0 min 0,000 mm 0,0 UV-I 5 W/m 9,2 C 17,7 C 12,9 km/h (3 Bft) 100,00 %
31.03.2016 19:26 18,1 C 56 % 1004,5 hPa 0,0 l/m 9,6 km/h (2 Bft) O 92 0 min 0,000 mm 0,0 UV-I 5 W/m 9,2 C 16,7 C 11,3 km/h (2 Bft) 100,00 %
31.03.2016 19:27 18,0 C 57 % 1004,4 hPa 0,0 l/m 9,4 km/h (2 Bft) O 97 0 min 0,000 mm 0,0 UV-I 5 W/m 9,4 C 16,7 C 12,9 km/h (3 Bft) 100,00 %
31.03.2016 19:28 18,0 C 56 % 1004,4 hPa 0,0 l/m 9,2 km/h (2 Bft) O 83 0 min 0,000 mm 0,0 UV-I 5 W/m 9,1 C 16,7 C 11,3 km/h (2 Bft) 100,00 %
31.03.2016 19:29 17,9 C 58 % 1004,4 hPa 0,0 l/m 7,2 km/h (2 Bft) O 87 0 min 0,000 mm 0,0 UV-I 1 W/m 9,5 C 17,5 C 11,3 km/h (2 Bft) 95,65 %
31.03.2016 19:30 17,9 C 57 % 1004,4 hPa 0,0 l/m 6,0 km/h (2 Bft) O 101 0 min 0,000 mm 0,0 UV-I 0 W/m 9,3 C 17,9 C 11,3 km/h (2 Bft) 100,00 %
31.03.2016 19:31 17,9 C 57 % 1004,4 hPa 0,0 l/m 8,3 km/h (2 Bft) O-SO 107 0 min 0,000 mm 0,0 UV-I 0 W/m 9,3 C 17,0 C 11,3 km/h (2 Bft) 100,00 %
31.03.2016 19:32 17,8 C 58 % 1004,4 hPa 0,0 l/m 8,4 km/h (2 Bft) O-NO 75 0 min 0,000 mm 0,0 UV-I 0 W/m 9,4 C 16,9 C 12,9 km/h (3 Bft) 96,55 %
31.03.2016 19:33 17,8 C 57 % 1004,4 hPa 0,0 l/m 8,0 km/h (2 Bft) O-SO 103 0 min 0,000 mm 0,0 UV-I 0 W/m 9,2 C 17,0 C 11,3 km/h (2 Bft) 100,00 %
31.03.2016 19:34 17,8 C 57 % 1004,4 hPa 0,0 l/m 9,4 km/h (2 Bft) O-SO 103 0 min 0,000 mm 0,0 UV-I 0 W/m 9,2 C 16,4 C 12,9 km/h (3 Bft) 100,00 %
31.03.2016 19:35 17,8 C 58 % 1004,4 hPa 0,0 l/m 8,6 km/h (2 Bft) O 88 0 min 0,000 mm 0,0 UV-I 0 W/m 9,4 C 16,8 C 11,3 km/h (2 Bft) 100,00 %
31.03.2016 19:36 17,8 C 58 % 1004,4 hPa 0,0 l/m 8,9 km/h (2 Bft) O 97 0 min 0,000 mm 0,0 UV-I 0 W/m 9,4 C 16,7 C 12,9 km/h (3 Bft) 95,65 %
31.03.2016 19:37 17,7 C 57 % 1004,4 hPa 0,0 l/m 10,9 km/h (2 Bft) O 97 0 min 0,000 mm 0,0 UV-I 0 W/m 9,1 C 15,8 C 12,9 km/h (3 Bft) 100,00 %
31.03.2016 19:38 17,7 C 57 % 1004,4 hPa 0,0 l/m 7,3 km/h (2 Bft) O 92 0 min 0,000 mm 0,0 UV-I 0 W/m 9,1 C 17,3 C 11,3 km/h (2 Bft) 100,00 %
31.03.2016 19:39 17,7 C 57 % 1004,5 hPa 0,0 l/m 6,3 km/h (2 Bft) O-SO 102 0 min 0,000 mm 0,0 UV-I 0 W/m 9,1 C 17,7 C 9,7 km/h (2 Bft) 100,00 %
31.03.2016 19:40 17,7 C 57 % 1004,5 hPa 0,0 l/m 7,4 km/h (2 Bft) O 89 0 min 0,000 mm 0,0 UV-I 0 W/m 9,1 C 17,2 C 11,3 km/h (2 Bft) 100,00 %
31.03.2016 19:41 17,7 C 57 % 1004,5 hPa 0,0 l/m 9,3 km/h (2 Bft) O-SO 107 0 min 0,000 mm 0,0 UV-I 0 W/m 9,1 C 16,4 C 11,3 km/h (2 Bft) 100,00 %
31.03.2016 19:42 17,7 C 57 % 1004,5 hPa 0,0 l/m 9,8 km/h (2 Bft) O 101 0 min 0,000 mm 0,0 UV-I 0 W/m 9,1 C 16,2 C 11,3 km/h (2 Bft) 100,00 %
31.03.2016 19:43 17,7 C 57 % 1004,4 hPa 0,0 l/m 9,0 km/h (2 Bft) O-SO 106 0 min 0,000 mm 0,0 UV-I 0 W/m 9,1 C 16,5 C 11,3 km/h (2 Bft) 100,00 %
31.03.2016 19:44 17,7 C 58 % 1004,5 hPa 0,0 l/m 6,1 km/h (2 Bft) O 86 0 min 0,000 mm 0,0 UV-I 0 W/m 9,3 C 17,7 C 9,7 km/h (2 Bft) 100,00 %
31.03.2016 19:45 17,6 C 59 % 1004,4 hPa 0,0 l/m 8,0 km/h (2 Bft) O 85 0 min 0,000 mm 0,0 UV-I 0 W/m 9,5 C 16,8 C 12,9 km/h (3 Bft) 100,00 %
31.03.2016 19:46 17,6 C 57 % 1004,4 hPa 0,0 l/m 10,1 km/h (2 Bft) O 82 0 min 0,000 mm 0,0 UV-I 0 W/m 9,0 C 16,0 C 12,9 km/h (3 Bft) 100,00 %
31.03.2016 19:47 17,6 C 58 % 1004,5 hPa 0,0 l/m 8,2 km/h (2 Bft) O-NO 78 0 min 0,000 mm 0,0 UV-I 0 W/m 9,2 C 16,7 C 12,9 km/h (3 Bft) 100,00 %
31.03.2016 19:48 17,6 C 58 % 1004,5 hPa 0,0 l/m 10,1 km/h (2 Bft) O-SO 104 0 min 0,000 mm 0,0 UV-I 0 W/m 9,2 C 16,0 C 14,5 km/h (3 Bft) 100,00 %
31.03.2016 19:49 17,6 C 57 % 1004,4 hPa 0,0 l/m 8,4 km/h (2 Bft) O 92 0 min 0,000 mm 0,0 UV-I 0 W/m 9,0 C 16,7 C 14,5 km/h (3 Bft) 100,00 %
31.03.2016 19:50 17,6 C 59 % 1004,5 hPa 0,0 l/m 9,1 km/h (2 Bft) O 90 0 min 0,000 mm 0,0 UV-I 0 W/m 9,5 C 16,4 C 11,3 km/h (2 Bft) 100,00 %
31.03.2016 19:51 17,4 C 59 % 1004,5 hPa 0,0 l/m 8,1 km/h (2 Bft) O 90 0 min 0,000 mm 0,0 UV-I 0 W/m 9,3 C 16,6 C 11,3 km/h (2 Bft) 100,00 %
31.03.2016 19:52 17,4 C 59 % 1004,5 hPa 0,0 l/m 9,2 km/h (2 Bft) O 86 0 min 0,000 mm 0,0 UV-I 0 W/m 9,3 C 16,1 C 11,3 km/h (2 Bft) 100,00 %
31.03.2016 19:53 17,3 C 58 % 1004,5 hPa 0,0 l/m 8,7 km/h (2 Bft) O-NO 66 0 min 0,000 mm 0,0 UV-I 0 W/m 9,0 C 16,2 C 12,9 km/h (3 Bft) 100,00 %
31.03.2016 19:54 17,3 C 58 % 1004,5 hPa 0,0 l/m 9,5 km/h (2 Bft) O 86 0 min 0,000 mm 0,0 UV-I 0 W/m 9,0 C 15,9 C 12,9 km/h (3 Bft) 100,00 %
31.03.2016 19:55 17,3 C 58 % 1004,4 hPa 0,0 l/m 6,8 km/h (2 Bft) O-SO 106 0 min 0,000 mm 0,0 UV-I 0 W/m 9,0 C 17,1 C 9,7 km/h (2 Bft) 96,15 %
31.03.2016 19:56 17,3 C 59 % 1004,4 hPa 0,0 l/m 6,8 km/h (2 Bft) O 89 0 min 0,000 mm 0,0 UV-I 0 W/m 9,2 C 17,1 C 11,3 km/h (2 Bft) 100,00 %
31.03.2016 19:57 17,3 C 59 % 1004,4 hPa 0,0 l/m 9,9 km/h (2 Bft) O 85 0 min 0,000 mm 0,0 UV-I 0 W/m 9,2 C 15,7 C 12,9 km/h (3 Bft) 92,86 %
31.03.2016 19:58 17,4 C 58 % 1004,4 hPa 0,0 l/m 9,8 km/h (2 Bft) O 98 0 min 0,000 mm 0,0 UV-I 0 W/m 9,1 C 15,8 C 12,9 km/h (3 Bft) 100,00 %
31.03.2016 19:59 17,4 C 59 % 1004,4 hPa 0,0 l/m 6,2 km/h (2 Bft) O 90 0 min 0,000 mm 0,0 UV-I 0 W/m 9,3 C 17,4 C 9,7 km/h (2 Bft) 96,15 %
31.03.2016 20:00 17,3 C 59 % 1004,5 hPa 0,0 l/m 8,1 km/h (2 Bft) O 90 0 min 0,051 mm 0,0 UV-I 0 W/m 9,2 C 16,5 C 11,3 km/h (2 Bft) 95,83 %
31.03.2016 20:02 17,3 C 58 % 1004,5 hPa 0,0 l/m 8,3 km/h (2 Bft) O-SO 120 0 min 0,000 mm 0,0 UV-I 0 W/m 9,0 C 16,4 C 11,3 km/h (2 Bft) 95,74 %
31.03.2016 20:03 17,3 C 59 % 1004,5 hPa 0,0 l/m 6,7 km/h (2 Bft) O-SO 111 0 min 0,000 mm 0,0 UV-I 0 W/m 9,2 C 17,2 C 9,7 km/h (2 Bft) 96,15 %
31.03.2016 20:04 17,3 C 60 % 1004,5 hPa 0,0 l/m 7,7 km/h (2 Bft) O 80 0 min 0,000 mm 0,0 UV-I 0 W/m 9,5 C 16,7 C 11,3 km/h (2 Bft) 95,83 %
31.03.2016 20:05 17,2 C 59 % 1004,4 hPa 0,0 l/m 7,7 km/h (2 Bft) O 81 0 min 0,000 mm 0,0 UV-I 0 W/m 9,1 C 16,6 C 11,3 km/h (2 Bft) 100,00 %
31.03.2016 20:06 17,2 C 59 % 1004,4 hPa 0,0 l/m 7,4 km/h (2 Bft) O 94 0 min 0,000 mm 0,0 UV-I 0 W/m 9,1 C 16,7 C 11,3 km/h (2 Bft) 96,30 %
31.03.2016 20:07 17,1 C 60 % 1004,4 hPa 0,0 l/m 6,7 km/h (2 Bft) O 86 0 min 0,000 mm 0,0 UV-I 0 W/m 9,3 C 17,0 C 9,7 km/h (2 Bft) 100,00 %
31.03.2016 20:08 17,1 C 60 % 1004,4 hPa 0,0 l/m 10,2 km/h (2 Bft) O 94 0 min 0,000 mm 0,0 UV-I 0 W/m 9,3 C 15,4 C 12,9 km/h (3 Bft) 93,33 %
31.03.2016 20:09 17,1 C 59 % 1004,4 hPa 0,0 l/m 7,5 km/h (2 Bft) O 96 0 min 0,000 mm 0,0 UV-I 0 W/m 9,0 C 16,5 C 11,3 km/h (2 Bft) 100,00 %
31.03.2016 20:10 17,1 C 60 % 1004,4 hPa 0,0 l/m 8,0 km/h (2 Bft) O 82 0 min 0,000 mm 0,0 UV-I 0 W/m 9,3 C 16,3 C 11,3 km/h (2 Bft) 96,15 %
31.03.2016 20:11 17,0 C 60 % 1004,4 hPa 0,0 l/m 5,6 km/h (1 Bft) O 91 0 min 0,000 mm 0,0 UV-I 0 W/m 9,2 C 17,0 C 9,7 km/h (2 Bft) 100,00 %
31.03.2016 20:12 17,0 C 60 % 1004,4 hPa 0,0 l/m 7,4 km/h (2 Bft) O-SO 105 0 min 0,000 mm 0,0 UV-I 0 W/m 9,2 C 16,5 C 9,7 km/h (2 Bft) 91,67 %
31.03.2016 20:13 16,9 C 60 % 1004,4 hPa 0,0 l/m 9,0 km/h (2 Bft) O 97 0 min 0,000 mm 0,0 UV-I 0 W/m 9,1 C 15,6 C 12,9 km/h (3 Bft) 100,00 %
31.03.2016 20:14 16,9 C 60 % 1004,4 hPa 0,0 l/m 9,5 km/h (2 Bft) O 100 0 min 0,000 mm 0,0 UV-I 0 W/m 9,1 C 15,4 C 12,9 km/h (3 Bft) 96,15 %
31.03.2016 20:15 17,0 C 59 % 1004,4 hPa 0,0 l/m 9,1 km/h (2 Bft) O-NO 66 0 min 0,000 mm 0,0 UV-I 0 W/m 8,9 C 15,7 C 12,9 km/h (3 Bft) 95,83 %
31.03.2016 20:16 17,1 C 59 % 1004,4 hPa 0,0 l/m 9,1 km/h (2 Bft) O 80 0 min 0,000 mm 0,0 UV-I 0 W/m 9,0 C 15,8 C 12,9 km/h (3 Bft) 100,00 %
31.03.2016 20:17 17,1 C 59 % 1004,4 hPa 0,0 l/m 8,6 km/h (2 Bft) O 94 0 min 0,000 mm 0,0 UV-I 0 W/m 9,0 C 16,0 C 12,9 km/h (3 Bft) 91,67 %
31.03.2016 20:18 17,2 C 59 % 1004,4 hPa 0,0 l/m 7,2 km/h (2 Bft) O 81 0 min 0,000 mm 0,0 UV-I 0 W/m 9,1 C 16,8 C 11,3 km/h (2 Bft) 100,00 %
31.03.2016 20:19 17,2 C 59 % 1004,4 hPa 0,0 l/m 7,6 km/h (2 Bft) O-SO 102 0 min 0,000 mm 0,0 UV-I 0 W/m 9,1 C 16,6 C 11,3 km/h (2 Bft) 91,67 %
31.03.2016 20:20 17,2 C 58 % 1004,4 hPa 0,0 l/m 5,6 km/h (1 Bft) O 95 0 min 0,000 mm 0,0 UV-I 0 W/m 8,9 C 17,2 C 6,4 km/h (2 Bft) 100,00 %
31.03.2016 20:21 17,2 C 59 % 1004,4 hPa 0,0 l/m 7,6 km/h (2 Bft) O-NO 78 0 min 0,000 mm 0,0 UV-I 0 W/m 9,1 C 16,6 C 11,3 km/h (2 Bft) 93,33 %
31.03.2016 20:22 17,2 C 59 % 1004,4 hPa 0,0 l/m 6,1 km/h (2 Bft) O 79 0 min 0,000 mm 0,0 UV-I 0 W/m 9,1 C 17,2 C 11,3 km/h (2 Bft) 96,55 %
31.03.2016 20:23 17,2 C 59 % 1004,3 hPa 0,0 l/m 7,7 km/h (2 Bft) O-NO 73 0 min 0,000 mm 0,0 UV-I 0 W/m 9,1 C 16,6 C 11,3 km/h (2 Bft) 100,00 %
31.03.2016 20:24 17,1 C 58 % 1004,3 hPa 0,0 l/m 8,1 km/h (2 Bft) O-NO 71 0 min 0,000 mm 0,0 UV-I 0 W/m 8,8 C 16,3 C 11,3 km/h (2 Bft) 95,65 %
31.03.2016 20:25 17,2 C 58 % 1004,4 hPa 0,0 l/m 6,2 km/h (2 Bft) O 88 0 min 0,000 mm 0,0 UV-I 0 W/m 8,9 C 17,2 C 8,0 km/h (2 Bft) 100,00 %
31.03.2016 20:26 17,2 C 58 % 1004,4 hPa 0,0 l/m 10,5 km/h (2 Bft) O-NO 64 0 min 0,000 mm 0,0 UV-I 0 W/m 8,9 C 15,4 C 14,5 km/h (3 Bft) 96,15 %
31.03.2016 20:27 17,2 C 58 % 1004,3 hPa 0,0 l/m 7,0 km/h (2 Bft) O 89 0 min 0,000 mm 0,0 UV-I 0 W/m 8,9 C 16,9 C 9,7 km/h (2 Bft) 100,00 %
31.03.2016 20:28 17,3 C 58 % 1004,3 hPa 0,0 l/m 8,5 km/h (2 Bft) O-NO 78 0 min 0,000 mm 0,0 UV-I 0 W/m 9,0 C 16,3 C 12,9 km/h (3 Bft) 95,65 %
31.03.2016 20:29 17,3 C 58 % 1004,4 hPa 0,0 l/m 8,5 km/h (2 Bft) O-NO 74 0 min 0,000 mm 0,0 UV-I 0 W/m 9,0 C 16,3 C 12,9 km/h (3 Bft) 100,00 %
31.03.2016 20:30 17,3 C 59 % 1004,4 hPa 0,0 l/m 5,3 km/h (1 Bft) O 93 0 min 0,000 mm 0,0 UV-I 0 W/m 9,2 C 17,3 C 6,4 km/h (2 Bft) 100,00 %
31.03.2016 20:31 17,2 C 59 % 1004,4 hPa 0,0 l/m 5,6 km/h (1 Bft) O 88 0 min 0,000 mm 0,0 UV-I 0 W/m 9,1 C 17,2 C 9,7 km/h (2 Bft) 100,00 %
31.03.2016 20:32 17,2 C 59 % 1004,4 hPa 0,0 l/m 7,0 km/h (2 Bft) O-NO 61 0 min 0,000 mm 0,0 UV-I 0 W/m 9,1 C 16,9 C 9,7 km/h (2 Bft) 100,00 %
31.03.2016 20:33 17,2 C 59 % 1004,4 hPa 0,0 l/m 4,5 km/h (1 Bft) O 80 0 min 0,000 mm 0,0 UV-I 0 W/m 9,1 C 17,2 C 6,4 km/h (2 Bft) 100,00 %
31.03.2016 20:34 17,1 C 60 % 1004,5 hPa 0,0 l/m 4,8 km/h (1 Bft) O-NO 76 0 min 0,000 mm 0,0 UV-I 0 W/m 9,3 C 17,1 C 6,4 km/h (2 Bft) 95,83 %
31.03.2016 20:35 17,0 C 59 % 1004,5 hPa 0,0 l/m 5,6 km/h (1 Bft) O-NO 70 0 min 0,000 mm 0,0 UV-I 0 W/m 8,9 C 17,0 C 8,0 km/h (2 Bft) 100,00 %
31.03.2016 20:36 16,9 C 61 % 1004,4 hPa 0,0 l/m 5,1 km/h (1 Bft) O 83 0 min 0,000 mm 0,0 UV-I 0 W/m 9,3 C 16,9 C 6,4 km/h (2 Bft) 100,00 %
31.03.2016 20:37 16,8 C 60 % 1004,4 hPa 0,0 l/m 3,7 km/h (1 Bft) O-NO 71 0 min 0,000 mm 0,0 UV-I 0 W/m 9,0 C 16,8 C 4,8 km/h (1 Bft) 95,65 %
31.03.2016 20:38 16,7 C 62 % 1004,5 hPa 0,0 l/m 6,2 km/h (2 Bft) O 80 0 min 0,000 mm 0,0 UV-I 0 W/m 9,4 C 16,7 C 8,0 km/h (2 Bft) 100,00 %
31.03.2016 20:39 16,6 C 63 % 1004,5 hPa 0,0 l/m 1,6 km/h (1 Bft) O 80 0 min 0,000 mm 0,0 UV-I 0 W/m 9,5 C 16,6 C 3,2 km/h (1 Bft) 100,00 %
31.03.2016 20:40 16,4 C 64 % 1004,5 hPa 0,0 l/m 0,2 km/h (0 Bft) O 80 0 min 0,000 mm 0,0 UV-I 0 W/m 9,6 C 16,4 C 1,6 km/h (1 Bft) 100,00 %
31.03.2016 20:41 16,2 C 65 % 1004,5 hPa 0,0 l/m 0,1 km/h (0 Bft) O 80 0 min 0,000 mm 0,0 UV-I 0 W/m 9,6 C 16,2 C 1,6 km/h (1 Bft) 100,00 %
31.03.2016 20:42 16,1 C 66 % 1004,4 hPa 0,0 l/m 0,0 km/h (0 Bft) O 80 0 min 0,000 mm 0,0 UV-I 0 W/m 9,7 C 16,1 C 0,0 km/h (0 Bft) 100,00 %
31.03.2016 20:43 15,9 C 66 % 1004,5 hPa 0,0 l/m 0,5 km/h (0 Bft) O 80 0 min 0,000 mm 0,0 UV-I 0 W/m 9,6 C 15,9 C 1,6 km/h (1 Bft) 98,63 %
31.03.2016 20:44 15,8 C 66 % 1004,4 hPa 0,0 l/m 1,7 km/h (1 Bft) O 80 0 min 0,000 mm 0,0 UV-I 0 W/m 9,5 C 15,8 C 3,2 km/h (1 Bft) 97,37 %
31.03.2016 20:45 15,8 C 65 % 1004,4 hPa 0,0 l/m 3,2 km/h (1 Bft) O 80 0 min 0,000 mm 0,0 UV-I 0 W/m 9,2 C 15,8 C 4,8 km/h (1 Bft) 95,65 %
31.03.2016 20:46 15,9 C 64 % 1004,4 hPa 0,0 l/m 2,5 km/h (1 Bft) O 80 0 min 0,000 mm 0,0 UV-I 0 W/m 9,1 C 15,9 C 3,2 km/h (1 Bft) 100,00 %
31.03.2016 20:47 15,9 C 64 % 1004,4 hPa 0,0 l/m 2,7 km/h (1 Bft) O 80 0 min 0,000 mm 0,0 UV-I 0 W/m 9,1 C 15,9 C 3,2 km/h (1 Bft) 100,00 %
31.03.2016 20:48 16,1 C 64 % 1004,4 hPa 0,0 l/m 2,0 km/h (1 Bft) O 80 0 min 0,000 mm 0,0 UV-I 0 W/m 9,3 C 16,1 C 3,2 km/h (1 Bft) 100,00 %
31.03.2016 20:49 16,1 C 63 % 1004,4 hPa 0,0 l/m 1,7 km/h (1 Bft) O 80 0 min 0,000 mm 0,0 UV-I 0 W/m 9,1 C 16,1 C 3,2 km/h (1 Bft) 96,15 %
31.03.2016 20:50 16,2 C 63 % 1004,4 hPa 0,0 l/m 2,7 km/h (1 Bft) O 80 0 min 0,000 mm 0,0 UV-I 0 W/m 9,1 C 16,2 C 3,2 km/h (1 Bft) 100,00 %
31.03.2016 20:51 16,2 C 63 % 1004,4 hPa 0,0 l/m 2,5 km/h (1 Bft) O 80 0 min 0,000 mm 0,0 UV-I 0 W/m 9,1 C 16,2 C 3,2 km/h (1 Bft) 100,00 %
31.03.2016 20:52 16,3 C 63 % 1004,5 hPa 0,0 l/m 1,2 km/h (1 Bft) O 80 0 min 0,000 mm 0,0 UV-I 0 W/m 9,2 C 16,3 C 3,2 km/h (1 Bft) 100,00 %
31.03.2016 20:53 16,3 C 63 % 1004,5 hPa 0,0 l/m 0,3 km/h (0 Bft) O 80 0 min 0,000 mm 0,0 UV-I 0 W/m 9,2 C 16,3 C 1,6 km/h (1 Bft) 96,30 %
31.03.2016 20:54 16,2 C 63 % 1004,5 hPa 0,0 l/m 1,5 km/h (1 Bft) O 80 0 min 0,000 mm 0,0 UV-I 0 W/m 9,1 C 16,2 C 3,2 km/h (1 Bft) 100,00 %
31.03.2016 20:55 16,2 C 64 % 1004,5 hPa 0,0 l/m 1,6 km/h (1 Bft) O 80 0 min 0,000 mm 0,0 UV-I 0 W/m 9,4 C 16,2 C 3,2 km/h (1 Bft) 100,00 %
31.03.2016 20:56 16,1 C 63 % 1004,5 hPa 0,0 l/m 1,1 km/h (1 Bft) O 80 0 min 0,000 mm 0,0 UV-I 0 W/m 9,1 C 16,1 C 1,6 km/h (1 Bft) 100,00 %
31.03.2016 20:57 16,1 C 64 % 1004,5 hPa 0,0 l/m 0,2 km/h (0 Bft) O 80 0 min 0,000 mm 0,0 UV-I 0 W/m 9,3 C 16,1 C 1,6 km/h (1 Bft) 100,00 %
31.03.2016 20:58 16,0 C 66 % 1004,5 hPa 0,0 l/m 0,0 km/h (0 Bft) O 80 0 min 0,000 mm 0,0 UV-I 0 W/m 9,7 C 16,0 C 0,0 km/h (0 Bft) 100,00 %
31.03.2016 20:59 15,9 C 67 % 1004,5 hPa 0,0 l/m 0,5 km/h (0 Bft) O 80 0 min 0,000 mm 0,0 UV-I 0 W/m 9,8 C 15,9 C 1,6 km/h (1 Bft) 100,00 %
31.03.2016 21:00 15,7 C 66 % 1004,5 hPa 0,0 l/m 0,4 km/h (0 Bft) O 80 0 min 0,025 mm 0,0 UV-I 0 W/m 9,4 C 15,7 C 1,6 km/h (1 Bft) 95,65 %
31.03.2016 21:02 15,5 C 67 % 1004,5 hPa 0,0 l/m 2,0 km/h (1 Bft) O 80 0 min 0,000 mm 0,0 UV-I 0 W/m 9,4 C 15,5 C 3,2 km/h (1 Bft) 100,00 %
31.03.2016 21:03 15,4 C 68 % 1004,5 hPa 0,0 l/m 1,5 km/h (1 Bft) O 80 0 min 0,000 mm 0,0 UV-I 0 W/m 9,5 C 15,4 C 3,2 km/h (1 Bft) 100,00 %
31.03.2016 21:04 15,3 C 70 % 1004,4 hPa 0,0 l/m 1,5 km/h (1 Bft) O 80 0 min 0,000 mm 0,0 UV-I 0 W/m 9,9 C 15,3 C 1,6 km/h (1 Bft) 100,00 %
31.03.2016 21:05 15,2 C 70 % 1004,4 hPa 0,0 l/m 2,4 km/h (1 Bft) O 80 0 min 0,000 mm 0,0 UV-I 0 W/m 9,8 C 15,2 C 4,8 km/h (1 Bft) 100,00 %
31.03.2016 21:06 15,1 C 69 % 1004,3 hPa 0,0 l/m 3,3 km/h (1 Bft) O 80 0 min 0,000 mm 0,0 UV-I 0 W/m 9,5 C 15,1 C 4,8 km/h (1 Bft) 96,15 %
31.03.2016 21:07 15,1 C 68 % 1004,3 hPa 0,0 l/m 3,2 km/h (1 Bft) O 80 0 min 0,000 mm 0,0 UV-I 0 W/m 9,2 C 15,1 C 4,8 km/h (1 Bft) 100,00 %
31.03.2016 21:08 15,1 C 68 % 1004,3 hPa 0,0 l/m 3,2 km/h (1 Bft) O 80 0 min 0,000 mm 0,0 UV-I 0 W/m 9,2 C 15,1 C 3,2 km/h (1 Bft) 100,00 %
31.03.2016 21:09 15,2 C 68 % 1004,3 hPa 0,0 l/m 3,1 km/h (1 Bft) O 80 0 min 0,000 mm 0,0 UV-I 0 W/m 9,3 C 15,2 C 3,2 km/h (1 Bft) 100,00 %
31.03.2016 21:10 15,2 C 68 % 1004,3 hPa 0,0 l/m 3,0 km/h (1 Bft) O 80 0 min 0,000 mm 0,0 UV-I 0 W/m 9,3 C 15,2 C 3,2 km/h (1 Bft) 100,00 %
31.03.2016 21:11 15,3 C 68 % 1004,4 hPa 0,0 l/m 2,9 km/h (1 Bft) O 80 0 min 0,000 mm 0,0 UV-I 0 W/m 9,4 C 15,3 C 4,8 km/h (1 Bft) 95,83 %
31.03.2016 21:12 15,3 C 67 % 1004,3 hPa 0,0 l/m 3,4 km/h (1 Bft) O 80 0 min 0,000 mm 0,0 UV-I 0 W/m 9,2 C 15,3 C 4,8 km/h (1 Bft) 100,00 %
31.03.2016 21:13 15,3 C 67 % 1004,3 hPa 0,0 l/m 3,4 km/h (1 Bft) O 80 0 min 0,000 mm 0,0 UV-I 0 W/m 9,2 C 15,3 C 4,8 km/h (1 Bft) 95,65 %
31.03.2016 21:14 15,3 C 66 % 1004,4 hPa 0,0 l/m 2,8 km/h (1 Bft) O 80 0 min 0,000 mm 0,0 UV-I 0 W/m 9,0 C 15,3 C 3,2 km/h (1 Bft) 100,00 %
31.03.2016 21:15 15,4 C 67 % 1004,3 hPa 0,0 l/m 2,8 km/h (1 Bft) O 80 0 min 0,000 mm 0,0 UV-I 0 W/m 9,3 C 15,4 C 4,8 km/h (1 Bft) 100,00 %
31.03.2016 21:16 15,4 C 67 % 1004,3 hPa 0,0 l/m 2,7 km/h (1 Bft) O 80 0 min 0,000 mm 0,0 UV-I 0 W/m 9,3 C 15,4 C 3,2 km/h (1 Bft) 100,00 %
31.03.2016 21:17 15,4 C 67 % 1004,3 hPa 0,0 l/m 3,2 km/h (1 Bft) O 80 0 min 0,000 mm 0,0 UV-I 0 W/m 9,3 C 15,4 C 4,8 km/h (1 Bft) 100,00 %
31.03.2016 21:18 15,4 C 67 % 1004,3 hPa 0,0 l/m 2,4 km/h (1 Bft) O 80 0 min 0,000 mm 0,0 UV-I 0 W/m 9,3 C 15,4 C 3,2 km/h (1 Bft) 100,00 %
31.03.2016 21:19 15,3 C 67 % 1004,3 hPa 0,0 l/m 2,1 km/h (1 Bft) O 80 0 min 0,000 mm 0,0 UV-I 0 W/m 9,2 C 15,3 C 3,2 km/h (1 Bft) 100,00 %
31.03.2016 21:20 15,3 C 69 % 1004,2 hPa 0,0 l/m 2,3 km/h (1 Bft) O 80 0 min 0,000 mm 0,0 UV-I 0 W/m 9,6 C 15,3 C 3,2 km/h (1 Bft) 100,00 %
31.03.2016 21:21 15,2 C 69 % 1004,2 hPa 0,0 l/m 2,5 km/h (1 Bft) O 80 0 min 0,000 mm 0,0 UV-I 0 W/m 9,6 C 15,2 C 3,2 km/h (1 Bft) 100,00 %
31.03.2016 21:22 15,2 C 69 % 1004,2 hPa 0,0 l/m 2,8 km/h (1 Bft) O 80 0 min 0,000 mm 0,0 UV-I 0 W/m 9,6 C 15,2 C 4,8 km/h (1 Bft) 100,00 %
31.03.2016 21:23 15,1 C 69 % 1004,2 hPa 0,0 l/m 3,0 km/h (1 Bft) O 80 0 min 0,000 mm 0,0 UV-I 0 W/m 9,5 C 15,1 C 3,2 km/h (1 Bft) 95,65 %
31.03.2016 21:24 15,1 C 69 % 1004,2 hPa 0,0 l/m 3,5 km/h (1 Bft) O 80 0 min 0,000 mm 0,0 UV-I 0 W/m 9,5 C 15,1 C 4,8 km/h (1 Bft) 100,00 %
31.03.2016 21:25 15,1 C 69 % 1004,2 hPa 0,0 l/m 4,3 km/h (1 Bft) O 80 0 min 0,000 mm 0,0 UV-I 0 W/m 9,5 C 15,1 C 4,8 km/h (1 Bft) 100,00 %
31.03.2016 21:26 15,1 C 68 % 1004,1 hPa 0,0 l/m 3,4 km/h (1 Bft) O 80 0 min 0,000 mm 0,0 UV-I 0 W/m 9,2 C 15,1 C 4,8 km/h (1 Bft) 100,00 %
31.03.2016 21:27 15,1 C 68 % 1004,2 hPa 0,0 l/m 3,8 km/h (1 Bft) O 80 0 min 0,000 mm 0,0 UV-I 0 W/m 9,2 C 15,1 C 4,8 km/h (1 Bft) 100,00 %
31.03.2016 21:28 15,1 C 68 % 1004,1 hPa 0,0 l/m 3,8 km/h (1 Bft) O 79 0 min 0,000 mm 0,0 UV-I 0 W/m 9,2 C 15,1 C 4,8 km/h (1 Bft) 100,00 %
31.03.2016 21:29 15,2 C 68 % 1004,1 hPa 0,0 l/m 4,8 km/h (1 Bft) O-NO 69 0 min 0,000 mm 0,0 UV-I 0 W/m 9,3 C 15,2 C 6,4 km/h (2 Bft) 100,00 %
31.03.2016 21:30 15,2 C 68 % 1004,1 hPa 0,0 l/m 3,6 km/h (1 Bft) O-NO 69 0 min 0,000 mm 0,0 UV-I 0 W/m 9,3 C 15,2 C 4,8 km/h (1 Bft) 100,00 %
31.03.2016 21:31 15,2 C 68 % 1004,1 hPa 0,0 l/m 4,8 km/h (1 Bft) O-NO 63 0 min 0,000 mm 0,0 UV-I 0 W/m 9,3 C 15,2 C 4,8 km/h (1 Bft) 93,33 %
31.03.2016 21:32 15,3 C 68 % 1004,1 hPa 0,0 l/m 3,5 km/h (1 Bft) O-NO 63 0 min 0,000 mm 0,0 UV-I 0 W/m 9,4 C 15,3 C 4,8 km/h (1 Bft) 100,00 %
31.03.2016 21:33 15,3 C 67 % 1004,2 hPa 0,0 l/m 2,7 km/h (1 Bft) O-NO 63 0 min 0,000 mm 0,0 UV-I 0 W/m 9,2 C 15,3 C 4,8 km/h (1 Bft) 100,00 %
31.03.2016 21:34 15,3 C 69 % 1004,2 hPa 0,0 l/m 0,5 km/h (0 Bft) O-NO 63 0 min 0,000 mm 0,0 UV-I 0 W/m 9,6 C 15,3 C 1,6 km/h (1 Bft) 100,00 %
31.03.2016 21:35 15,2 C 69 % 1004,2 hPa 0,0 l/m 0,9 km/h (0 Bft) O-NO 63 0 min 0,000 mm 0,0 UV-I 0 W/m 9,6 C 15,2 C 1,6 km/h (1 Bft) 100,00 %
31.03.2016 21:36 15,2 C 69 % 1004,2 hPa 0,0 l/m 1,9 km/h (1 Bft) O-NO 63 0 min 0,000 mm 0,0 UV-I 0 W/m 9,6 C 15,2 C 3,2 km/h (1 Bft) 91,30 %
31.03.2016 21:37 15,2 C 68 % 1004,2 hPa 0,0 l/m 3,7 km/h (1 Bft) O-NO 74 0 min 0,000 mm 0,0 UV-I 0 W/m 9,3 C 15,2 C 4,8 km/h (1 Bft) 95,83 %
31.03.2016 21:38 15,3 C 67 % 1004,2 hPa 0,0 l/m 5,1 km/h (1 Bft) O-NO 71 0 min 0,000 mm 0,0 UV-I 0 W/m 9,2 C 15,3 C 6,4 km/h (2 Bft) 100,00 %
31.03.2016 21:39 15,3 C 67 % 1004,2 hPa 0,0 l/m 4,3 km/h (1 Bft) O-NO 71 0 min 0,000 mm 0,0 UV-I 0 W/m 9,2 C 15,3 C 6,4 km/h (2 Bft) 100,00 %
31.03.2016 21:40 15,3 C 68 % 1004,2 hPa 0,0 l/m 2,1 km/h (1 Bft) O-NO 71 0 min 0,000 mm 0,0 UV-I 0 W/m 9,4 C 15,3 C 3,2 km/h (1 Bft) 100,00 %
31.03.2016 21:41 15,2 C 70 % 1004,2 hPa 0,0 l/m 1,7 km/h (1 Bft) O-NO 71 0 min 0,000 mm 0,0 UV-I 0 W/m 9,8 C 15,2 C 3,2 km/h (1 Bft) 100,00 %
31.03.2016 21:42 15,1 C 70 % 1004,2 hPa 0,0 l/m 1,6 km/h (1 Bft) O-NO 71 0 min 0,000 mm 0,0 UV-I 0 W/m 9,7 C 15,1 C 3,2 km/h (1 Bft) 95,65 %
31.03.2016 21:43 14,9 C 71 % 1004,2 hPa 0,0 l/m 0,0 km/h (0 Bft) O-NO 71 0 min 0,000 mm 0,0 UV-I 0 W/m 9,7 C 14,9 C 0,0 km/h (0 Bft) 100,00 %
31.03.2016 21:44 14,8 C 72 % 1004,2 hPa 0,0 l/m 0,1 km/h (0 Bft) O-NO 71 0 min 0,000 mm 0,0 UV-I 0 W/m 9,8 C 14,8 C 1,6 km/h (1 Bft) 100,00 %
31.03.2016 21:45 14,6 C 72 % 1004,3 hPa 0,0 l/m 0,2 km/h (0 Bft) O-NO 71 0 min 0,000 mm 0,0 UV-I 0 W/m 9,6 C 14,6 C 1,6 km/h (1 Bft) 100,00 %
31.03.2016 21:46 14,5 C 73 % 1004,2 hPa 0,0 l/m 0,0 km/h (0 Bft) O-NO 71 0 min 0,000 mm 0,0 UV-I 0 W/m 9,7 C 14,5 C 0,0 km/h (0 Bft) 95,65 %
31.03.2016 21:47 14,4 C 73 % 1004,3 hPa 0,0 l/m 0,1 km/h (0 Bft) O-NO 71 0 min 0,000 mm 0,0 UV-I 0 W/m 9,6 C 14,4 C 1,6 km/h (1 Bft) 100,00 %
31.03.2016 21:48 14,3 C 74 % 1004,2 hPa 0,0 l/m 0,1 km/h (0 Bft) O-NO 71 0 min 0,000 mm 0,0 UV-I 0 W/m 9,7 C 14,3 C 1,6 km/h (1 Bft) 100,00 %
31.03.2016 21:49 14,2 C 74 % 1004,2 hPa 0,0 l/m 0,2 km/h (0 Bft) O-NO 71 0 min 0,000 mm 0,0 UV-I 0 W/m 9,6 C 14,2 C 1,6 km/h (1 Bft) 96,55 %
31.03.2016 21:50 14,2 C 74 % 1004,2 hPa 0,0 l/m 1,2 km/h (1 Bft) O-NO 71 0 min 0,000 mm 0,0 UV-I 0 W/m 9,6 C 14,2 C 1,6 km/h (1 Bft) 100,00 %
31.03.2016 21:51 14,1 C 75 % 1004,2 hPa 0,0 l/m 0,0 km/h (0 Bft) O-NO 71 0 min 0,000 mm 0,0 UV-I 0 W/m 9,7 C 14,1 C 0,0 km/h (0 Bft) 100,00 %
31.03.2016 21:52 14,1 C 75 % 1004,2 hPa 0,0 l/m 0,0 km/h (0 Bft) O-NO 71 0 min 0,000 mm 0,0 UV-I 0 W/m 9,7 C 14,1 C 0,0 km/h (0 Bft) 100,00 %
31.03.2016 21:53 13,9 C 76 % 1004,2 hPa 0,0 l/m 0,3 km/h (0 Bft) O-NO 71 0 min 0,000 mm 0,0 UV-I 0 W/m 9,7 C 13,9 C 1,6 km/h (1 Bft) 100,00 %
31.03.2016 21:54 13,8 C 76 % 1004,2 hPa 0,0 l/m 0,1 km/h (0 Bft) O-NO 71 0 min 0,000 mm 0,0 UV-I 0 W/m 9,6 C 13,8 C 1,6 km/h (1 Bft) 100,00 %
31.03.2016 21:55 13,8 C 75 % 1004,2 hPa 0,0 l/m 1,5 km/h (1 Bft) O-NO 71 0 min 0,000 mm 0,0 UV-I 0 W/m 9,4 C 13,8 C 3,2 km/h (1 Bft) 90,91 %
31.03.2016 21:56 13,8 C 76 % 1004,1 hPa 0,0 l/m 3,8 km/h (1 Bft) O 82 0 min 0,000 mm 0,0 UV-I 0 W/m 9,6 C 13,8 C 4,8 km/h (1 Bft) 100,00 %
31.03.2016 21:57 13,7 C 77 % 1004,1 hPa 0,0 l/m 3,9 km/h (1 Bft) O 83 0 min 0,000 mm 0,0 UV-I 0 W/m 9,7 C 13,7 C 4,8 km/h (1 Bft) 100,00 %
31.03.2016 21:58 13,6 C 78 % 1004,1 hPa 0,0 l/m 2,7 km/h (1 Bft) O 84 0 min 0,000 mm 0,0 UV-I 0 W/m 9,8 C 13,6 C 4,8 km/h (1 Bft) 95,83 %
31.03.2016 21:59 13,4 C 78 % 1004,1 hPa 0,0 l/m 4,0 km/h (1 Bft) O 84 0 min 0,000 mm 0,0 UV-I 0 W/m 9,6 C 13,4 C 4,8 km/h (1 Bft) 100,00 %
31.03.2016 22:00 13,4 C 77 % 1004,1 hPa 0,0 l/m 3,7 km/h (1 Bft) O 84 0 min 0,026 mm 0,0 UV-I 0 W/m 9,5 C 13,4 C 4,8 km/h (1 Bft) 100,00 %
31.03.2016 22:02 13,4 C 76 % 1004,1 hPa 0,0 l/m 1,5 km/h (1 Bft) O 84 0 min 0,000 mm 0,0 UV-I 0 W/m 9,3 C 13,4 C 3,2 km/h (1 Bft) 97,87 %
31.03.2016 22:03 13,5 C 77 % 1004,1 hPa 0,0 l/m 1,0 km/h (0 Bft) O 84 0 min 0,000 mm 0,0 UV-I 0 W/m 9,5 C 13,5 C 1,6 km/h (1 Bft) 96,15 %
31.03.2016 22:04 13,5 C 76 % 1004,1 hPa 0,0 l/m 0,8 km/h (0 Bft) O 84 0 min 0,000 mm 0,0 UV-I 0 W/m 9,4 C 13,5 C 1,6 km/h (1 Bft) 100,00 %
31.03.2016 22:05 13,6 C 76 % 1004,1 hPa 0,0 l/m 0,3 km/h (0 Bft) O 84 0 min 0,000 mm 0,0 UV-I 0 W/m 9,4 C 13,6 C 1,6 km/h (1 Bft) 96,15 %
31.03.2016 22:06 13,5 C 76 % 1004,1 hPa 0,0 l/m 0,0 km/h (0 Bft) O 84 0 min 0,000 mm 0,0 UV-I 0 W/m 9,4 C 13,5 C 0,0 km/h (0 Bft) 95,83 %
31.03.2016 22:07 13,5 C 76 % 1004,1 hPa 0,0 l/m 0,0 km/h (0 Bft) O 84 0 min 0,000 mm 0,0 UV-I 0 W/m 9,4 C 13,5 C 0,0 km/h (0 Bft) 100,00 %
31.03.2016 22:08 13,6 C 76 % 1004,2 hPa 0,0 l/m 0,0 km/h (0 Bft) O 84 0 min 0,000 mm 0,0 UV-I 0 W/m 9,4 C 13,6 C 0,0 km/h (0 Bft) 95,65 %
31.03.2016 22:09 13,6 C 76 % 1004,1 hPa 0,0 l/m 0,0 km/h (0 Bft) O 84 0 min 0,000 mm 0,0 UV-I 0 W/m 9,4 C 13,6 C 0,0 km/h (0 Bft) 100,00 %
31.03.2016 22:10 13,6 C 76 % 1004,1 hPa 0,0 l/m 0,0 km/h (0 Bft) O 84 0 min 0,000 mm 0,0 UV-I 0 W/m 9,4 C 13,6 C 0,0 km/h (0 Bft) 95,65 %
31.03.2016 22:11 13,6 C 76 % 1004,1 hPa 0,0 l/m 0,2 km/h (0 Bft) O 84 0 min 0,000 mm 0,0 UV-I 0 W/m 9,4 C 13,6 C 1,6 km/h (1 Bft) 100,00 %
31.03.2016 22:12 13,6 C 77 % 1004,1 hPa 0,0 l/m 0,0 km/h (0 Bft) O 84 0 min 0,000 mm 0,0 UV-I 0 W/m 9,6 C 13,6 C 0,0 km/h (0 Bft) 91,30 %
31.03.2016 22:13 13,5 C 77 % 1004,1 hPa 0,0 l/m 0,0 km/h (0 Bft) O 84 0 min 0,000 mm 0,0 UV-I 0 W/m 9,5 C 13,5 C 0,0 km/h (0 Bft) 100,00 %
31.03.2016 22:14 13,4 C 77 % 1004,1 hPa 0,0 l/m 0,0 km/h (0 Bft) O 84 0 min 0,000 mm 0,0 UV-I 0 W/m 9,5 C 13,4 C 0,0 km/h (0 Bft) 96,15 %
31.03.2016 22:15 13,4 C 77 % 1004,1 hPa 0,0 l/m 2,6 km/h (1 Bft) O-SO 102 0 min 0,000 mm 0,0 UV-I 0 W/m 9,5 C 13,4 C 4,8 km/h (1 Bft) 95,83 %
31.03.2016 22:16 13,3 C 77 % 1004,1 hPa 0,0 l/m 5,8 km/h (2 Bft) O-SO 115 0 min 0,000 mm 0,0 UV-I 0 W/m 9,4 C 13,3 C 6,4 km/h (2 Bft) 100,00 %
31.03.2016 22:17 13,3 C 77 % 1004,1 hPa 0,0 l/m 7,3 km/h (2 Bft) SO 126 0 min 0,000 mm 0,0 UV-I 0 W/m 9,4 C 12,7 C 8,0 km/h (2 Bft) 95,83 %
31.03.2016 22:18 13,3 C 77 % 1004,2 hPa 0,0 l/m 7,6 km/h (2 Bft) SO 135 0 min 0,000 mm 0,0 UV-I 0 W/m 9,4 C 12,6 C 11,3 km/h (2 Bft) 96,15 %
31.03.2016 22:19 13,3 C 77 % 1004,2 hPa 0,0 l/m 4,6 km/h (1 Bft) O-SO 117 0 min 0,000 mm 0,0 UV-I 0 W/m 9,4 C 13,3 C 8,0 km/h (2 Bft) 91,67 %
31.03.2016 22:20 13,3 C 78 % 1004,1 hPa 0,0 l/m 4,7 km/h (1 Bft) SO 126 0 min 0,000 mm 0,0 UV-I 0 W/m 9,5 C 13,3 C 6,4 km/h (2 Bft) 96,55 %
31.03.2016 22:21 13,2 C 78 % 1004,1 hPa 0,0 l/m 3,9 km/h (1 Bft) O-SO 113 0 min 0,000 mm 0,0 UV-I 0 W/m 9,4 C 13,2 C 4,8 km/h (1 Bft) 96,30 %
31.03.2016 22:22 13,2 C 77 % 1004,1 hPa 0,0 l/m 3,0 km/h (1 Bft) O-SO 113 0 min 0,000 mm 0,0 UV-I 0 W/m 9,3 C 13,2 C 3,2 km/h (1 Bft) 100,00 %
31.03.2016 22:23 13,3 C 76 % 1004,1 hPa 0,0 l/m 1,9 km/h (1 Bft) O-SO 113 0 min 0,000 mm 0,0 UV-I 0 W/m 9,2 C 13,3 C 3,2 km/h (1 Bft) 96,15 %
31.03.2016 22:24 13,4 C 75 % 1004,1 hPa 0,0 l/m 0,5 km/h (0 Bft) O-SO 113 0 min 0,000 mm 0,0 UV-I 0 W/m 9,1 C 13,4 C 1,6 km/h (1 Bft) 100,00 %
31.03.2016 22:25 13,6 C 75 % 1004,1 hPa 0,0 l/m 0,1 km/h (0 Bft) O-SO 113 0 min 0,000 mm 0,0 UV-I 0 W/m 9,3 C 13,6 C 1,6 km/h (1 Bft) 95,65 %
31.03.2016 22:26 13,6 C 75 % 1004,1 hPa 0,0 l/m 0,1 km/h (0 Bft) O-SO 113 0 min 0,000 mm 0,0 UV-I 0 W/m 9,3 C 13,6 C 1,6 km/h (1 Bft) 95,83 %
31.03.2016 22:27 13,6 C 75 % 1004,1 hPa 0,0 l/m 0,7 km/h (0 Bft) O-SO 113 0 min 0,000 mm 0,0 UV-I 0 W/m 9,3 C 13,6 C 1,6 km/h (1 Bft) 100,00 %
31.03.2016 22:28 13,6 C 76 % 1004,1 hPa 0,0 l/m 2,3 km/h (1 Bft) O-SO 113 0 min 0,000 mm 0,0 UV-I 0 W/m 9,4 C 13,6 C 3,2 km/h (1 Bft) 95,83 %
31.03.2016 22:29 13,4 C 76 % 1004,1 hPa 0,0 l/m 3,1 km/h (1 Bft) S 182 0 min 0,000 mm 0,0 UV-I 0 W/m 9,3 C 13,4 C 4,8 km/h (1 Bft) 100,00 %
31.03.2016 22:30 13,4 C 77 % 1004,1 hPa 0,0 l/m 3,6 km/h (1 Bft) W-SW 238 0 min 0,000 mm 0,0 UV-I 0 W/m 9,5 C 13,4 C 4,8 km/h (1 Bft) 91,67 %
31.03.2016 22:31 13,3 C 77 % 1004,1 hPa 0,0 l/m 4,0 km/h (1 Bft) W-SW 238 0 min 0,000 mm 0,0 UV-I 0 W/m 9,4 C 13,3 C 4,8 km/h (1 Bft) 96,15 %
31.03.2016 22:32 13,2 C 78 % 1004,0 hPa 0,0 l/m 2,7 km/h (1 Bft) W-SW 238 0 min 0,000 mm 0,0 UV-I 0 W/m 9,4 C 13,2 C 4,8 km/h (1 Bft) 95,83 %
31.03.2016 22:33 13,1 C 78 % 1004,0 hPa 0,0 l/m 3,1 km/h (1 Bft) W-SW 238 0 min 0,000 mm 0,0 UV-I 0 W/m 9,4 C 13,1 C 4,8 km/h (1 Bft) 96,55 %
31.03.2016 22:34 13,1 C 79 % 1004,1 hPa 0,0 l/m 1,5 km/h (1 Bft) S-SW 202 0 min 0,000 mm 0,0 UV-I 0 W/m 9,5 C 13,1 C 3,2 km/h (1 Bft) 100,00 %
31.03.2016 22:35 13,0 C 79 % 1004,1 hPa 0,0 l/m 1,5 km/h (1 Bft) S-SW 202 0 min 0,000 mm 0,0 UV-I 0 W/m 9,4 C 13,0 C 3,2 km/h (1 Bft) 96,15 %
31.03.2016 22:36 12,9 C 79 % 1004,0 hPa 0,0 l/m 3,7 km/h (1 Bft) S-SW 202 0 min 0,000 mm 0,0 UV-I 0 W/m 9,3 C 12,9 C 4,8 km/h (1 Bft) 100,00 %
31.03.2016 22:37 12,9 C 79 % 1004,1 hPa 0,0 l/m 4,8 km/h (1 Bft) S-SW 202 0 min 0,000 mm 0,0 UV-I 0 W/m 9,3 C 12,9 C 4,8 km/h (1 Bft) 85,71 %
31.03.2016 22:38 12,8 C 79 % 1004,1 hPa 0,0 l/m 3,2 km/h (1 Bft) S-SW 202 0 min 0,000 mm 0,0 UV-I 0 W/m 9,2 C 12,8 C 4,8 km/h (1 Bft) 96,67 %
31.03.2016 22:39 12,8 C 79 % 1004,0 hPa 0,0 l/m 4,6 km/h (1 Bft) S-SW 202 0 min 0,000 mm 0,0 UV-I 0 W/m 9,2 C 12,8 C 4,8 km/h (1 Bft) 96,15 %
31.03.2016 22:40 12,9 C 79 % 1004,0 hPa 0,0 l/m 4,1 km/h (1 Bft) S-SW 202 0 min 0,000 mm 0,0 UV-I 0 W/m 9,3 C 12,9 C 4,8 km/h (1 Bft) 100,00 %
31.03.2016 22:41 12,9 C 79 % 1004,1 hPa 0,0 l/m 3,5 km/h (1 Bft) S-SW 196 0 min 0,000 mm 0,0 UV-I 0 W/m 9,3 C 12,9 C 4,8 km/h (1 Bft) 100,00 %
31.03.2016 22:42 12,9 C 79 % 1004,0 hPa 0,0 l/m 3,8 km/h (1 Bft) S-SW 196 0 min 0,000 mm 0,0 UV-I 0 W/m 9,3 C 12,9 C 4,8 km/h (1 Bft) 95,83 %
31.03.2016 22:43 12,9 C 79 % 1004,1 hPa 0,0 l/m 3,2 km/h (1 Bft) S-SW 196 0 min 0,000 mm 0,0 UV-I 0 W/m 9,3 C 12,9 C 3,2 km/h (1 Bft) 100,00 %
31.03.2016 22:44 12,8 C 79 % 1004,1 hPa 0,0 l/m 3,4 km/h (1 Bft) S-SW 196 0 min 0,000 mm 0,0 UV-I 0 W/m 9,2 C 12,8 C 4,8 km/h (1 Bft) 100,00 %
31.03.2016 22:45 12,8 C 79 % 1004,1 hPa 0,0 l/m 4,0 km/h (1 Bft) S-SW 196 0 min 0,000 mm 0,0 UV-I 0 W/m 9,2 C 12,8 C 4,8 km/h (1 Bft) 100,00 %
31.03.2016 22:46 12,8 C 79 % 1004,1 hPa 0,0 l/m 3,7 km/h (1 Bft) S-SW 196 0 min 0,000 mm 0,0 UV-I 0 W/m 9,2 C 12,8 C 4,8 km/h (1 Bft) 100,00 %
31.03.2016 22:47 12,8 C 79 % 1004,1 hPa 0,0 l/m 5,0 km/h (1 Bft) S 188 0 min 0,000 mm 0,0 UV-I 0 W/m 9,2 C 12,8 C 6,4 km/h (2 Bft) 100,00 %
31.03.2016 22:48 12,8 C 79 % 1004,1 hPa 0,0 l/m 6,3 km/h (2 Bft) S-SO 167 0 min 0,000 mm 0,0 UV-I 0 W/m 9,2 C 12,8 C 8,0 km/h (2 Bft) 100,00 %
31.03.2016 22:49 12,8 C 78 % 1004,1 hPa 0,0 l/m 4,4 km/h (1 Bft) S 185 0 min 0,000 mm 0,0 UV-I 0 W/m 9,1 C 12,8 C 6,4 km/h (2 Bft) 96,30 %
31.03.2016 22:50 12,9 C 78 % 1004,0 hPa 0,0 l/m 3,1 km/h (1 Bft) S 185 0 min 0,000 mm 0,0 UV-I 0 W/m 9,2 C 12,9 C 4,8 km/h (1 Bft) 100,00 %
31.03.2016 22:51 13,0 C 77 % 1004,0 hPa 0,0 l/m 3,6 km/h (1 Bft) S 185 0 min 0,000 mm 0,0 UV-I 0 W/m 9,1 C 13,0 C 4,8 km/h (1 Bft) 96,67 %
31.03.2016 22:52 13,1 C 77 % 1004,1 hPa 0,0 l/m 3,2 km/h (1 Bft) S 185 0 min 0,000 mm 0,0 UV-I 0 W/m 9,2 C 13,1 C 4,8 km/h (1 Bft) 100,00 %
31.03.2016 22:53 13,1 C 75 % 1004,1 hPa 0,0 l/m 3,6 km/h (1 Bft) S 185 0 min 0,000 mm 0,0 UV-I 0 W/m 8,8 C 13,1 C 4,8 km/h (1 Bft) 100,00 %
31.03.2016 22:54 13,2 C 75 % 1004,0 hPa 0,0 l/m 2,7 km/h (1 Bft) S 185 0 min 0,000 mm 0,0 UV-I 0 W/m 8,9 C 13,2 C 3,2 km/h (1 Bft) 100,00 %
31.03.2016 22:55 13,3 C 75 % 1004,0 hPa 0,0 l/m 3,2 km/h (1 Bft) S 184 0 min 0,000 mm 0,0 UV-I 0 W/m 9,0 C 13,3 C 4,8 km/h (1 Bft) 100,00 %
31.03.2016 22:56 13,3 C 74 % 1004,0 hPa 0,0 l/m 3,5 km/h (1 Bft) S 178 0 min 0,000 mm 0,0 UV-I 0 W/m 8,8 C 13,3 C 4,8 km/h (1 Bft) 100,00 %
31.03.2016 22:57 13,3 C 74 % 1004,0 hPa 0,0 l/m 3,4 km/h (1 Bft) S 178 0 min 0,000 mm 0,0 UV-I 0 W/m 8,8 C 13,3 C 4,8 km/h (1 Bft) 100,00 %
31.03.2016 22:58 13,4 C 74 % 1004,0 hPa 0,0 l/m 3,1 km/h (1 Bft) S 181 0 min 0,000 mm 0,0 UV-I 0 W/m 8,9 C 13,4 C 4,8 km/h (1 Bft) 100,00 %
31.03.2016 22:59 13,4 C 74 % 1004,0 hPa 0,0 l/m 3,5 km/h (1 Bft) S 181 0 min 0,000 mm 0,0 UV-I 0 W/m 8,9 C 13,4 C 4,8 km/h (1 Bft) 100,00 %
31.03.2016 23:00 13,4 C 75 % 1004,0 hPa 0,0 l/m 3,2 km/h (1 Bft) S 181 0 min 0,000 mm 0,0 UV-I 0 W/m 9,1 C 13,4 C 4,8 km/h (1 Bft) 100,00 %
31.03.2016 23:02 13,3 C 75 % 1004,0 hPa 0,0 l/m 2,7 km/h (1 Bft) S 181 0 min 0,000 mm 0,0 UV-I 0 W/m 9,0 C 13,3 C 4,8 km/h (1 Bft) 100,00 %
31.03.2016 23:03 13,2 C 75 % 1003,9 hPa 0,0 l/m 0,8 km/h (0 Bft) S 181 0 min 0,000 mm 0,0 UV-I 0 W/m 8,9 C 13,2 C 1,6 km/h (1 Bft) 95,83 %
31.03.2016 23:04 13,2 C 76 % 1003,9 hPa 0,0 l/m 1,0 km/h (0 Bft) S 181 0 min 0,000 mm 0,0 UV-I 0 W/m 9,1 C 13,2 C 1,6 km/h (1 Bft) 96,55 %
31.03.2016 23:05 13,1 C 76 % 1003,9 hPa 0,0 l/m 0,2 km/h (0 Bft) S 181 0 min 0,000 mm 0,0 UV-I 0 W/m 9,0 C 13,1 C 1,6 km/h (1 Bft) 100,00 %
31.03.2016 23:06 13,1 C 76 % 1003,9 hPa 0,0 l/m 0,3 km/h (0 Bft) S 181 0 min 0,000 mm 0,0 UV-I 0 W/m 9,0 C 13,1 C 1,6 km/h (1 Bft) 100,00 %
31.03.2016 23:07 13,1 C 77 % 1003,9 hPa 0,0 l/m 1,6 km/h (1 Bft) S 181 0 min 0,000 mm 0,0 UV-I 0 W/m 9,2 C 13,1 C 3,2 km/h (1 Bft) 100,00 %
31.03.2016 23:08 13,0 C 77 % 1003,9 hPa 0,0 l/m 2,8 km/h (1 Bft) S 181 0 min 0,000 mm 0,0 UV-I 0 W/m 9,1 C 13,0 C 3,2 km/h (1 Bft) 100,00 %
31.03.2016 23:09 12,9 C 77 % 1003,9 hPa 0,0 l/m 2,3 km/h (1 Bft) S 181 0 min 0,000 mm 0,0 UV-I 0 W/m 9,0 C 12,9 C 3,2 km/h (1 Bft) 100,00 %
31.03.2016 23:10 12,9 C 77 % 1003,9 hPa 0,0 l/m 3,1 km/h (1 Bft) SO 129 0 min 0,000 mm 0,0 UV-I 0 W/m 9,0 C 12,9 C 4,8 km/h (1 Bft) 100,00 %
31.03.2016 23:11 12,8 C 76 % 1003,9 hPa 0,0 l/m 3,6 km/h (1 Bft) SO 129 0 min 0,000 mm 0,0 UV-I 0 W/m 8,7 C 12,8 C 4,8 km/h (1 Bft) 100,00 %
31.03.2016 23:12 12,8 C 76 % 1003,9 hPa 0,0 l/m 3,3 km/h (1 Bft) SO 128 0 min 0,000 mm 0,0 UV-I 0 W/m 8,7 C 12,8 C 4,8 km/h (1 Bft) 100,00 %
31.03.2016 23:13 12,8 C 76 % 1003,9 hPa 0,0 l/m 2,9 km/h (1 Bft) SO 128 0 min 0,000 mm 0,0 UV-I 0 W/m 8,7 C 12,8 C 4,8 km/h (1 Bft) 100,00 %
31.03.2016 23:14 12,8 C 77 % 1003,9 hPa 0,0 l/m 3,5 km/h (1 Bft) O-SO 117 0 min 0,000 mm 0,0 UV-I 0 W/m 8,9 C 12,8 C 4,8 km/h (1 Bft) 100,00 %
31.03.2016 23:15 12,7 C 77 % 1003,9 hPa 0,0 l/m 2,1 km/h (1 Bft) O-SO 117 0 min 0,000 mm 0,0 UV-I 0 W/m 8,8 C 12,7 C 3,2 km/h (1 Bft) 100,00 %
31.03.2016 23:16 12,7 C 77 % 1004,0 hPa 0,0 l/m 1,9 km/h (1 Bft) O-SO 117 0 min 0,000 mm 0,0 UV-I 0 W/m 8,8 C 12,7 C 3,2 km/h (1 Bft) 100,00 %
31.03.2016 23:17 12,7 C 78 % 1004,0 hPa 0,0 l/m 2,1 km/h (1 Bft) O-SO 117 0 min 0,000 mm 0,0 UV-I 0 W/m 9,0 C 12,7 C 3,2 km/h (1 Bft) 100,00 %
31.03.2016 23:18 12,8 C 77 % 1004,0 hPa 0,0 l/m 2,1 km/h (1 Bft) O-SO 117 0 min 0,000 mm 0,0 UV-I 0 W/m 8,9 C 12,8 C 3,2 km/h (1 Bft) 100,00 %
31.03.2016 23:19 12,8 C 77 % 1003,9 hPa 0,0 l/m 2,5 km/h (1 Bft) O-SO 117 0 min 0,000 mm 0,0 UV-I 0 W/m 8,9 C 12,8 C 3,2 km/h (1 Bft) 100,00 %
31.03.2016 23:20 12,8 C 77 % 1003,9 hPa 0,0 l/m 3,4 km/h (1 Bft) O-SO 103 0 min 0,000 mm 0,0 UV-I 0 W/m 8,9 C 12,8 C 4,8 km/h (1 Bft) 100,00 %
31.03.2016 23:21 12,9 C 77 % 1004,0 hPa 0,0 l/m 2,5 km/h (1 Bft) O-SO 103 0 min 0,000 mm 0,0 UV-I 0 W/m 9,0 C 12,9 C 3,2 km/h (1 Bft) 100,00 %
31.03.2016 23:22 12,9 C 77 % 1003,9 hPa 0,0 l/m 1,6 km/h (1 Bft) O-SO 103 0 min 0,000 mm 0,0 UV-I 0 W/m 9,0 C 12,9 C 3,2 km/h (1 Bft) 100,00 %
31.03.2016 23:23 12,9 C 77 % 1004,0 hPa 0,0 l/m 2,3 km/h (1 Bft) O-SO 103 0 min 0,000 mm 0,0 UV-I 0 W/m 9,0 C 12,9 C 3,2 km/h (1 Bft) 100,00 %
31.03.2016 23:24 12,9 C 77 % 1004,0 hPa 0,0 l/m 2,3 km/h (1 Bft) O-SO 103 0 min 0,000 mm 0,0 UV-I 0 W/m 9,0 C 12,9 C 3,2 km/h (1 Bft) 100,00 %
31.03.2016 23:25 13,0 C 76 % 1004,0 hPa 0,0 l/m 2,6 km/h (1 Bft) O-SO 103 0 min 0,000 mm 0,0 UV-I 0 W/m 8,9 C 13,0 C 3,2 km/h (1 Bft) 100,00 %
31.03.2016 23:26 13,0 C 76 % 1004,0 hPa 0,0 l/m 3,0 km/h (1 Bft) O-SO 103 0 min 0,000 mm 0,0 UV-I 0 W/m 8,9 C 13,0 C 3,2 km/h (1 Bft) 100,00 %
31.03.2016 23:27 13,1 C 76 % 1004,0 hPa 0,0 l/m 2,1 km/h (1 Bft) O-SO 103 0 min 0,000 mm 0,0 UV-I 0 W/m 9,0 C 13,1 C 3,2 km/h (1 Bft) 100,00 %
31.03.2016 23:28 13,1 C 76 % 1004,1 hPa 0,0 l/m 2,5 km/h (1 Bft) O-SO 103 0 min 0,000 mm 0,0 UV-I 0 W/m 9,0 C 13,1 C 3,2 km/h (1 Bft) 100,00 %
31.03.2016 23:29 13,1 C 76 % 1004,0 hPa 0,0 l/m 2,5 km/h (1 Bft) O-SO 103 0 min 0,000 mm 0,0 UV-I 0 W/m 9,0 C 13,1 C 3,2 km/h (1 Bft) 100,00 %
31.03.2016 23:30 13,1 C 76 % 1004,1 hPa 0,0 l/m 2,2 km/h (1 Bft) O-SO 103 0 min 0,000 mm 0,0 UV-I 0 W/m 9,0 C 13,1 C 3,2 km/h (1 Bft) 100,00 %
31.03.2016 23:31 13,0 C 77 % 1004,0 hPa 0,0 l/m 2,1 km/h (1 Bft) O-SO 103 0 min 0,000 mm 0,0 UV-I 0 W/m 9,1 C 13,0 C 3,2 km/h (1 Bft) 100,00 %
31.03.2016 23:32 12,9 C 77 % 1004,1 hPa 0,0 l/m 2,3 km/h (1 Bft) O-SO 103 0 min 0,000 mm 0,0 UV-I 0 W/m 9,0 C 12,9 C 3,2 km/h (1 Bft) 100,00 %
31.03.2016 23:33 12,9 C 77 % 1004,1 hPa 0,0 l/m 3,4 km/h (1 Bft) O-SO 103 0 min 0,000 mm 0,0 UV-I 0 W/m 9,0 C 12,9 C 4,8 km/h (1 Bft) 100,00 %
31.03.2016 23:34 12,9 C 77 % 1004,0 hPa 0,0 l/m 3,9 km/h (1 Bft) O 93 0 min 0,000 mm 0,0 UV-I 0 W/m 9,0 C 12,9 C 4,8 km/h (1 Bft) 91,30 %
31.03.2016 23:35 12,9 C 76 % 1004,1 hPa 0,0 l/m 5,1 km/h (1 Bft) O-NO 62 0 min 0,000 mm 0,0 UV-I 0 W/m 8,8 C 12,9 C 6,4 km/h (2 Bft) 100,00 %
31.03.2016 23:36 13,0 C 77 % 1004,0 hPa 0,0 l/m 4,6 km/h (1 Bft) O-NO 62 0 min 0,000 mm 0,0 UV-I 0 W/m 9,1 C 13,0 C 6,4 km/h (2 Bft) 100,00 %
31.03.2016 23:37 12,9 C 77 % 1004,0 hPa 0,0 l/m 3,8 km/h (1 Bft) O-NO 62 0 min 0,000 mm 0,0 UV-I 0 W/m 9,0 C 12,9 C 4,8 km/h (1 Bft) 100,00 %
31.03.2016 23:38 12,9 C 77 % 1004,0 hPa 0,0 l/m 3,8 km/h (1 Bft) O-NO 62 0 min 0,000 mm 0,0 UV-I 0 W/m 9,0 C 12,9 C 4,8 km/h (1 Bft) 100,00 %
31.03.2016 23:39 12,9 C 76 % 1004,1 hPa 0,0 l/m 3,5 km/h (1 Bft) O-NO 62 0 min 0,000 mm 0,0 UV-I 0 W/m 8,8 C 12,9 C 4,8 km/h (1 Bft) 100,00 %
31.03.2016 23:40 12,9 C 76 % 1004,1 hPa 0,0 l/m 2,3 km/h (1 Bft) O-NO 62 0 min 0,000 mm 0,0 UV-I 0 W/m 8,8 C 12,9 C 3,2 km/h (1 Bft) 100,00 %
31.03.2016 23:41 13,0 C 76 % 1004,0 hPa 0,0 l/m 1,6 km/h (1 Bft) O-NO 62 0 min 0,000 mm 0,0 UV-I 0 W/m 8,9 C 13,0 C 3,2 km/h (1 Bft) 100,00 %
31.03.2016 23:42 13,0 C 76 % 1004,0 hPa 0,0 l/m 0,0 km/h (0 Bft) O-NO 62 0 min 0,000 mm 0,0 UV-I 0 W/m 8,9 C 13,0 C 0,0 km/h (0 Bft) 100,00 %
31.03.2016 23:43 13,0 C 77 % 1004,0 hPa 0,0 l/m 0,0 km/h (0 Bft) O-NO 62 0 min 0,000 mm 0,0 UV-I 0 W/m 9,1 C 13,0 C 0,0 km/h (0 Bft) 95,83 %
31.03.2016 23:44 12,9 C 77 % 1004,0 hPa 0,0 l/m 0,1 km/h (0 Bft) O-NO 66 0 min 0,000 mm 0,0 UV-I 0 W/m 9,0 C 12,9 C 1,6 km/h (1 Bft) 100,00 %
31.03.2016 23:45 12,8 C 77 % 1004,0 hPa 0,0 l/m 1,9 km/h (1 Bft) O-NO 66 0 min 0,000 mm 0,0 UV-I 0 W/m 8,9 C 12,8 C 4,8 km/h (1 Bft) 100,00 %
31.03.2016 23:46 12,7 C 78 % 1004,0 hPa 0,0 l/m 3,1 km/h (1 Bft) O-NO 66 0 min 0,000 mm 0,0 UV-I 0 W/m 9,0 C 12,7 C 3,2 km/h (1 Bft) 93,33 %
31.03.2016 23:47 12,4 C 79 % 1004,0 hPa 0,0 l/m 2,7 km/h (1 Bft) O-NO 66 0 min 0,000 mm 0,0 UV-I 0 W/m 8,9 C 12,4 C 3,2 km/h (1 Bft) 100,00 %
31.03.2016 23:48 12,3 C 79 % 1004,0 hPa 0,0 l/m 1,0 km/h (0 Bft) O-NO 66 0 min 0,000 mm 0,0 UV-I 0 W/m 8,8 C 12,3 C 1,6 km/h (1 Bft) 100,00 %
31.03.2016 23:49 12,2 C 79 % 1004,0 hPa 0,0 l/m 0,3 km/h (0 Bft) O-NO 66 0 min 0,000 mm 0,0 UV-I 0 W/m 8,7 C 12,2 C 1,6 km/h (1 Bft) 100,00 %
31.03.2016 23:50 12,2 C 79 % 1003,9 hPa 0,0 l/m 2,4 km/h (1 Bft) O-NO 68 0 min 0,000 mm 0,0 UV-I 0 W/m 8,7 C 12,2 C 3,2 km/h (1 Bft) 100,00 %
31.03.2016 23:51 12,1 C 79 % 1003,9 hPa 0,0 l/m 2,7 km/h (1 Bft) O-NO 68 0 min 0,000 mm 0,0 UV-I 0 W/m 8,6 C 12,1 C 3,2 km/h (1 Bft) 100,00 %
31.03.2016 23:52 12,0 C 80 % 1003,9 hPa 0,0 l/m 0,7 km/h (0 Bft) O-NO 68 0 min 0,000 mm 0,0 UV-I 0 W/m 8,7 C 12,0 C 1,6 km/h (1 Bft) 100,00 %
31.03.2016 23:53 11,9 C 80 % 1003,9 hPa 0,0 l/m 0,0 km/h (0 Bft) O-NO 68 0 min 0,000 mm 0,0 UV-I 0 W/m 8,6 C 11,9 C 0,0 km/h (0 Bft) 100,00 %
31.03.2016 23:54 11,9 C 80 % 1003,9 hPa 0,0 l/m 0,0 km/h (0 Bft) O-NO 68 0 min 0,000 mm 0,0 UV-I 0 W/m 8,6 C 11,9 C 0,0 km/h (0 Bft) 100,00 %
31.03.2016 23:55 11,9 C 80 % 1003,9 hPa 0,0 l/m 0,0 km/h (0 Bft) O-NO 68 0 min 0,000 mm 0,0 UV-I 0 W/m 8,6 C 11,9 C 0,0 km/h (0 Bft) 100,00 %
31.03.2016 23:56 12,0 C 79 % 1004,0 hPa 0,0 l/m 0,0 km/h (0 Bft) O-NO 68 0 min 0,000 mm 0,0 UV-I 0 W/m 8,5 C 12,0 C 0,0 km/h (0 Bft) 100,00 %
31.03.2016 23:57 12,1 C 79 % 1003,9 hPa 0,0 l/m 0,0 km/h (0 Bft) O-NO 68 0 min 0,000 mm 0,0 UV-I 0 W/m 8,6 C 12,1 C 0,0 km/h (0 Bft) 100,00 %
31.03.2016 23:58 12,2 C 78 % 1003,9 hPa 0,0 l/m 0,1 km/h (0 Bft) O-NO 68 0 min 0,000 mm 0,0 UV-I 0 W/m 8,5 C 12,2 C 1,6 km/h (1 Bft) 100,00 %
31.03.2016 23:59 12,3 C 78 % 1004,0 hPa 0,0 l/m 2,2 km/h (1 Bft) O-NO 68 0 min 0,000 mm 0,0 UV-I 0 W/m 8,6 C 12,3 C 3,2 km/h (1 Bft) 100,00 %
_ Min-Zeit 06:44 16:22 23:03 - 01:24 - - - - - - 06:42 06:44 01:24 22:37
Minimum _ 5,8 C 43 % 1003,9 hPa - 0,0 km/h (0 Bft) - - - - - - 5,3 C 5,8 C 0,0 km/h (0 Bft) 85,71 %
_ Max-Zeit 16:10 06:32 00:00 00:00 15:51 - - 08:50 14:00 13:34 13:34 14:46 15:43 15:24 00:00
Maximum _ 21,8 C 98 % 1013,4 hPa 0,0 l/m 16,8 km/h
O-NO (3 Bft)
- - 2 min 0,432 mm 4,1 UV-I 797 W/m 13,3 C 21,5 C 20,9 km/h
O-NO (4 Bft)
100,00 %
Durchschnitt _ 13,8 C 76 % 1008,6 hPa #0,0 l/m 5,3 km/h (1 Bft) NO - #8:05 h #3,150 mm 2,4 UV-I 375 W/m 9,1 C 13,3 C 7,7 km/h (2 Bft) 98,68 %